GFSCGP_prec_cloud_003.txt.gz
Cloud_Cover
0 0 0 0 0 44 12 57 100 6 100 99 89 97 0 0 0 0 0 0 0 0 0 0 0 0 0 6 7 6 70 20 48 9 21 14 19 16 5 5 5 28 5 21
0 0 0 0 0 0 0 3 68 100 33 16 100 68 1 0 0 0 0 0 0 0 0 0 0 0 0 0 0 0 0 94 38 8 17 4 3 0 1 4 2 0 22 88
0 0 0 0 0 0 0 0 4 39 8 1 77 100 3 0 0 0 0 0 0 0 0 0 0 0 0 0 0 0 0 0 24 2 0 0 0 0 0 0 49 41 26 2
0 0 0 0 0 0 0 0 0 5 28 83 15 64 94 35 7 0 0 0 0 0 0 0 0 0 0 0 0 0 0 0 0 0 0 0 0 0 0 0 0 0 0 0
0 0 0 0 0 0 37 5 0 0 5 15 78 89 10 65 85 0 0 0 0 0 0 0 0 0 0 0 0 0 1 0 0 0 0 0 0 0 0 0 0 0 0 0
0 0 0 0 0 0 0 0 1 5 13 82 90 99 100 11 53 62 0 0 0 0 0 0 4 0 0 0 0 0 0 0 0 0 0 0 0 0 0 0 0 0 0 0
0 0 0 0 0 0 0 4 5 47 91 99 100 86 100 100 91 18 4 1 0 0 0 0 1 0 0 0 0 0 0 0 0 0 0 0 0 0 0 0 0 0 0 0
0 0 0 0 0 0 0 5 48 67 87 100 66 0 0 0 8 2 0 6 0 0 0 0 0 13 9 0 0 0 0 0 0 0 0 0 0 0 0 0 0 0 0 0
0 0 0 0 0 0 3 0 4 5 10 18 86 32 7 0 0 0 0 0 3 0 0 0 6 23 5 0 0 0 0 0 0 0 0 0 0 0 0 0 0 0 0 0
50 5 20 0 0 4 5 7 2 5 10 98 98 76 37 12 0 0 0 0 0 1 0 0 10 31 0 0 0 0 0 0 0 0 0 0 0 0 0 0 0 0 0 0
5 9 45 4 0 2 0 4 5 84 74 100 94 100 100 5 2 0 1 0 0 0 0 0 0 14 4 0 0 0 0 0 2 0 0 0 0 0 0 0 0 0 0 0
0 4 42 37 4 0 5 22 22 5 55 7 6 100 93 49 11 2 0 0 0 0 0 0 0 18 16 0 0 0 0 0 2 0 0 0 0 0 0 0 0 0 0 0
0 0 4 17 29 4 0 8 95 78 38 38 58 100 2 3 1 0 0 1 4 0 0 0 10 26 0 0 0 0 2 3 10 0 0 0 0 0 0 0 0 0 0 0
0 0 0 1 2 62 8 1 4 20 100 100 67 97 52 39 56 0 0 0 1 3 3 2 0 0 0 0 0 0 4 74 56 0 0 0 0 0 0 0 0 0 0 0
0 0 0 1 4 92 57 30 5 80 18 100 100 77 100 96 28 0 0 0 0 0 0 0 0 0 0 0 0 0 9 95 13 0 0 0 0 0 0 0 0 0 0 0
0 0 0 5 5 5 91 100 100 92 32 56 10 75 100 23 0 0 0 0 0 0 0 0 0 0 0 0 0 0 58 100 0 0 0 0 0 0 0 0 0 0 0 0
0 2 5 5 43 37 100 83 92 86 100 89 81 100 8 3 4 0 0 0 0 0 0 0 0 0 0 0 0 0 98 4 0 0 0 0 0 0 0 0 0 2 0 0
74 2 12 99 90 100 94 100 100 100 100 97 23 4 1 5 0 2 0 5 5 5 5 5 5 0 0 1 0 0 0 1 5 0 0 0 0 0 0 0 3 5 0 11
2 0 62 31 98 100 99 18 7 8 65 93 14 2 25 2 0 2 2 5 5 51 26 10 5 5 5 5 4 5 5 5 5 4 5 0 0 0 0 2 4 5 4 2
1 5 0 84 71 62 100 100 100 100 67 14 13 95 5 0 0 2 5 10 5 5 5 5 5 33 100 92 7 5 5 14 9 5 5 0 0 0 0 0 5 100 100 23
17 4 5 2 5 100 90 83 19 100 100 100 31 0 3 4 5 1 5 5 5 5 5 5 5 7 74 21 5 5 9 80 7 5 5 4 0 12 17 5 5 100 90 1
40 4 18 60 100 100 100 24 100 79 59 5 5 5 5 5 5 5 5 1 1 5 5 5 5 12 31 5 5 8 25 20 76 31 5 4 36 61 94 14 5 30 2 0
21 100 20 100 100 100 12 21 82 90 23 5 5 5 5 5 5 6 94 5 5 4 0 0 3 5 5 4 48 100 100 100 46 5 14 16 11 46 76 38 28 9 12 5
20 8 0 13 90 42 71 93 58 20 47 36 7 6 14 25 38 11 84 24 5 0 0 0 0 1 3 36 100 100 100 86 5 5 16 45 40 26 71 25 23 82 4 100
85 54 30 5 5 4 7 13 52 99 100 92 99 100 100 93 36 26 87 22 5 5 80 14 21 81 100 100 100 100 100 21 5 4 5 5 14 61 65 1 1 0 1 19
100 88 52 98 6 7 5 5 28 19 38 95 100 98 45 6 11 72 37 77 92 20 100 95 100 100 100 100 100 100 67 8 5 17 55 34 37 17 2 32 0 71 44 100

GFSCGP_prec_cloud_006.txt.gz
Cloud_Cover
0 0 0 0 0 95 50 100 46 79 100 0 0 0 0 1 1 0 0 0 0 0 2 2 0 1 14 3 19 100 96 57 0 0 0 0 0 5 0 0 0 0 2 5
0 0 0 0 4 5 100 22 97 100 100 28 18 28 100 8 0 0 0 0 0 0 0 0 0 0 0 76 0 0 0 0 0 0 0 0 0 0 0 0 0 11 14 79
0 0 0 0 0 0 18 1 49 100 96 3 6 59 82 91 0 0 0 0 0 0 0 0 0 0 0 0 0 0 0 0 0 0 0 0 0 0 0 38 96 80 65 7
0 0 0 0 0 0 0 0 0 12 87 12 15 3 39 97 10 76 5 0 0 0 0 0 0 0 0 0 0 0 0 0 0 0 0 0 0 0 0 0 0 0 0 0
0 0 0 0 0 0 0 0 0 5 5 5 82 67 24 56 2 4 3 0 0 0 0 0 0 0 0 0 0 0 0 0 0 0 0 0 0 0 0 0 0 0 0 0
0 0 0 0 0 0 0 0 5 2 1 5 9 22 32 87 57 5 94 78 29 0 2 0 0 0 0 0 0 0 0 0 0 0 0 0 0 0 0 0 0 0 18 3
0 0 0 0 0 0 0 3 13 34 5 0 79 100 76 83 53 51 69 79 69 0 0 0 56 1 0 0 0 0 0 0 0 0 0 0 0 0 0 0 0 0 0 4
0 0 0 0 0 1 0 0 5 5 100 99 100 79 7 100 86 23 30 75 16 3 0 0 23 44 0 0 0 0 0 0 0 0 0 0 0 0 0 0 0 0 0 0
0 0 0 0 0 1 0 0 10 100 90 9 95 28 4 0 0 0 0 0 5 9 92 0 0 26 0 0 0 0 0 0 0 0 0 0 0 0 0 0 0 0 0 0
0 2 0 0 0 0 2 9 0 3 15 81 49 76 73 99 1 1 0 0 2 5 7 66 5 22 0 0 0 0 0 0 0 0 0 0 0 0 0 0 0 0 0 0
20 47 67 4 0 0 17 31 16 26 6 59 32 85 17 68 6 5 1 0 0 0 1 58 1 89 0 0 0 0 0 0 0 0 1 0 0 0 0 0 0 0 0 0
2 100 65 100 33 0 64 25 54 5 74 4 62 100 6 0 0 0 0 0 0 0 0 34 0 0 0 0 0 0 0 0 0 0 3 15 0 0 0 0 0 0 0 0
2 28 6 99 100 100 2 20 6 46 4 4 66 24 41 0 5 5 3 0 0 0 0 0 0 0 1 0 0 0 0 0 0 1 40 100 1 0 0 0 0 0 0 0
97 4 0 41 29 85 30 7 1 59 100 61 91 77 100 70 90 3 3 0 0 0 0 0 0 0 0 5 3 5 4 0 0 3 63 36 5 0 0 0 0 0 0 0
71 71 5 3 69 100 99 98 44 0 7 100 100 30 89 100 98 100 3 5 0 0 0 0 0 0 0 4 5 0 5 0 2 16 87 5 5 0 0 0 0 0 0 0
83 39 5 1 8 15 5 24 100 66 1 0 9 92 15 57 94 6 2 5 0 0 0 0 0 3 0 5 5 4 5 2 3 9 5 58 5 0 0 3 5 5 0 0
53 0 0 0 0 2 8 0 76 100 100 86 80 82 33 9 2 3 0 0 0 0 0 0 1 0 100 10 0 0 2 2 4 61 63 69 4 1 5 5 5 5 4 0
29 0 0 0 3 5 0 10 79 60 58 100 40 51 100 4 44 2 0 0 2 0 0 0 0 0 5 100 9 1 2 4 3 66 90 5 0 5 5 5 5 5 0 0
98 29 70 0 0 0 6 85 87 17 100 55 43 42 99 56 16 78 4 4 5 4 5 5 5 0 11 8 5 5 5 5 5 5 5 3 0 5 26 8 5 5 5 5
82 62 100 100 100 5 5 96 76 33 0 57 61 79 36 3 100 4 1 0 4 64 7 5 5 5 5 5 17 7 5 5 5 5 0 0 5 9 14 5 5 8 5 5
86 100 97 100 86 0 1 70 62 95 94 100 98 100 86 78 79 70 5 5 5 7 89 27 7 7 6 6 15 17 5 5 1 0 0 5 19 35 88 92 5 100 6 14
13 18 30 1 0 0 0 95 3 70 2 100 100 100 100 100 100 100 1 1 5 10 6 7 40 61 72 53 10 5 5 3 0 0 5 5 5 100 99 100 60 2 63 12
97 66 71 100 16 10 32 98 3 88 62 10 93 68 92 100 52 7 10 6 5 17 68 5 5 5 5 5 5 5 5 0 5 28 69 4 0 25 10 36 76 72 5 98
92 39 78 52 17 95 100 100 100 1 8 27 19 6 79 65 99 97 97 21 5 5 66 37 94 15 5 5 63 23 97 94 100 100 100 99 16 93 5 38 95 100 62 0
100 100 72 47 7 82 100 100 100 83 57 22 100 61 46 5 5 8 24 5 5 60 100 62 82 65 5 100 100 100 100 100 100 100 100 100 100 33 11 64 100 100 53 19
100 100 100 100 95 82 100 100 100 100 97 8 3 3 4 5 5 5 5 5 5 100 100 19 2 4 6 83 100 100 100 100 100 98 100 77 24 5 89 10 29 88 86 100

GFSCGP_prec_cloud_009.txt.gz
Cloud_Cover
0 0 0 0 0 0 46 35 62 99 43 48 1 0 0 0 0 0 0 0 0 0 0 0 0 0 0 3 13 5 50 27 0 0 0 0 0 0 0 0 0 0 8 0
0 0 0 0 0 5 71 100 23 50 6 8 21 28 0 86 20 0 1 0 0 0 0 0 0 0 0 0 0 0 0 0 0 0 0 0 0 0 0 0 0 0 6 26
0 0 0 0 1 5 6 100 99 35 5 54 20 5 0 82 99 90 5 1 0 0 0 0 0 0 0 0 0 0 0 0 0 0 0 0 0 0 0 6 100 65 96 32
0 0 0 0 0 1 5 33 50 91 47 65 7 0 0 11 5 61 18 0 0 0 0 0 0 0 0 0 0 0 0 0 0 0 0 0 0 0 0 0 0 0 0 0
0 0 0 0 0 0 0 4 1 5 84 90 13 5 0 37 0 3 54 46 94 56 0 0 0 0 0 0 0 0 0 0 0 0 0 0 0 0 0 0 0 0 0 0
0 0 0 0 0 0 0 0 0 4 3 0 0 0 0 0 3 46 46 24 38 13 0 0 0 0 0 0 0 0 0 0 0 0 0 0 0 0 0 0 0 0 0 0
0 0 0 0 0 0 0 0 0 0 0 0 2 0 3 6 5 5 4 0 2 2 0 0 0 0 0 1 0 0 0 0 0 0 0 0 0 0 0 0 0 0 0 0
0 0 0 0 0 0 0 0 0 0 16 14 18 82 6 89 84 2 0 0 0 0 0 32 9 92 87 100 4 0 0 0 1 0 0 0 0 0 0 0 0 0 0 0
0 0 0 0 0 0 0 0 0 46 100 100 100 4 79 5 5 0 0 0 0 0 0 25 43 66 29 100 19 0 0 0 9 4 0 0 0 0 0 0 0 0 0 0
0 0 0 0 0 0 2 0 0 7 20 37 94 99 86 6 9 6 5 0 4 0 2 34 71 98 100 3 0 0 0 2 5 0 0 0 0 0 0 0 0 0 0 0
0 0 0 2 0 0 2 0 0 0 3 60 22 62 100 100 76 48 64 48 0 0 0 62 61 52 5 0 0 0 0 5 19 5 1 0 4 0 5 0 0 0 0 0
0 0 2 31 4 2 5 0 0 5 18 5 57 96 65 61 98 48 5 0 0 0 0 0 0 0 0 0 79 0 0 2 4 2 5 4 2 1 5 5 4 0 0 0
0 0 30 100 84 98 55 0 3 8 0 4 4 31 13 20 54 5 4 3 3 0 3 0 0 0 0 0 0 0 0 0 2 5 5 5 5 5 5 4 5 0 0 0
0 0 10 3 90 53 95 5 3 0 0 0 0 89 99 53 5 15 61 21 4 0 0 1 0 0 0 0 0 0 0 2 5 4 61 5 4 5 4 32 0 0 0 0
4 0 30 5 100 94 98 99 34 26 3 0 1 16 3 13 10 5 82 30 98 50 89 2 0 0 0 0 0 0 0 3 53 97 72 5 99 47 2 4 2 0 0 0
0 0 24 78 100 100 99 100 58 100 44 6 19 73 0 67 98 4 46 5 50 98 41 5 2 0 5 5 5 1 5 100 100 100 99 94 100 65 5 5 5 0 0 0
91 24 3 34 18 100 54 79 100 100 70 6 72 78 8 3 5 1 0 0 1 0 1 0 0 0 0 0 0 0 8 100 93 19 64 100 92 65 72 16 4 4 0 0
100 100 95 96 91 12 0 1 2 46 18 82 96 25 70 15 5 2 0 3 18 6 3 0 0 0 3 5 1 0 27 41 67 93 87 36 77 72 61 9 0 0 1 5
100 100 100 14 22 0 0 0 0 0 0 2 100 100 10 20 88 60 5 5 1 14 5 85 0 0 0 4 5 5 5 5 11 5 42 50 100 91 52 30 4 4 5 1
97 97 88 38 1 0 0 0 0 0 33 83 100 55 68 19 5 5 5 22 14 27 18 98 5 1 5 3 1 5 5 67 89 100 56 100 100 100 100 72 64 5 5 3
54 91 88 23 9 4 67 71 92 59 45 97 89 88 96 74 34 19 79 40 100 6 35 6 14 75 6 5 7 54 52 97 86 100 100 97 100 100 58 87 24 5 95 42
100 100 92 84 44 67 100 84 93 100 96 100 100 77 95 100 100 100 82 100 100 95 25 100 100 6 0 3 5 96 100 100 100 100 70 100 100 100 99 68 85 100 100 100
15 100 100 100 99 80 100 100 65 31 85 82 100 25 8 42 89 99 94 100 99 80 1 0 8 68 9 5 93 100 100 100 100 100 100 100 100 100 95 100 100 100 100 66
57 100 100 100 98 68 81 100 100 100 100 100 96 100 95 98 100 100 4 4 23 22 0 3 0 2 28 100 100 100 100 100 100 100 100 100 100 100 100 100 100 100 100 38
93 27 100 100 13 4 14 35 100 100 95 100 100 100 100 100 99 88 81 46 11 5 13 4 2 1 33 94 100 100 100 100 100 100 100 100 100 100 96 100 100 89 52 39
100 74 12 99 96 6 82 95 49 87 100 100 100 100 100 100 100 61 14 26 4 5 3 4 5 5 7 94 100 100 100 100 100 100 100 100 100 100 100 100 57 94 86 100

GFSCGP_prec_cloud_012.txt.gz
Cloud_Cover
0 0 0 0 0 0 4 34 4 5 5 4 5 5 0 0 0 0 0 0 0 0 0 0 0 0 0 0 0 0 0 0 0 0 0 0 0 0 0 0 0 0 0 32
0 0 0 0 0 1 50 69 29 93 35 5 4 5 0 0 10 0 2 0 0 0 0 0 0 0 0 0 0 0 0 0 0 0 0 0 0 0 0 0 0 0 2 27
0 0 0 0 0 4 72 94 86 42 96 99 11 5 18 0 3 5 41 0 0 0 0 0 0 0 0 0 0 0 0 0 0 0 0 0 0 0 0 0 0 100 100 53
0 0 0 0 0 4 90 5 66 6 34 16 2 5 4 2 0 4 2 0 4 5 0 0 0 0 0 0 0 0 0 0 0 0 0 0 0 0 0 0 0 0 0 0
0 0 0 0 0 0 3 5 81 95 99 5 0 20 0 0 0 1 1 0 41 7 5 0 0 0 0 0 0 0 3 3 0 0 0 0 0 0 0 0 0 0 0 0
0 0 0 0 0 0 0 5 85 100 63 3 0 0 1 0 2 2 4 1 14 1 4 0 0 0 0 4 23 36 38 0 0 0 0 0 0 0 0 0 0 0 0 0
0 0 0 0 0 0 0 2 2 0 13 0 2 0 0 0 0 31 4 0 0 0 0 0 0 0 0 0 0 29 51 0 4 0 0 0 0 0 0 0 0 0 0 0
0 0 0 0 0 0 0 0 0 0 0 0 0 5 4 98 4 5 3 0 0 0 0 0 0 3 2 0 0 100 69 0 0 0 0 3 5 2 5 5 5 0 0 0
0 0 0 0 0 0 0 0 0 0 0 0 77 7 0 5 5 5 0 0 0 0 0 0 0 0 0 0 0 0 1 0 0 0 95 66 100 22 0 5 3 0 0 0
0 0 0 0 0 0 0 0 0 0 0 4 0 0 4 41 70 20 1 0 0 0 0 0 0 0 0 28 26 1 0 0 7 4 100 100 100 2 1 3 5 0 5 1
0 0 0 0 0 0 0 0 0 0 0 4 1 2 5 23 5 5 29 21 1 0 0 0 0 0 0 0 0 0 0 6 14 5 91 84 5 5 6 5 5 5 12 5
0 0 0 0 0 0 0 0 0 0 0 0 4 1 2 8 5 3 92 88 0 0 0 0 0 0 0 0 0 0 0 16 7 1 25 8 5 100 97 68 5 21 100 58
0 0 0 0 0 0 0 7 1 0 0 0 0 0 0 0 0 4 5 5 12 0 0 0 0 0 0 0 0 0 0 0 2 20 72 84 100 100 100 100 100 100 100 100
0 0 0 0 0 0 2 85 68 3 0 0 0 0 0 0 1 0 0 0 0 0 0 0 0 2 2 0 0 0 0 0 0 5 67 95 89 100 100 100 94 100 100 100
0 0 0 0 0 15 5 4 20 15 2 1 0 0 0 0 0 0 0 4 3 3 4 41 6 3 0 4 0 0 0 0 2 5 62 96 100 100 100 100 100 100 100 100
11 1 0 0 5 54 94 57 100 92 100 100 31 8 5 0 0 1 0 5 1 5 0 0 12 3 0 0 5 0 6 32 100 0 78 100 100 100 100 100 100 100 100 100
0 30 5 4 88 100 93 31 90 100 62 30 100 55 98 5 5 5 2 0 0 1 5 4 0 0 0 0 0 0 19 84 41 100 100 100 100 100 100 100 100 100 100 100
0 54 95 100 100 100 98 100 100 25 95 82 94 75 100 55 81 55 0 0 0 0 12 5 0 3 0 0 0 0 0 3 95 51 56 72 100 100 100 100 100 100 100 100
90 5 100 100 100 91 100 100 87 100 100 100 11 0 1 14 9 2 0 1 5 4 4 3 2 4 0 0 0 0 0 3 4 6 51 90 93 100 100 100 100 100 100 37
100 84 100 87 19 90 90 93 100 86 100 5 95 99 3 5 0 0 5 0 0 0 2 100 100 45 5 14 5 0 0 0 0 0 31 100 100 100 100 100 100 100 100 100
100 100 76 66 100 80 0 0 0 2 57 2 0 0 0 21 67 92 4 18 12 40 95 87 99 90 99 100 5 0 0 1 21 95 100 100 100 100 99 100 99 89 99 100
24 100 99 63 18 90 0 5 3 0 0 0 13 54 9 51 58 76 47 63 32 64 92 100 100 100 100 99 68 4 19 8 16 99 100 100 100 100 100 97 98 97 100 100
84 100 100 86 69 7 29 43 4 1 4 100 100 100 100 85 92 78 94 100 100 100 91 10 24 86 86 79 100 94 80 72 90 96 100 100 100 100 100 100 100 100 100 100
93 100 100 100 100 100 100 88 47 52 87 100 100 100 100 100 100 100 100 100 100 100 98 56 63 59 59 52 100 100 93 100 100 100 100 100 100 100 100 100 100 100 100 100
100 100 100 100 100 100 100 100 100 100 100 100 100 100 100 100 100 100 100 100 84 93 100 100 87 7 28 4 100 100 98 100 96 88 100 100 100 100 100 100 100 100 100 100
93 100 100 100 100 100 100 100 100 100 100 100 100 100 100 100 100 100 100 100 100 100 99 100 98 8 36 76 31 99 38 61 91 100 100 100 100 100 100 100 100 100 100 100

GFSCGP_prec_cloud_015.txt.gz
Cloud_Cover
0 0 0 0 0 0 0 2 3 5 5 4 5 11 0 0 0 0 0 0 0 0 0 0 0 0 0 0 0 0 0 0 3 10 0 0 0 0 0 0 0 0 0 1
0 0 0 0 0 0 0 4 7 92 9 60 100 11 51 5 0 0 0 0 0 0 0 0 0 0 0 0 0 0 0 0 0 0 0 0 0 0 0 0 0 0 0 0
0 0 0 0 0 0 5 0 8 5 39 99 99 15 5 9 2 3 2 2 0 0 1 0 0 0 0 0 0 0 2 5 0 0 0 0 1 1 0 0 0 0 40 94
0 0 0 0 0 0 0 3 5 28 5 1 0 0 5 14 3 0 5 0 5 0 0 2 0 0 0 0 1 4 3 5 1 0 0 0 3 0 0 0 0 0 0 0
0 0 0 0 0 0 0 12 53 58 5 3 0 0 0 0 0 0 0 3 5 0 0 0 0 0 0 0 0 0 0 30 40 0 0 10 0 0 0 0 0 0 0 0
0 0 0 0 0 1 4 98 100 14 4 0 0 0 0 0 0 0 0 2 1 4 0 0 0 0 0 0 0 0 0 4 21 5 0 1 0 0 5 5 5 0 0 0
0 0 0 0 0 1 0 100 31 4 0 0 0 0 0 0 0 0 0 0 0 2 0 0 0 0 0 0 0 0 0 0 0 0 0 0 3 3 12 9 5 5 5 5
0 0 0 0 0 0 0 72 7 4 0 0 0 0 0 0 5 5 4 0 0 0 1 0 0 0 5 5 0 0 0 0 0 5 0 3 0 3 58 100 88 22 99 39
0 0 0 0 0 0 0 4 0 0 0 0 0 0 0 4 28 5 0 0 0 0 0 0 0 2 33 62 4 0 0 0 0 1 17 88 4 20 100 35 19 100 100 5
0 0 0 0 0 0 0 0 0 0 0 0 0 0 0 0 85 0 0 0 0 0 0 0 0 0 0 33 1 0 0 0 0 2 5 98 5 68 100 45 100 99 74 100
0 0 0 0 0 0 0 0 0 0 0 0 0 0 0 1 0 0 3 4 0 0 0 0 0 0 0 0 0 0 0 0 0 0 34 79 35 82 95 18 100 100 100 100
0 0 0 0 0 0 0 0 0 0 0 0 0 0 0 0 0 0 0 1 0 5 1 2 3 3 3 0 0 0 0 0 0 17 100 15 5 5 16 88 100 100 100 100
0 0 0 0 0 0 0 0 0 0 0 0 0 0 0 0 0 0 0 0 0 0 5 1 0 2 0 0 0 0 0 0 0 63 2 2 0 8 80 100 100 100 100 100
0 0 0 0 0 0 0 0 0 0 0 0 0 0 0 0 0 0 0 0 0 4 3 0 0 0 0 0 0 0 0 0 0 88 9 0 0 52 100 100 100 100 100 42
0 0 0 0 0 0 0 0 0 0 0 0 0 0 0 0 0 0 0 0 0 0 0 0 0 0 0 0 0 5 5 0 0 9 43 0 99 100 100 100 100 100 80 100
0 0 0 0 0 0 0 0 5 6 5 42 0 0 0 1 0 0 0 0 0 0 0 0 0 0 0 0 0 0 0 0 0 99 86 100 100 100 100 100 100 100 100 100
5 0 0 0 0 0 16 0 95 21 82 94 65 2 0 0 0 0 0 0 0 0 0 0 0 2 5 4 0 0 0 0 0 1 86 100 100 100 100 100 100 100 99 77
3 1 1 0 0 55 3 10 100 44 20 98 27 6 0 0 0 5 4 0 0 0 0 0 0 0 3 5 2 5 0 0 2 0 8 87 100 100 100 100 100 100 54 99
0 2 13 0 0 63 99 100 100 100 44 29 47 0 2 5 14 6 2 4 56 85 72 3 0 0 0 5 5 5 5 1 0 0 0 2 3 35 95 100 81 100 80 100
99 1 74 6 1 98 20 100 92 84 25 4 0 9 80 100 100 47 42 86 99 96 100 13 2 38 100 77 86 26 2 3 0 0 2 16 100 100 100 100 100 100 83 100
100 100 84 98 100 100 86 48 100 64 72 0 11 97 91 100 100 100 61 46 9 54 4 10 97 100 86 87 65 100 8 5 0 0 0 3 57 100 100 95 97 100 100 100
70 100 82 99 100 59 1 5 100 54 17 89 4 3 13 9 13 45 95 4 2 16 50 83 95 100 98 89 100 65 30 11 5 0 0 18 20 93 99 100 37 99 100 100
83 98 100 100 75 11 5 6 12 53 100 64 59 6 0 0 0 0 1 88 96 100 74 100 99 100 100 100 94 68 88 40 10 1 5 84 100 100 100 100 100 100 100 100
100 100 100 100 100 50 5 20 46 6 43 51 22 20 53 61 6 78 97 57 99 100 99 100 92 98 99 89 93 63 58 96 16 66 100 83 93 100 98 100 100 100 100 100
98 100 100 100 100 100 99 100 96 100 100 100 96 97 100 98 58 100 100 100 100 97 100 100 100 63 100 40 48 100 41 22 2 5 5 2 18 59 86 94 100 70 96 100
88 100 100 100 100 100 100 84 83 92 100 99 100 100 100 100 100 98 100 100 100 100 100 89 100 99 100 65 54 100 100 100 100 72 73 20 6 95 93 100 100 100 100 100

GFSCGP_prec_cloud_018.txt.gz
Cloud_Cover
0 0 0 0 0 0 0 0 0 5 5 43 13 69 0 0 0 0 0 0 0 0 0 0 0 0 0 0 0 0 0 0 7 2 11 15 11 5 6 0 0 0 0 0
0 0 0 0 0 0 0 0 0 5 5 5 58 73 5 4 0 0 0 0 0 0 0 0 0 0 0 0 0 0 0 5 0 2 0 0 0 1 0 0 0 0 0 0
0 0 0 0 0 0 0 0 0 0 5 5 5 3 21 7 2 1 0 0 0 0 2 4 1 0 0 0 0 0 0 0 0 0 10 19 9 8 0 0 0 1 2 0
0 0 0 0 0 0 0 0 0 0 5 2 49 2 8 12 5 0 5 4 3 0 0 0 0 5 0 0 0 0 0 0 0 0 4 1 2 6 0 0 0 1 36 5
0 0 0 0 0 0 0 0 0 6 5 5 5 3 0 4 0 5 0 6 33 1 0 0 0 0 0 0 0 0 0 0 0 0 0 0 3 0 0 0 0 5 19 9
0 0 0 0 0 0 0 3 54 91 47 4 0 0 0 0 2 0 0 84 87 5 0 0 0 0 0 0 0 0 0 0 0 0 0 0 0 0 0 0 5 100 84 22
0 0 0 0 0 0 0 4 87 83 85 5 0 0 0 0 0 0 0 20 5 4 0 0 0 0 0 0 0 0 0 0 0 0 0 0 0 0 0 0 2 46 98 100
0 0 0 0 0 0 0 0 3 59 5 4 5 0 0 0 2 0 4 1 0 0 3 0 0 0 0 0 0 0 0 0 0 0 0 3 0 47 1 31 5 6 27 89
0 0 0 0 0 0 0 0 1 99 9 4 2 0 0 0 0 0 0 0 0 0 5 5 0 0 0 0 4 0 30 0 1 0 0 0 0 69 12 61 85 7 8 15
0 0 0 0 0 0 0 0 3 70 7 3 0 0 0 0 0 0 0 0 0 0 0 2 0 0 0 0 1 4 0 0 0 0 0 1 53 4 100 1 5 59 78 92
0 0 0 0 0 0 0 0 0 2 5 2 0 0 0 0 0 0 48 3 0 0 0 0 0 0 0 0 0 0 0 0 0 0 0 22 98 31 29 57 100 100 100 100
0 0 0 0 0 0 0 0 0 0 0 3 0 0 0 0 0 3 5 5 0 0 0 0 2 0 0 0 0 0 0 0 0 0 46 92 100 62 83 100 100 100 100 100
0 0 0 0 0 0 0 0 0 0 0 0 0 0 0 0 0 0 0 5 0 0 0 0 0 0 5 3 0 0 0 0 0 0 83 100 1 99 100 100 100 100 100 100
0 0 0 0 0 0 0 0 0 0 0 0 0 0 0 0 0 0 5 2 0 0 0 0 0 0 3 5 4 2 0 0 0 0 0 95 93 100 100 100 100 100 100 100
5 0 0 0 0 0 0 0 0 0 0 0 0 0 0 0 0 0 1 0 0 5 0 0 0 0 0 1 4 1 0 0 0 0 0 3 4 100 100 100 100 100 100 100
4 0 0 0 0 0 0 0 0 0 0 0 0 0 0 0 0 0 0 0 0 0 0 0 0 0 0 0 0 0 5 4 0 0 2 0 28 99 100 100 100 100 100 100
5 0 0 0 0 0 0 0 0 0 0 0 0 0 0 0 0 0 0 0 0 0 0 0 0 0 0 0 0 0 0 4 0 0 0 0 4 11 16 86 100 100 100 100
41 0 0 0 0 0 0 0 0 0 0 20 1 0 0 0 0 2 0 0 0 3 0 0 0 0 0 0 0 2 3 0 0 0 0 3 5 4 6 93 100 100 100 100
32 6 1 0 0 0 0 0 0 0 0 64 32 0 5 4 0 0 0 0 3 2 0 5 3 4 0 0 2 5 5 11 20 25 21 6 5 7 50 78 100 100 100 100
99 32 78 4 0 0 0 0 0 0 53 5 71 43 5 4 0 0 0 4 5 5 5 5 5 5 0 0 8 60 11 46 44 43 33 8 0 1 13 53 49 97 60 91
100 96 99 92 85 6 0 0 0 37 74 45 1 29 5 3 1 1 2 44 44 14 16 99 60 10 5 5 74 100 91 51 32 15 37 41 29 22 12 51 32 52 100 100
100 100 100 100 100 92 0 0 1 69 74 9 77 98 69 5 17 71 86 100 100 100 88 81 49 24 3 83 84 50 100 94 47 98 22 24 48 64 86 18 14 100 100 100
100 96 100 100 100 39 5 2 82 100 98 35 34 99 8 7 80 100 100 100 79 98 95 84 2 6 21 78 100 66 84 100 65 100 69 6 22 34 21 4 7 6 90 100
100 100 100 100 99 41 70 5 5 12 5 4 71 95 100 54 6 4 18 19 74 33 52 100 100 90 98 83 100 68 41 99 27 92 40 76 90 35 16 2 5 17 99 99
100 100 100 100 100 100 100 100 88 84 59 5 0 4 2 1 73 100 99 98 62 100 100 97 88 83 100 80 74 100 100 100 20 21 5 7 5 10 100 100 100 98 93 60
100 99 99 100 100 100 100 75 100 100 100 96 98 48 28 78 100 100 100 100 100 100 100 58 64 100 100 100 100 98 91 48 40 45 5 53 100 96 100 100 100 100 100 100

GFSCGP_prec_cloud_021.txt.gz
Cloud_Cover
0 0 0 0 0 0 0 0 0 5 5 5 0 0 0 0 0 0 0 0 0 0 0 0 0 0 0 0 0 0 0 0 0 2 0 0 0 0 0 0 0 0 0 0
0 0 0 0 0 0 0 0 0 3 2 5 5 2 0 0 0 0 0 0 0 0 0 0 0 0 0 0 0 0 0 0 0 0 0 0 0 0 0 0 0 0 0 0
0 0 0 0 0 0 0 0 0 0 5 5 5 1 0 1 0 0 0 0 0 0 0 0 0 0 0 0 0 0 0 0 0 0 8 6 0 0 0 0 0 0 0 1
0 0 0 0 0 0 0 0 0 0 0 0 3 1 4 2 0 0 0 0 0 0 0 0 0 0 0 0 0 0 0 0 0 0 0 0 0 0 0 0 0 0 0 6
0 0 0 0 0 0 0 0 0 2 1 0 0 0 4 0 0 0 0 5 2 0 0 0 0 0 0 0 0 0 0 0 0 0 0 0 0 0 3 0 0 0 3 3
0 0 0 0 0 0 0 0 0 0 4 3 0 0 0 0 0 4 0 0 5 4 1 0 0 0 0 0 0 0 0 0 0 0 0 0 0 0 0 0 0 0 0 7
0 0 0 0 2 2 0 3 1 0 5 0 0 0 0 0 0 2 0 0 5 5 0 0 0 0 0 0 0 0 0 0 0 0 0 0 0 0 0 0 0 4 5 18
0 0 0 0 0 0 0 0 5 2 0 0 0 0 0 0 0 0 0 0 0 0 0 0 0 0 0 0 0 0 0 0 0 0 0 0 5 2 5 21 0 8 82 46
0 0 0 0 0 0 0 1 0 5 5 0 0 0 0 0 0 0 0 0 0 0 0 0 0 0 0 0 0 0 0 0 0 0 0 0 0 0 2 71 11 94 86 28
0 0 0 0 0 0 0 1 2 1 3 5 4 0 0 0 0 0 0 0 0 0 0 0 0 0 0 0 0 0 0 0 2 0 0 0 0 40 59 62 13 100 100 100
0 0 0 0 0 0 0 0 5 1 0 0 4 0 0 0 0 0 0 0 0 0 0 0 0 0 0 0 0 0 0 0 0 0 0 0 50 19 65 9 18 100 100 100
0 0 0 0 0 0 0 0 0 0 0 0 0 0 0 0 0 0 0 0 0 0 0 0 0 0 0 0 0 0 0 0 0 0 0 20 100 27 11 100 100 100 100 100
0 0 0 0 0 0 0 0 0 3 1 0 0 3 0 0 0 0 0 0 0 0 0 0 0 0 0 0 0 0 3 2 1 0 0 46 94 57 60 21 100 100 100 100
0 0 0 0 0 0 0 0 0 0 1 0 0 4 0 0 0 0 0 0 0 0 0 0 0 0 0 0 0 4 3 2 1 3 5 17 0 5 5 17 72 100 100 100
0 0 0 0 0 0 0 0 0 0 0 0 2 0 1 0 0 0 0 0 5 4 0 0 0 0 0 0 0 5 5 0 0 0 15 16 0 0 1 2 2 100 100 100
0 0 0 0 0 0 0 0 0 0 0 0 0 0 0 0 0 0 0 0 13 54 56 0 0 0 0 0 0 0 0 0 0 0 1 15 31 5 5 5 2 99 100 100
0 0 0 0 0 0 0 0 0 0 0 0 0 0 0 0 0 0 0 0 0 0 0 0 0 0 0 0 0 0 0 0 4 4 18 55 30 6 74 68 5 4 6 79
5 2 4 0 1 18 0 0 0 0 0 0 0 0 0 0 0 0 0 0 0 22 5 0 0 0 0 0 0 0 0 0 1 7 41 58 52 43 35 6 0 11 30 73
0 5 15 4 24 2 0 0 0 0 0 0 0 0 0 0 0 0 0 0 4 5 24 4 0 0 0 0 0 0 0 0 2 16 38 48 55 90 71 5 6 45 16 78
5 0 5 5 91 27 0 0 0 0 0 0 0 0 0 0 0 0 4 0 0 5 5 5 2 0 0 3 2 0 0 0 0 1 12 67 62 93 88 47 82 96 47 89
78 0 36 50 100 82 0 0 0 0 0 0 0 0 0 0 0 3 0 0 5 42 12 10 10 26 73 93 11 3 0 0 0 10 96 100 100 97 68 100 100 94 80 87
57 0 8 94 100 88 23 3 2 0 0 0 0 0 0 2 7 5 3 0 0 4 2 15 75 89 100 49 5 0 0 11 40 90 93 96 91 97 98 100 100 100 88 91
5 0 19 98 88 83 100 87 5 1 0 0 0 0 73 4 5 100 100 0 0 5 58 98 100 84 100 100 5 3 39 100 99 100 92 70 100 100 99 99 100 100 100 98
5 0 1 100 100 100 100 100 100 7 2 0 0 0 100 9 100 79 19 54 15 95 96 19 93 67 0 2 14 100 100 96 68 70 98 100 100 100 100 100 100 100 97 72
72 5 98 98 100 100 99 100 83 88 67 0 0 4 56 5 68 100 90 96 100 82 15 5 13 13 6 95 100 100 75 91 95 100 97 100 100 100 90 87 100 100 92 40
100 99 100 100 100 100 100 100 100 100 100 83 4 2 20 30 20 34 100 100 93 6 40 93 100 99 99 100 100 76 75 31 70 66 84 100 100 54 80 60 83 100 100 100

GFSCGP_prec_cloud_024.txt.gz
Cloud_Cover
0 0 0 0 0 4 98 2 5 5 0 5 0 0 0 0 0 0 0 0 0 0 0 0 0 0 0 0 0 0 0 0 0 7 5 6 2 0 19 24 22 23 20 1
0 0 0 0 0 0 3 5 5 8 5 4 4 0 0 0 0 0 0 0 0 0 0 0 0 0 0 0 0 0 0 0 0 0 0 13 46 29 7 23 19 4 17 21
0 0 0 0 0 0 0 2 5 71 5 5 5 0 0 0 0 0 0 0 0 0 0 0 0 0 0 0 0 0 0 0 0 0 3 16 8 3 23 3 3 0 3 2
0 0 0 0 0 0 0 0 4 77 7 5 0 5 5 1 0 0 0 0 0 0 0 0 0 0 0 0 0 0 0 0 0 0 0 0 0 0 0 0 0 0 0 0
0 0 0 0 0 0 0 0 0 37 40 90 66 4 5 2 0 0 0 0 0 0 0 0 0 0 0 0 0 0 0 0 0 0 0 0 0 0 0 0 0 0 0 4
0 0 0 0 0 0 0 2 0 5 92 91 81 46 5 4 0 0 0 0 0 0 0 0 0 0 0 0 0 0 0 0 0 0 0 0 0 0 0 0 0 0 0 90
2 0 0 0 0 0 0 0 2 5 46 53 95 35 2 6 4 4 2 0 0 0 0 0 0 0 0 0 0 0 0 0 0 0 0 0 0 0 0 6 2 0 3 50
0 0 0 0 0 0 0 0 1 5 66 76 22 16 0 0 0 3 5 0 0 0 0 0 0 0 0 0 0 0 0 0 0 0 0 0 0 0 0 7 0 1 23 84
0 0 0 0 0 0 0 0 0 51 79 90 14 6 0 1 4 0 0 0 0 0 0 0 0 0 0 0 0 0 0 0 0 0 0 0 0 0 0 1 5 96 8 70
0 0 0 0 0 0 0 0 0 2 75 100 5 11 0 0 0 0 0 0 0 0 0 0 0 0 0 0 0 0 0 0 0 0 0 0 0 0 1 59 3 5 4 84
0 0 0 0 0 0 0 0 0 4 5 38 8 0 0 0 0 0 0 0 3 4 0 0 0 0 0 0 0 0 0 0 0 0 0 0 0 0 5 37 51 64 6 14
0 1 0 0 0 0 0 0 0 0 2 5 13 4 5 1 0 0 0 0 0 0 0 0 0 0 0 0 0 0 0 0 0 0 0 0 0 0 0 5 78 4 96 80
0 0 3 0 0 0 0 0 0 4 0 0 3 1 3 0 0 0 0 0 0 0 0 0 0 0 0 0 0 0 0 0 0 0 0 0 0 0 5 0 0 0 42 4
0 0 0 0 0 0 0 0 0 0 4 3 5 95 6 2 0 0 0 0 0 0 0 0 0 0 0 0 0 0 0 0 0 0 0 0 5 5 5 0 0 0 4 3
0 0 1 0 1 4 0 0 0 0 0 1 2 4 100 85 9 0 0 0 0 0 0 0 0 0 0 0 0 0 0 0 0 0 0 0 33 54 2 0 0 5 9 8
0 0 0 0 0 0 4 1 0 0 0 0 0 0 5 99 100 51 0 0 0 0 0 0 0 0 1 0 0 0 0 0 0 0 0 1 46 61 2 18 0 0 5 4
0 0 0 0 2 1 5 1 1 0 0 0 0 0 5 5 5 21 5 0 0 0 0 0 2 28 70 1 0 0 0 0 0 0 0 2 31 53 55 75 48 16 5 1
0 0 0 0 58 91 1 7 2 0 0 0 0 0 0 0 3 1 0 0 0 0 4 2 5 5 1 0 0 0 0 0 0 0 0 1 34 25 50 94 99 44 1 13
0 0 22 49 86 79 5 3 0 0 0 0 0 0 0 0 0 0 0 0 0 0 0 0 0 0 0 0 0 0 0 0 0 0 0 1 14 29 90 100 100 100 96 42
0 0 5 100 100 100 100 6 0 0 0 0 0 0 0 0 0 0 0 0 0 0 0 0 0 2 5 0 0 0 0 0 3 4 0 0 2 40 78 82 100 100 100 100
5 5 1 4 100 100 29 2 0 5 0 0 0 0 0 0 0 0 0 0 0 0 0 0 0 5 5 5 5 2 3 2 58 74 9 2 8 16 49 100 100 97 95 100
19 5 5 59 100 95 5 0 7 3 0 0 0 0 0 0 0 0 0 0 0 4 4 0 3 5 84 62 58 9 61 87 54 87 8 24 38 88 100 100 100 100 100 100
94 5 70 40 94 6 3 3 100 100 1 0 0 0 0 0 0 0 0 0 2 5 5 5 2 5 8 83 100 71 77 93 10 8 16 78 99 100 100 100 100 100 100 100
97 100 98 74 2 0 0 55 94 100 4 0 30 2 1 0 0 0 5 0 5 66 5 1 11 20 50 88 13 82 44 4 7 43 100 98 100 92 96 100 100 100 100 100
80 99 100 100 88 0 21 100 94 100 100 54 19 38 72 36 4 0 16 75 2 5 100 100 96 97 100 88 34 5 5 8 50 96 100 100 100 100 100 100 100 99 99 78
100 100 100 97 5 30 100 100 100 100 100 100 68 11 1 0 5 74 100 100 71 19 25 99 94 100 100 93 34 41 44 34 68 99 100 98 92 96 70 7 3 71 39 70

GFSCGP_prec_cloud_027.txt.gz
Cloud_Cover
0 0 0 0 0 1 69 94 100 100 9 2 5 39 0 2 2 5 3 0 0 0 0 0 0 0 0 0 0 1 0 0 1 17 100 58 9 7 2 32 72 4 0 0
0 0 0 0 0 0 5 100 99 100 72 17 73 94 88 24 0 3 5 0 0 0 0 0 0 0 0 0 0 0 0 0 0 23 9 25 3 37 20 34 9 80 64 48
0 0 0 0 0 0 0 21 98 98 91 3 81 99 92 67 5 0 0 0 0 0 0 0 0 0 0 0 0 0 0 0 0 0 4 2 30 1 0 0 4 3 10 0
0 0 0 0 0 0 0 4 77 100 70 100 4 100 24 4 5 0 0 0 0 0 0 0 0 0 0 0 0 0 0 0 0 0 24 13 9 0 0 0 1 0 1 0
0 0 0 0 0 0 0 5 5 81 68 100 87 76 98 99 28 2 0 0 0 0 0 0 0 0 0 0 0 0 0 0 0 0 0 17 0 0 0 0 0 0 0 0
0 0 0 0 0 0 0 5 86 97 100 85 100 44 21 100 99 4 26 0 0 0 0 0 0 0 0 0 0 0 0 0 0 0 0 0 0 0 0 0 0 0 0 0
0 0 0 1 0 0 0 4 36 100 100 79 100 73 100 63 22 59 5 30 0 0 0 0 0 0 0 0 0 0 0 0 0 0 0 0 0 0 0 21 0 0 0 0
0 0 0 1 5 0 0 0 5 28 93 99 100 100 72 100 49 100 100 100 90 7 0 0 0 0 0 0 0 0 0 0 0 0 0 0 0 0 0 0 0 0 0 0
0 0 0 0 4 1 0 0 0 41 83 96 99 47 98 100 87 8 55 25 47 9 0 0 0 0 0 0 0 0 0 0 0 0 0 0 0 0 0 0 0 0 0 0
0 0 0 2 0 2 0 0 0 0 12 96 85 94 98 79 0 57 5 5 8 5 5 0 0 0 0 0 0 0 0 0 0 0 0 0 0 0 0 0 0 0 1 2
0 0 0 0 0 4 4 0 0 0 5 35 100 99 100 97 52 0 3 0 5 6 22 2 0 0 0 0 0 0 0 0 0 0 0 0 0 0 0 0 0 0 0 0
0 0 0 0 0 0 0 0 0 0 1 5 82 100 100 43 85 8 5 77 99 84 98 96 7 0 0 0 0 0 0 0 0 0 0 0 0 0 0 0 0 0 0 0
0 0 0 0 0 0 0 2 1 0 1 0 26 3 100 97 70 23 4 0 1 61 6 0 4 0 0 0 0 0 0 0 0 0 0 0 0 0 0 0 0 0 0 0
0 0 0 0 0 0 0 0 0 0 0 8 2 80 94 74 54 34 25 0 3 5 0 0 0 0 0 0 0 0 0 0 0 0 0 0 0 0 0 0 0 0 0 0
0 0 0 0 2 4 0 0 0 0 0 2 12 12 7 100 29 90 3 0 0 0 0 0 0 0 0 0 0 0 0 0 0 0 0 0 0 0 0 0 0 15 1 4
2 0 0 5 4 5 5 5 0 0 0 0 0 26 73 84 100 78 5 0 0 0 0 0 0 0 0 0 0 0 0 0 0 0 0 0 0 0 0 0 0 19 30 7
3 0 0 0 5 18 33 3 2 8 0 0 0 0 8 67 5 5 5 5 0 0 0 0 0 0 4 0 0 0 0 0 0 0 0 0 0 0 4 67 1 53 58 5
21 5 3 5 53 80 0 2 4 41 29 19 3 0 0 0 4 5 18 0 0 0 0 0 0 0 0 0 0 0 0 0 0 0 0 0 0 2 51 29 31 31 79 71
38 98 30 25 11 40 6 5 19 100 4 5 5 5 5 1 1 5 5 77 14 2 0 0 0 0 0 0 0 0 0 0 0 0 0 0 0 2 60 95 88 56 97 100
84 49 100 23 5 20 15 99 0 0 3 6 93 47 5 11 40 0 48 81 74 16 2 0 0 0 0 1 2 0 0 0 0 0 5 1 1 5 4 81 100 92 94 95
94 92 20 63 75 36 100 36 41 24 4 0 0 0 0 12 0 0 53 20 18 6 5 5 1 0 0 0 0 0 0 0 4 3 1 5 5 12 100 100 100 80 99 91
100 100 44 68 97 40 27 100 87 41 17 0 0 0 0 0 2 0 3 1 5 5 5 2 1 0 0 0 1 5 2 5 5 5 5 21 20 60 100 100 98 91 100 100
37 100 100 98 23 83 100 100 5 2 0 0 0 0 0 0 0 0 0 0 0 0 0 0 0 0 0 0 5 5 12 49 8 9 21 99 100 100 100 100 100 100 100 100
100 100 100 100 20 5 20 16 2 4 0 0 0 3 4 0 0 0 0 0 0 1 1 15 6 3 23 69 100 86 93 34 98 68 24 94 100 100 94 99 100 100 93 100
100 96 89 100 80 22 100 15 3 0 0 0 8 5 0 4 68 53 66 36 81 54 48 95 100 48 100 100 100 31 20 95 100 100 100 100 99 100 100 100 100 100 100 97
100 100 100 100 100 31 100 62 3 2 1 56 4 4 2 58 100 100 100 100 100 85 94 95 100 100 100 100 100 76 100 100 93 100 100 86 66 51 86 97 100 100 84 67

GFSCGP_prec_cloud_030.txt.gz
Cloud_Cover
0 0 0 0 0 0 0 4 5 100 100 69 63 100 100 3 5 5 3 0 0 0 0 0 0 0 0 0 0 0 0 0 22 0 0 1 0 30 0 0 12 4 95 1
0 0 0 0 0 0 0 84 61 100 98 100 74 5 1 63 0 0 1 0 0 0 0 0 0 0 0 0 0 0 0 0 0 0 2 0 0 40 0 1 61 23 2 100
0 0 0 0 0 0 0 4 26 100 87 6 93 72 64 79 3 0 1 0 0 0 0 0 0 0 0 0 0 0 0 0 0 0 0 18 97 51 100 19 100 82 2 1
0 0 0 0 0 0 0 0 38 99 100 11 14 98 5 48 1 0 0 0 0 0 0 0 0 0 0 0 0 0 0 0 0 0 6 0 0 0 32 6 35 96 5 0
0 0 0 0 0 0 0 0 13 89 99 98 35 86 78 85 100 48 0 0 0 0 0 0 0 0 0 0 0 0 0 0 0 0 0 0 0 0 0 38 31 0 0 0
0 0 0 0 5 0 0 0 0 42 95 85 67 82 8 39 61 100 74 0 0 0 0 0 0 0 0 0 0 0 0 0 0 0 0 0 56 0 0 59 0 0 0 0
0 0 0 0 1 1 0 0 0 0 5 56 97 80 41 100 90 100 96 83 4 0 0 0 0 0 0 0 0 0 0 0 0 0 0 0 0 0 0 0 0 0 0 0
0 0 0 0 2 5 1 0 0 0 0 4 1 88 9 27 4 100 100 100 96 45 0 2 0 0 0 0 0 0 0 0 0 0 0 0 0 0 0 0 0 0 0 0
0 0 0 0 0 5 31 0 0 0 4 5 63 73 0 63 39 100 43 86 33 74 72 0 0 0 0 0 0 0 0 0 0 0 0 0 0 0 0 0 0 0 1 0
0 0 0 0 0 0 42 98 0 0 1 0 2 16 65 71 73 100 91 87 63 26 73 46 0 0 0 0 0 0 0 0 0 0 0 0 0 0 0 0 0 0 0 0
0 0 0 0 0 0 0 5 3 0 0 0 0 1 0 48 68 30 5 69 96 59 31 4 0 0 0 0 0 0 0 0 0 0 0 0 0 0 0 0 0 0 0 0
0 0 0 0 0 0 0 0 5 0 0 0 0 0 32 100 19 25 96 88 80 1 0 5 2 0 0 0 0 0 0 0 0 0 0 0 0 0 0 0 0 0 0 0
0 0 0 0 0 0 0 0 0 3 2 0 0 1 33 100 98 80 100 30 0 0 77 10 97 6 0 0 0 0 0 0 0 0 0 0 0 0 0 0 0 0 0 0
4 0 0 0 0 0 0 0 0 0 0 0 0 17 5 100 18 99 93 98 100 3 5 13 4 43 5 0 0 0 0 0 0 0 0 0 0 0 0 0 0 0 0 0
4 0 0 0 0 4 0 2 0 0 0 0 0 0 5 84 98 79 99 13 60 3 3 3 1 3 5 1 0 0 0 0 0 0 0 0 0 0 0 0 0 0 0 0
71 0 0 0 0 0 54 5 0 0 0 0 0 0 5 6 58 100 100 90 58 5 4 0 0 0 0 0 0 0 0 0 0 0 0 0 0 0 0 0 0 0 0 16
9 0 0 0 0 18 29 0 11 5 0 0 0 0 0 95 38 99 100 97 97 98 0 0 0 0 0 0 0 0 0 0 0 0 0 0 0 0 0 0 0 0 0 34
100 27 3 2 37 51 1 0 1 4 5 0 0 0 0 0 47 4 60 98 75 100 23 1 5 0 0 0 0 0 0 0 0 0 0 0 0 0 0 0 0 2 13 64
100 89 80 5 5 1 0 5 8 5 4 100 91 43 0 0 1 5 36 55 80 15 100 96 4 0 0 0 0 0 0 0 0 0 0 0 0 0 0 3 4 0 19 98
100 80 53 85 16 5 5 2 5 9 4 2 94 100 72 79 41 0 0 0 60 5 22 4 0 0 0 0 0 0 0 0 0 0 0 0 0 0 17 6 22 26 100 100
100 100 54 100 48 50 66 95 63 94 1 51 5 5 0 0 2 2 6 20 1 5 0 2 0 0 0 0 0 0 0 0 0 0 0 0 0 0 7 9 8 57 100 100
100 100 100 100 100 100 95 100 27 66 10 43 78 16 0 0 0 3 8 4 0 0 0 0 0 5 0 0 0 0 0 0 0 0 0 0 3 6 45 100 100 82 100 100
100 100 100 100 100 100 100 96 86 100 5 44 60 1 0 0 0 0 0 0 0 0 0 0 0 0 0 1 2 0 0 0 0 0 11 7 5 17 100 100 95 99 99 88
100 100 68 100 100 100 97 100 100 96 100 100 64 58 100 1 0 0 0 0 0 0 0 3 0 0 0 0 0 1 5 5 0 14 5 6 87 100 100 100 100 97 89 94
100 100 100 100 100 98 76 78 86 98 5 5 6 100 12 3 0 0 0 0 0 0 0 0 0 0 0 0 0 0 0 2 32 100 92 93 93 86 100 100 100 100 99 99
100 100 100 100 74 100 100 100 100 38 5 5 7 5 5 0 0 0 0 0 0 0 0 0 0 0 1 16 4 1 52 97 100 100 100 100 98 100 100 100 100 98 100 100

GFSCGP_prec_cloud_033.txt.gz
Cloud_Cover
0 0 0 0 0 0 0 0 0 99 100 6 100 100 100 0 0 0 0 0 0 0 0 0 0 0 0 0 0 0 0 0 0 0 0 0 0 0 0 0 0 0 0 8
0 0 0 0 0 0 0 0 0 99 62 100 67 100 98 8 0 0 0 0 0 0 0 0 0 0 0 0 0 0 0 0 0 0 0 0 0 0 0 19 38 0 30 13
0 0 0 0 0 0 0 0 0 67 74 100 88 77 4 1 0 0 0 0 0 0 0 0 0 0 0 0 0 0 0 0 0 0 0 0 0 11 27 0 28 100 79 7
0 0 0 0 0 0 0 0 0 21 45 29 98 4 5 5 0 0 0 0 0 0 0 0 0 0 0 0 0 0 0 0 0 0 0 0 0 3 0 96 66 0 0 0
0 0 0 0 5 0 0 0 0 56 100 44 100 98 100 5 4 5 4 2 0 0 0 0 0 0 0 0 0 0 0 0 0 0 0 0 0 0 0 22 11 0 0 0
0 0 0 0 1 1 0 0 0 5 100 84 90 99 48 26 2 96 30 5 4 0 0 0 0 0 0 0 0 0 0 0 0 0 0 0 0 0 0 0 0 0 0 0
0 0 0 0 0 3 4 0 0 2 16 5 8 61 2 78 42 5 34 77 3 0 0 0 0 0 0 0 0 0 0 0 0 0 0 0 0 0 0 0 0 0 0 0
0 0 0 0 0 0 5 0 0 0 0 0 2 3 0 3 100 88 9 75 96 95 0 0 0 0 0 0 0 0 0 0 0 0 0 0 0 0 0 0 0 0 0 0
0 0 0 0 0 0 0 5 1 0 0 0 0 0 0 0 5 3 90 100 100 100 100 39 34 0 0 0 0 0 0 0 0 0 0 0 0 0 0 0 0 0 0 0
0 0 0 0 0 0 0 1 0 0 0 0 0 0 0 51 32 8 24 100 90 100 100 100 35 13 0 0 0 0 0 0 0 0 0 0 0 0 0 0 0 0 0 0
0 0 0 0 0 0 0 0 0 0 0 0 3 0 0 98 57 78 2 63 81 100 100 0 0 11 22 0 0 0 0 0 0 0 0 0 0 0 0 0 0 0 0 0
0 0 0 0 0 0 0 0 0 0 0 0 0 4 0 79 63 2 42 100 99 38 95 5 0 0 0 0 0 0 0 0 0 0 0 0 0 0 0 0 0 0 0 0
0 0 0 0 0 0 0 0 0 0 0 0 0 28 100 1 1 4 54 99 29 9 99 8 1 0 0 0 0 0 0 0 0 0 0 0 0 0 0 0 0 0 0 0
85 0 0 2 0 0 0 0 0 0 0 0 0 0 42 33 41 100 84 78 95 100 100 82 35 0 0 0 0 0 0 0 0 0 0 0 0 0 0 0 0 0 0 0
15 0 0 0 4 0 5 0 0 0 0 0 0 0 0 5 64 100 74 100 88 88 100 53 0 0 0 0 4 0 0 0 0 0 0 0 0 0 0 0 0 0 0 0
10 0 0 0 2 5 4 0 0 0 0 0 0 0 0 0 64 100 99 5 15 63 69 100 100 5 1 0 0 0 0 0 0 0 0 0 0 0 0 0 0 0 0 0
37 4 13 0 5 31 1 1 0 0 0 0 0 0 0 0 0 16 97 100 29 100 99 52 100 96 3 0 4 3 0 0 0 0 0 0 0 0 0 0 0 0 0 0
87 100 41 4 22 69 91 17 1 0 0 5 0 0 0 0 0 1 44 58 18 38 67 100 100 100 94 2 0 2 5 47 31 5 5 5 5 4 3 5 5 4 0 15
100 100 95 99 21 3 7 5 0 0 2 3 5 4 0 0 0 0 0 68 0 95 62 5 97 95 99 48 5 3 0 0 1 5 5 5 5 5 5 5 5 0 1 46
100 100 100 100 29 0 72 41 5 63 55 5 4 4 0 0 0 0 0 5 80 6 9 15 100 32 81 3 6 5 0 0 0 0 0 0 0 0 0 0 9 0 2 32
100 100 100 95 3 0 1 11 74 100 2 0 1 0 0 0 0 0 0 1 1 7 93 5 1 5 5 81 92 3 0 0 5 2 0 0 0 0 0 2 5 13 23 7
100 100 100 23 44 0 0 51 100 87 0 0 3 24 0 0 0 0 0 0 0 0 0 5 68 91 54 10 29 5 3 32 7 5 5 2 3 4 16 3 19 17 86 68
100 100 100 100 96 91 63 100 98 8 5 7 82 60 2 5 2 5 4 0 0 0 0 0 1 32 12 91 92 3 0 0 0 2 0 0 4 56 52 12 86 100 39 42
100 100 100 100 100 34 5 89 70 100 46 52 16 7 39 10 6 1 0 0 0 0 0 0 0 0 0 0 57 85 0 0 1 0 0 17 76 100 100 96 78 5 18 49
100 100 100 100 100 74 32 31 78 70 100 63 35 58 27 100 85 2 0 0 3 5 0 0 0 0 0 0 0 1 3 0 1 19 65 70 79 71 100 100 100 91 97 97
100 100 100 100 100 92 84 57 92 40 62 90 100 100 91 90 6 18 4 8 3 4 0 0 0 0 0 0 6 5 0 10 23 78 65 100 100 100 100 100 100 100 100 92

GFSCGP_prec_cloud_036.txt.gz
Cloud_Cover
0 0 0 0 0 0 0 0 3 5 60 4 51 6 5 5 4 0 0 0 0 0 0 0 0 0 0 0 0 0 0 0 0 0 0 0 0 0 0 0 0 0 0 13
0 0 0 0 0 0 0 0 1 0 0 8 92 49 100 5 0 2 0 0 0 0 0 0 0 0 0 0 0 0 0 0 0 0 0 0 0 0 0 0 0 0 0 48
0 0 0 0 0 0 0 0 0 0 0 5 97 99 96 44 5 2 0 0 0 0 0 0 0 0 0 0 0 0 0 0 0 0 0 0 0 0 0 0 0 0 36 50
0 0 0 0 0 0 0 0 0 0 0 65 18 83 100 5 5 1 0 0 0 0 0 0 0 0 0 0 0 0 0 0 0 0 0 0 0 0 0 0 0 0 8 0
0 0 0 0 0 0 0 0 0 1 0 2 70 84 50 5 1 2 0 1 0 0 0 0 0 0 0 0 0 0 0 0 0 0 0 0 0 0 0 0 100 0 0 0
0 0 0 0 0 0 0 0 0 4 3 1 3 0 17 8 2 0 0 1 1 0 0 0 0 0 0 0 0 0 0 0 0 0 0 0 0 0 0 0 0 0 0 0
0 0 0 0 0 0 0 0 0 0 2 0 0 0 0 50 21 0 0 0 2 0 0 0 0 0 0 0 0 0 0 0 0 0 0 0 0 0 0 0 0 0 0 0
0 0 0 0 0 0 0 0 0 0 0 0 0 0 0 2 5 0 0 0 0 3 7 2 0 0 0 0 0 0 0 0 0 0 0 0 0 0 0 0 0 0 0 0
0 0 0 0 0 0 0 0 0 0 0 0 0 0 0 37 23 2 0 3 1 0 3 16 32 9 0 0 0 0 0 0 0 0 0 0 0 0 0 0 0 0 0 0
0 0 0 0 0 0 0 0 0 0 0 0 0 0 5 0 0 0 0 5 0 0 45 23 57 100 30 9 0 0 0 0 0 0 0 0 0 0 0 0 0 0 0 0
0 0 0 0 0 0 0 0 0 0 0 0 0 1 2 0 0 5 66 4 2 5 8 100 100 100 100 100 47 0 0 0 0 0 0 0 0 0 0 0 0 0 0 0
0 0 0 0 0 0 0 0 0 0 0 0 0 55 0 0 0 5 5 5 5 6 100 100 100 100 100 100 1 0 0 0 0 0 0 0 0 0 0 0 0 0 0 0
0 0 0 0 0 0 0 0 0 0 0 0 0 1 0 0 0 5 0 5 5 99 100 100 92 84 100 43 0 0 0 0 0 0 0 0 0 0 0 0 0 0 0 0
6 0 1 5 4 0 0 0 0 0 0 0 0 0 0 0 0 4 26 5 8 98 99 68 8 37 100 98 8 2 67 0 0 0 0 0 0 0 0 0 0 0 0 0
0 0 0 27 19 3 1 0 0 0 0 0 0 0 0 0 0 3 78 5 12 76 13 15 40 53 94 51 100 96 100 4 0 0 0 0 0 0 0 0 0 0 0 0
0 0 0 5 27 8 5 2 4 5 5 0 0 0 0 0 0 3 5 7 3 41 16 2 99 74 100 34 5 61 3 0 0 0 0 0 0 0 0 0 0 0 0 1
4 0 0 0 5 5 0 30 9 81 49 59 4 5 2 0 0 0 0 0 0 0 41 10 3 2 15 5 5 0 4 0 0 97 70 0 0 0 0 0 5 40 1 5
96 4 0 0 0 17 15 5 4 5 7 9 10 23 5 5 0 0 0 0 5 0 24 0 0 5 33 23 33 2 5 1 0 0 0 0 0 0 0 10 20 59 53 0
100 100 78 0 12 2 0 5 0 2 5 5 18 39 65 15 0 0 0 0 0 1 5 0 1 16 5 96 77 61 5 100 92 4 0 0 0 0 0 18 39 48 94 40
100 100 100 96 100 55 0 5 5 0 0 1 51 81 6 5 2 0 0 0 0 0 0 0 1 43 0 2 13 92 63 51 100 100 26 5 4 0 0 4 19 55 55 72
100 100 100 100 98 13 1 1 5 21 0 0 4 29 5 5 48 21 42 5 1 0 0 0 0 0 0 6 20 23 32 100 86 48 14 8 0 0 0 2 10 66 93 99
100 100 100 100 100 99 7 0 5 64 0 0 0 0 2 0 5 5 41 34 5 1 0 0 0 0 5 5 54 54 15 82 94 68 93 100 13 4 0 0 57 100 81 99
100 100 100 100 100 95 18 29 2 3 0 0 1 0 0 0 1 3 5 14 18 46 5 5 0 0 0 0 0 0 0 2 9 42 59 95 73 97 5 27 93 100 100 100
100 100 100 100 100 100 16 6 5 1 0 0 5 2 1 0 4 1 5 39 94 100 88 0 0 0 0 0 3 8 14 5 5 5 5 5 99 90 65 93 99 100 100 100
100 100 100 100 100 100 100 95 43 1 4 0 5 5 5 3 6 3 70 10 10 72 100 34 14 13 15 11 6 0 0 0 11 61 97 90 97 100 100 100 100 100 100 100
100 100 100 100 100 100 100 100 30 2 16 3 32 7 7 5 5 5 14 18 12 77 39 84 94 26 71 76 50 21 24 17 72 100 100 100 100 100 100 100 100 100 100 100

GFSCGP_prec_cloud_039.txt.gz
Cloud_Cover
0 0 0 0 0 0 0 0 0 0 2 0 5 4 5 20 3 47 68 0 0 0 0 0 0 0 0 0 0 0 0 0 0 0 0 0 0 0 0 0 0 0 2 3
0 0 0 0 0 0 0 0 0 3 0 0 0 5 19 5 5 5 42 4 0 0 0 0 0 0 0 0 0 0 0 0 0 0 0 0 0 0 0 0 0 0 0 7
0 0 0 0 0 0 0 0 0 0 5 0 1 61 59 4 3 4 0 4 0 0 0 0 0 0 0 0 0 0 0 0 0 0 0 0 0 1 0 0 0 0 0 95
0 0 0 0 0 0 0 0 0 0 4 1 0 69 8 5 1 0 0 0 0 0 0 0 0 0 0 0 0 0 0 0 0 0 0 0 0 0 0 0 0 0 0 32
0 0 0 0 0 0 0 0 0 0 5 4 2 3 0 5 2 0 0 0 0 0 0 0 0 0 0 0 0 0 0 0 0 0 0 0 0 0 0 0 0 0 0 0
0 0 0 0 0 0 0 0 0 0 1 2 0 0 5 3 0 0 0 0 0 0 0 0 0 0 0 0 0 0 0 0 0 0 0 0 0 0 0 0 0 1 7 0
0 0 0 0 0 0 0 0 0 0 0 4 0 0 0 0 1 1 0 5 0 5 1 0 0 0 0 0 0 0 0 0 0 0 0 0 0 0 0 0 0 4 19 10
0 0 0 0 0 0 0 0 0 0 0 0 0 0 0 0 4 5 5 5 5 2 0 0 0 0 0 0 0 0 0 0 0 0 0 0 0 0 0 0 0 0 0 0
0 0 0 0 0 0 0 0 0 0 0 0 0 8 0 0 5 5 1 5 0 0 0 0 2 0 0 0 0 0 0 0 0 0 0 0 0 0 0 0 0 0 0 0
0 0 0 0 0 0 0 0 0 0 0 0 0 4 0 0 0 5 0 0 0 0 5 0 4 5 4 0 0 0 0 0 0 0 0 0 0 0 0 0 0 0 0 0
0 0 0 0 0 0 0 0 0 0 0 0 1 61 50 1 0 0 0 0 0 0 4 1 5 5 5 5 5 1 1 2 0 0 0 0 0 0 0 0 0 0 0 0
0 0 0 0 0 0 0 0 0 0 0 0 0 4 5 100 1 0 0 0 0 0 0 10 43 52 84 83 78 68 100 100 88 0 0 0 0 0 0 0 0 0 0 0
0 2 0 0 0 0 0 0 0 0 0 0 0 0 0 0 5 1 5 2 0 0 0 5 41 59 5 11 73 100 100 100 98 0 0 0 0 0 0 0 0 0 0 0
0 5 5 5 0 0 0 0 0 0 0 0 0 0 0 0 0 0 0 4 4 0 0 0 0 42 5 5 9 64 100 81 28 0 0 0 0 0 0 0 0 0 0 0
0 0 5 5 5 1 4 0 0 0 0 0 13 0 0 0 0 0 0 1 4 7 5 4 0 20 47 21 70 5 60 91 16 30 5 1 0 0 0 0 0 0 0 0
0 0 0 5 5 4 4 1 0 3 3 0 0 0 0 0 0 0 0 0 4 5 5 5 5 1 5 44 100 90 86 89 87 4 72 45 4 0 0 0 0 0 0 0
0 0 0 0 5 3 0 82 100 9 5 5 6 25 5 2 0 0 0 0 0 4 5 5 1 0 4 5 98 100 65 61 47 5 4 0 4 5 0 0 0 0 0 0
5 0 0 0 0 0 97 42 35 5 5 5 29 86 6 4 1 0 0 0 0 0 1 1 0 1 2 0 31 100 95 29 100 10 2 10 82 55 4 0 0 0 12 7
60 89 2 2 0 0 5 1 0 0 2 5 0 5 83 47 5 4 0 0 0 0 0 0 0 0 0 0 0 13 100 100 88 46 16 21 100 56 0 0 0 0 50 85
100 100 97 17 3 0 0 0 0 0 0 0 5 67 28 65 87 38 5 5 4 2 0 0 0 0 0 0 0 0 0 6 29 79 84 67 4 1 4 2 0 3 40 19
98 100 100 79 70 0 6 0 0 0 0 5 4 7 20 69 96 68 23 2 5 5 0 0 0 2 0 0 0 0 0 0 0 0 5 96 100 67 95 34 28 33 60 98
71 100 100 66 71 5 5 9 55 17 71 28 0 0 5 25 96 32 5 74 45 5 3 0 0 0 0 0 0 0 0 0 2 19 95 77 56 16 99 97 34 66 96 100
99 78 99 92 61 6 5 74 65 91 100 83 0 0 5 5 46 90 61 17 97 8 5 1 0 0 0 0 0 0 0 0 3 4 4 100 49 100 100 100 100 100 100 100
8 5 59 100 72 100 100 100 38 100 100 68 1 0 1 5 5 45 32 56 17 5 5 4 3 4 29 23 0 0 0 0 0 0 0 0 0 1 6 93 70 90 100 100
36 46 3 100 100 100 100 98 29 100 100 3 67 54 61 3 28 11 57 26 34 42 42 51 94 100 100 100 96 34 0 0 0 0 0 0 0 15 92 100 100 100 100 100
65 100 40 6 100 100 100 22 98 100 95 4 12 91 90 60 93 46 79 60 53 66 52 93 100 100 100 100 100 100 54 8 14 35 73 100 100 100 100 100 100 100 100 100

GFSCGP_prec_cloud_042.txt.gz
Cloud_Cover
0 0 0 0 0 0 0 0 0 5 4 0 5 5 2 26 5 13 100 9 0 0 0 0 0 0 0 0 0 0 0 0 0 0 0 0 0 0 0 0 0 0 0 5
0 0 0 0 0 0 0 0 0 0 2 0 0 3 0 4 19 32 81 100 13 0 0 0 0 0 0 0 0 0 0 0 0 0 0 0 0 0 0 0 0 0 0 0
0 0 0 0 0 0 0 0 0 0 0 0 0 0 1 12 4 2 3 40 35 0 0 0 0 0 0 0 0 0 0 0 0 0 0 0 0 0 0 0 0 0 0 0
0 0 0 0 0 0 0 0 0 0 0 0 0 0 2 8 2 0 0 0 0 0 0 0 0 0 0 0 0 0 0 0 0 0 0 0 0 0 0 0 0 0 0 0
0 0 0 0 0 0 0 0 0 0 0 1 0 0 0 1 0 0 0 0 0 0 0 0 0 0 0 0 0 0 0 0 0 0 0 0 0 0 0 0 0 0 0 0
0 0 0 0 0 0 0 0 0 0 0 4 0 0 0 64 82 7 0 0 1 0 0 0 0 0 0 0 0 0 0 0 0 0 0 0 0 0 0 0 0 0 0 0
0 0 0 0 0 0 0 0 0 0 0 66 0 0 0 7 0 0 0 0 0 0 0 0 0 0 0 0 0 0 0 0 0 0 0 0 0 0 0 0 0 0 0 0
0 0 0 0 0 0 0 0 0 0 2 0 0 4 0 2 0 0 0 5 9 0 5 1 3 0 0 0 0 0 0 0 0 0 0 0 0 0 0 0 0 0 0 0
0 0 0 0 0 0 0 0 0 0 0 0 4 13 0 0 0 3 3 5 3 0 0 0 0 0 0 0 0 0 0 0 0 0 0 0 0 0 0 0 0 0 0 0
0 0 0 0 0 0 0 0 0 0 0 0 0 1 0 0 0 0 5 1 0 0 4 0 0 1 5 3 0 0 0 0 0 0 0 0 0 0 0 0 0 0 0 0
0 0 0 0 0 0 0 0 0 0 0 0 0 0 0 0 0 0 4 39 21 0 0 5 7 13 23 73 4 0 0 0 0 0 0 0 0 0 0 0 0 0 0 0
0 0 0 0 0 0 0 0 0 0 0 0 0 0 0 0 0 2 0 31 48 5 0 3 5 65 77 80 78 0 0 5 31 4 57 55 5 1 0 0 0 0 0 0
0 0 0 0 0 0 0 0 0 0 0 0 0 0 0 0 0 0 5 3 47 53 0 0 5 5 25 5 4 3 5 8 99 34 100 100 100 50 13 0 0 0 0 0
0 0 0 0 0 0 0 0 0 0 0 0 0 26 0 0 0 0 4 1 0 0 0 0 0 4 3 0 0 5 15 5 4 84 100 100 100 70 99 25 0 0 0 0
0 0 0 0 0 0 0 0 0 0 0 0 3 2 2 0 0 0 0 2 29 60 3 0 0 0 0 0 0 0 4 5 5 6 99 100 19 24 5 5 100 42 0 0
0 0 0 0 0 0 0 0 0 0 0 0 3 0 0 0 0 0 0 0 0 28 94 85 12 0 0 0 0 5 3 5 5 5 5 5 5 5 5 21 66 100 17 0
0 0 0 0 0 0 0 4 1 1 3 1 0 2 0 0 0 0 0 0 0 0 0 9 87 98 58 8 1 0 5 37 5 5 5 5 5 5 0 0 0 0 0 0
5 4 0 0 0 0 0 0 4 1 0 2 1 4 0 0 0 0 0 0 0 0 0 0 0 4 6 7 5 5 4 2 3 99 100 98 48 4 5 1 4 4 0 0
4 5 4 0 0 0 0 0 0 0 0 2 5 0 5 4 0 0 0 0 0 0 0 0 0 0 0 0 0 0 2 0 3 100 87 99 99 48 2 2 35 87 4 0
96 79 32 4 0 0 0 0 0 0 2 0 23 96 100 25 1 0 0 0 0 0 0 0 0 0 0 0 0 0 0 0 0 0 2 36 67 5 2 4 96 30 20 10
25 88 11 5 2 0 0 0 0 0 15 2 45 32 84 86 100 28 4 2 0 0 0 0 0 0 0 0 0 0 0 0 0 0 5 62 97 84 100 100 56 45 100 61
17 82 5 25 5 4 0 0 0 0 4 57 100 98 74 100 93 58 5 5 0 0 0 0 0 0 0 0 0 0 0 0 0 44 50 62 100 100 99 93 77 100 28 100
4 2 56 0 2 0 0 4 0 21 24 33 100 80 100 38 39 94 72 5 2 0 0 0 0 1 17 0 0 0 4 5 3 2 0 16 59 17 96 100 69 71 88 100
5 4 25 31 2 0 0 1 3 6 0 100 100 100 54 6 52 6 9 34 66 62 44 49 96 100 100 92 22 0 2 5 0 0 0 0 0 31 20 8 57 99 98 100
21 7 13 78 5 47 1 0 5 5 5 100 100 100 96 58 92 100 100 100 100 100 100 100 100 100 100 98 98 93 16 0 0 0 0 0 17 100 100 100 100 100 100 100
34 25 40 5 5 86 7 0 35 79 50 100 100 100 100 100 100 100 100 100 100 100 100 100 100 100 100 100 94 38 44 5 47 96 90 100 100 100 100 100 100 100 100 100

GFSCGP_prec_cloud_045.txt.gz
Cloud_Cover
0 0 0 0 0 0 0 0 0 3 4 0 4 99 38 5 4 1 2 5 5 5 4 0 0 0 0 0 0 0 0 0 0 0 0 0 0 0 0 0 0 0 0 0
0 0 0 0 0 0 0 0 0 0 4 0 4 82 5 4 0 18 86 78 44 0 5 0 0 0 0 0 0 0 0 0 0 0 0 0 0 0 0 0 0 0 0 0
0 0 0 0 0 0 0 0 0 0 2 0 0 0 4 5 3 0 4 16 79 7 0 0 0 0 0 0 0 0 0 0 0 0 0 0 0 0 0 0 0 0 0 0
0 0 0 0 0 0 0 0 0 0 0 0 0 0 0 4 5 5 0 0 4 0 0 0 0 0 0 0 0 0 0 0 0 0 0 0 0 0 0 0 0 0 0 0
0 0 0 0 0 0 0 0 0 0 0 0 0 0 0 0 0 0 0 0 0 0 0 0 0 0 0 0 0 0 0 0 0 0 0 0 0 0 0 0 0 0 0 0
0 0 0 0 0 0 0 0 0 0 5 23 2 0 0 0 26 2 3 0 0 0 0 0 0 0 0 0 0 0 0 0 0 0 0 0 0 0 0 0 0 0 0 0
0 0 0 0 0 0 0 0 0 0 0 99 0 0 0 0 3 5 5 5 0 0 0 0 0 0 0 0 0 0 0 0 0 0 0 0 0 0 0 0 0 0 0 0
0 0 0 0 0 0 0 0 0 0 0 9 0 3 0 0 0 0 5 2 0 0 0 0 0 0 0 0 0 0 0 0 0 0 0 0 0 0 0 0 0 0 0 0
0 0 0 0 0 0 0 0 0 0 0 4 2 4 0 0 0 1 1 0 0 0 0 0 0 0 0 0 0 0 0 0 0 0 0 0 0 0 0 0 0 0 0 0
0 0 0 0 0 0 0 0 0 0 0 1 4 5 0 0 0 2 0 5 0 0 2 4 1 0 0 0 0 0 0 0 0 0 0 0 0 0 0 0 0 0 0 0
0 0 0 0 0 0 0 0 0 0 0 0 0 1 0 0 0 0 0 0 4 0 0 0 0 0 0 0 0 0 0 0 0 0 0 0 0 0 0 0 0 0 0 0
0 0 0 0 0 0 0 0 0 0 0 0 0 0 0 0 0 0 0 55 4 0 2 5 0 1 0 2 5 4 0 0 0 0 0 4 0 0 28 6 10 5 5 2
0 0 0 0 0 0 0 0 0 0 0 0 0 0 0 0 0 1 0 1 3 4 17 3 5 5 5 5 0 3 5 4 0 5 4 12 22 34 100 100 100 64 5 16
0 0 0 0 0 0 0 0 0 0 0 0 0 0 0 0 0 4 5 4 0 0 0 1 0 3 5 1 0 5 5 4 23 29 98 99 77 100 100 100 100 78 56 14
0 0 0 0 0 0 0 0 0 0 0 0 39 0 4 0 0 0 1 5 0 2 4 3 5 5 5 1 1 0 0 0 0 5 5 87 31 4 22 76 12 30 6 9
0 0 0 0 0 0 0 0 0 0 0 0 77 0 5 0 0 0 0 0 5 5 5 5 3 5 0 0 0 0 51 3 0 0 1 23 11 5 2 5 5 5 5 1
0 0 0 0 0 0 0 0 0 0 0 0 3 2 5 0 0 0 0 0 0 0 0 0 0 5 4 0 0 0 55 28 8 5 3 3 5 4 0 0 0 0 0 0
2 2 0 0 0 0 0 0 0 0 0 3 0 6 1 0 0 0 0 0 0 0 0 0 0 0 0 1 4 5 4 2 1 0 0 0 2 5 4 18 16 17 1 0
46 3 0 0 0 0 0 0 0 0 0 1 5 11 0 0 0 0 0 0 0 0 0 0 0 0 0 0 0 0 0 0 1 1 3 2 7 9 5 5 1 0 0 3
1 22 5 0 0 0 0 0 0 0 0 5 5 81 20 2 0 0 0 0 0 0 0 0 0 0 0 0 0 0 0 0 0 0 1 5 5 5 2 71 85 70 8 0
82 48 3 5 0 0 0 0 0 0 0 0 4 31 5 19 5 0 0 0 0 0 0 0 0 0 0 0 0 0 0 0 0 0 0 0 0 5 40 100 100 99 84 100
8 88 96 17 3 0 0 0 0 0 0 0 0 4 5 6 7 3 0 0 0 0 2 0 0 0 0 0 0 0 0 0 0 0 0 0 0 3 43 99 18 100 100 100
5 8 74 10 2 0 0 0 1 0 0 0 0 0 5 11 34 5 5 0 0 0 0 0 0 0 0 0 0 0 0 0 0 0 0 0 0 1 5 5 12 57 75 38
49 16 76 25 3 1 0 0 0 0 0 0 0 3 34 25 21 7 27 13 5 2 2 2 5 63 64 13 3 4 0 0 0 0 0 0 0 0 1 5 28 98 79 29
43 37 27 17 2 0 0 1 2 0 0 0 0 0 76 100 5 3 5 57 98 100 100 58 76 100 100 100 100 22 0 0 0 0 0 2 5 29 67 84 52 51 11 39
30 7 9 1 2 2 0 73 20 31 8 43 28 28 100 100 93 80 99 100 100 100 100 100 100 100 96 37 96 100 31 0 0 1 11 90 99 100 100 100 100 100 94 100

GFSCGP_prec_cloud_048.txt.gz
Cloud_Cover
0 0 0 0 0 0 0 0 0 5 32 19 38 97 95 62 3 0 0 0 0 0 0 0 0 0 0 0 0 0 0 0 0 0 0 0 0 0 0 0 0 0 0 0
0 0 0 0 0 0 0 0 0 5 3 0 4 18 76 5 5 0 2 4 1 0 0 0 0 0 0 0 0 0 0 0 0 0 0 0 0 0 0 0 0 0 0 0
0 0 0 0 0 0 0 0 0 1 6 0 0 6 46 5 5 1 5 3 6 4 0 0 1 0 0 0 0 0 0 0 4 0 0 0 0 0 0 0 0 0 0 0
0 0 0 0 0 0 0 0 0 0 4 1 0 1 74 5 5 0 0 1 1 1 0 0 0 0 0 0 0 0 0 0 15 0 0 0 0 0 0 0 0 0 0 0
0 0 0 0 0 0 0 0 0 0 0 1 0 0 0 2 0 0 0 0 0 0 0 0 0 0 0 0 0 0 0 0 0 1 0 0 0 0 0 0 0 0 0 0
0 0 0 0 0 0 0 0 0 0 0 0 0 0 0 0 0 0 3 0 0 0 0 0 0 0 0 0 0 0 0 0 0 0 0 0 0 0 0 0 0 0 0 0
0 0 0 0 0 0 0 0 0 0 0 29 0 0 0 0 0 1 0 0 0 0 0 0 0 0 0 0 0 0 0 0 0 0 0 0 0 0 0 0 0 0 0 0
0 0 0 0 0 0 0 0 0 0 0 3 0 4 0 0 0 0 0 0 0 0 0 0 0 0 0 0 0 0 0 0 0 0 0 0 0 0 0 0 0 0 0 0
0 0 0 0 0 0 0 0 0 0 0 0 0 0 0 0 0 0 3 5 0 0 0 0 0 0 0 0 0 0 0 0 0 0 0 0 0 0 0 0 0 0 0 0
0 0 0 0 0 0 0 0 0 0 0 0 0 2 0 0 0 0 0 0 0 0 0 0 0 0 0 0 0 0 0 0 0 0 0 0 0 0 0 0 0 0 0 0
0 0 0 0 0 0 0 0 0 0 0 0 0 0 0 0 0 0 0 0 0 0 0 0 4 3 0 0 0 0 0 0 0 0 0 0 0 0 0 0 0 0 0 0
0 0 0 0 0 0 0 0 0 0 0 0 0 0 0 0 0 0 0 0 0 0 0 5 5 5 2 0 0 0 0 0 0 0 0 0 0 0 0 0 0 35 17 88
0 0 0 0 0 0 0 0 0 0 0 0 0 0 0 0 0 4 0 0 0 0 5 0 0 0 0 0 0 0 0 0 0 0 0 0 0 0 0 0 0 82 100 100
0 0 0 0 0 0 0 0 0 0 0 3 2 2 0 0 0 4 9 5 1 0 0 0 0 0 0 0 0 0 0 0 0 2 0 2 56 2 5 12 21 100 100 100
0 0 0 0 0 0 0 0 0 0 0 0 87 5 2 0 0 0 3 0 2 0 0 0 0 0 0 2 0 0 0 0 2 5 0 10 5 1 2 0 0 5 24 1
0 0 0 0 0 0 0 0 0 0 5 0 69 18 100 0 0 0 0 1 0 3 0 0 0 5 2 1 0 0 0 0 0 0 0 0 0 0 5 3 0 0 0 0
0 0 0 0 0 0 0 0 0 0 4 2 74 5 6 2 0 0 0 0 0 0 0 5 4 0 0 0 1 5 0 0 0 1 1 5 1 0 5 1 0 0 0 0
0 0 0 0 0 0 0 0 0 0 0 1 35 1 5 5 0 0 0 0 0 0 0 1 19 44 30 3 0 0 0 1 0 5 0 0 0 0 2 5 0 0 0 4
4 0 3 0 0 0 0 0 0 0 0 5 66 12 0 5 2 0 0 0 0 0 0 0 0 3 5 5 5 5 5 4 3 1 0 0 0 0 2 0 1 5 55 12
99 13 0 4 0 0 0 0 0 0 0 4 96 73 5 2 0 0 0 0 0 0 0 0 0 0 0 0 0 0 0 0 0 1 3 1 0 0 5 5 5 5 5 5
4 76 6 2 3 0 0 0 0 0 6 0 29 7 5 13 0 0 0 0 0 0 0 0 0 0 0 0 0 0 0 0 0 0 0 0 0 0 0 0 0 0 4 5
99 30 2 5 4 0 0 0 0 0 7 2 4 29 13 35 23 0 0 0 0 0 0 0 0 0 0 0 0 0 0 0 0 0 0 0 0 0 0 0 0 0 5 61
14 78 98 10 0 0 0 0 0 0 0 0 0 5 7 73 100 2 0 0 0 0 0 0 0 0 0 0 0 0 0 0 0 0 0 0 0 0 0 0 0 1 24 5
68 71 98 93 11 18 11 0 0 0 0 0 0 3 5 38 6 37 0 0 0 0 0 0 0 0 0 0 0 0 0 0 0 0 0 0 0 0 0 0 0 0 0 2
10 84 97 37 5 69 64 1 0 0 36 0 0 0 5 25 38 40 9 3 0 0 0 0 0 0 0 0 0 0 0 0 0 0 0 0 0 0 0 4 11 0 0 18
7 4 13 5 5 7 5 3 0 1 0 0 0 0 0 6 75 23 97 22 19 86 36 8 44 6 4 93 87 9 5 1 0 0 0 0 0 0 4 3 24 99 90 100

GFSCGP_prec_cloud_051.txt.gz
Cloud_Cover
0 0 0 0 0 1 5 2 84 39 100 26 94 95 7 100 56 100 3 0 0 0 0 0 0 0 0 0 0 0 0 0 0 0 0 0 0 0 0 0 0 0 0 4
0 0 0 0 0 0 0 5 30 100 26 98 100 89 85 98 56 46 67 0 0 0 0 0 0 0 0 0 0 0 0 0 0 0 0 0 0 0 0 0 0 0 5 36
0 0 0 0 0 0 0 0 4 87 70 98 88 73 92 56 99 65 47 2 0 0 0 0 0 0 0 0 0 0 0 0 0 0 0 0 0 0 0 0 0 0 0 0
0 0 0 0 0 0 0 0 0 3 99 92 12 50 28 45 58 7 13 41 4 0 0 0 0 0 0 0 0 0 0 0 0 0 0 0 0 0 0 0 0 0 0 0
0 0 0 0 0 0 0 0 0 0 5 63 64 26 5 51 21 8 4 31 6 0 0 0 0 0 0 0 0 0 0 0 0 0 0 0 0 0 0 0 0 0 4 0
0 0 0 0 0 0 0 0 0 0 0 0 1 5 5 49 79 76 4 6 21 5 0 0 0 0 0 0 0 0 0 0 0 0 0 0 0 0 0 0 0 0 0 0
0 0 0 0 0 0 0 0 0 0 0 0 0 0 0 5 5 5 5 5 4 0 0 0 0 0 0 0 0 0 0 0 0 0 0 0 0 0 0 0 0 0 0 0
0 0 0 0 0 0 0 0 0 0 0 0 0 0 0 0 3 5 5 5 4 0 0 0 0 0 0 0 0 0 0 0 0 0 0 0 0 0 0 0 0 0 0 0
0 0 0 0 0 0 0 0 0 0 0 0 0 0 0 0 0 0 0 5 5 1 0 0 0 0 0 0 0 0 0 0 0 0 0 0 0 0 0 0 0 0 0 0
0 0 0 0 0 0 0 0 0 0 0 0 0 0 0 0 0 0 0 0 1 2 1 0 0 0 0 0 0 0 0 0 0 0 0 0 0 0 0 0 0 0 0 0
0 0 0 0 0 0 0 0 0 0 0 0 0 0 0 0 0 0 0 1 93 54 2 0 0 0 0 0 0 0 0 0 0 0 0 0 0 0 0 0 0 0 0 0
0 0 0 0 0 0 0 0 0 0 0 0 0 0 0 0 0 4 0 0 92 53 5 0 0 0 0 0 0 0 0 0 0 0 0 0 0 0 0 0 0 0 0 0
3 0 0 1 6 0 0 0 0 0 0 0 0 0 0 0 0 0 5 0 0 0 1 5 5 0 0 0 0 0 0 0 0 0 0 0 0 0 0 0 0 0 0 0
0 0 0 0 0 0 0 0 0 0 0 0 0 0 0 0 0 2 26 8 4 0 2 5 5 2 0 0 0 0 0 0 0 0 0 0 0 0 0 0 0 0 1 1
0 0 0 0 100 13 0 0 0 0 0 0 4 28 0 0 0 0 77 98 19 5 0 0 0 0 0 0 0 0 0 0 0 0 0 0 4 0 0 0 0 0 0 0
63 0 0 0 42 5 0 0 0 0 0 2 32 100 5 0 0 0 1 97 14 5 0 0 0 5 0 0 0 0 0 0 0 0 0 0 0 0 3 3 5 5 5 1
60 1 65 13 16 19 0 0 0 0 0 2 6 92 99 0 0 0 0 1 4 4 5 0 0 0 4 0 0 0 0 0 0 0 0 0 0 5 5 5 0 4 0 0
78 78 83 65 13 17 0 0 0 0 0 5 95 95 100 6 4 0 0 0 0 0 1 3 2 0 0 0 0 0 0 0 0 0 0 0 0 0 0 2 0 0 0 0
34 66 81 5 4 12 0 0 6 0 0 5 25 100 100 100 23 0 0 0 0 0 0 4 2 5 4 0 0 0 0 0 0 0 0 0 4 2 0 0 0 0 0 2
100 57 52 99 97 96 92 70 2 2 3 12 5 5 5 5 5 0 0 0 0 0 0 0 2 5 5 5 4 0 0 0 0 0 0 0 0 0 0 0 1 5 5 3
64 97 55 60 100 85 100 96 19 33 42 11 10 16 6 5 3 0 0 0 0 0 0 0 0 0 0 0 0 0 0 0 0 0 0 1 5 5 5 4 3 0 0 0
100 89 99 62 95 78 84 94 82 75 35 73 81 87 87 5 5 1 0 0 0 0 0 0 0 0 0 0 0 0 0 0 0 0 0 2 0 0 0 0 0 0 0 0
47 45 100 100 94 5 12 99 100 66 5 37 22 8 51 90 31 1 0 0 0 0 0 0 0 0 0 0 0 0 0 0 0 0 0 0 0 0 0 0 0 0 0 0
66 80 94 100 8 12 4 2 5 0 5 5 1 0 38 100 92 39 1 0 0 0 0 0 0 0 0 0 0 0 0 0 0 0 0 0 0 0 0 0 0 0 0 0
72 97 99 31 7 24 5 31 26 2 0 0 0 0 4 55 100 100 70 1 0 4 0 5 1 0 0 0 0 0 0 0 0 0 0 0 0 0 0 3 15 0 2 18
100 99 100 94 95 98 55 47 3 0 0 0 0 0 0 5 81 100 100 10 52 71 46 2 3 4 0 0 6 0 0 0 0 0 0 0 0 0 0 0 2 96 91 100

GFSCGP_prec_cloud_054.txt.gz
Cloud_Cover
0 0 0 0 0 0 0 5 4 79 76 100 42 95 4 100 100 100 100 0 0 0 0 0 5 0 0 0 0 0 0 0 0 0 0 0 0 0 0 0 0 0 0 0
0 0 0 0 0 0 0 5 5 5 100 68 89 96 96 100 100 100 65 92 0 0 0 0 0 0 0 0 0 0 0 0 0 0 0 0 0 0 0 0 0 5 2 0
0 0 0 0 0 0 0 1 1 26 69 74 99 93 100 100 100 100 100 8 1 0 0 0 0 0 0 0 0 0 0 0 0 0 0 0 0 0 0 0 0 0 0 0
0 0 0 0 0 0 0 0 1 97 96 55 27 36 43 75 87 92 22 4 100 0 0 0 0 0 0 0 0 0 0 0 0 0 0 0 0 0 0 0 0 0 0 0
0 0 0 0 0 0 0 0 4 50 96 100 81 48 78 0 5 89 5 14 37 9 0 0 0 0 0 0 0 0 0 0 0 0 0 0 0 0 0 0 0 0 0 0
0 0 0 0 0 0 0 0 0 1 5 22 30 66 3 51 5 100 16 4 2 36 8 0 0 0 0 0 0 0 0 0 0 0 0 0 0 0 0 0 0 0 0 0
0 0 0 0 0 0 0 0 0 0 0 0 0 28 2 90 79 87 82 5 4 5 40 0 0 0 0 0 0 0 0 0 0 0 0 0 0 0 0 0 0 0 0 0
0 0 0 0 0 0 0 0 0 0 0 0 0 0 0 7 100 88 51 62 5 5 5 0 0 0 0 0 0 0 0 0 0 0 0 0 0 0 0 0 0 0 0 0
0 0 0 0 0 0 0 0 0 0 0 0 0 0 0 0 0 28 56 100 11 5 3 0 0 0 0 0 0 0 0 0 0 0 0 0 0 0 0 0 0 0 0 0
0 3 0 0 0 0 0 0 0 0 0 0 0 0 0 0 0 0 0 3 73 10 5 0 0 0 0 0 0 0 0 0 0 0 0 0 0 0 0 0 0 0 0 0
0 0 0 3 0 0 0 0 0 0 0 0 0 6 0 4 0 0 0 0 1 78 5 2 0 0 0 0 0 0 0 0 0 0 0 0 0 0 0 0 0 0 0 0
4 0 0 5 0 0 0 0 0 0 0 0 0 84 49 3 0 0 2 0 0 2 77 4 0 0 0 0 0 0 0 0 0 0 0 0 0 0 0 0 0 0 0 0
97 0 0 5 50 18 0 0 0 0 0 0 0 0 0 0 0 0 12 4 0 4 74 14 3 0 0 0 0 0 0 0 0 0 0 0 0 0 0 0 0 0 0 0
27 0 0 0 0 1 0 0 0 0 0 0 0 0 0 0 0 0 2 24 0 0 5 4 4 5 2 0 0 0 0 0 0 0 0 0 0 0 0 0 0 0 0 0
87 10 0 3 3 88 12 0 0 0 0 0 0 0 0 0 0 0 0 5 4 0 1 76 98 41 1 0 0 0 0 0 0 0 0 0 0 0 0 0 0 0 0 0
85 5 0 5 4 99 98 40 0 0 0 2 5 43 5 0 0 0 0 5 5 5 0 4 4 6 60 100 0 0 0 0 0 0 0 0 0 4 0 0 0 0 0 0
99 98 10 0 3 31 95 25 35 2 0 0 5 27 100 8 0 0 0 1 18 5 5 0 0 5 41 1 0 0 0 0 0 0 0 0 0 0 0 2 0 0 0 0
100 83 84 16 89 97 19 18 2 43 14 12 1 27 100 100 71 0 0 0 2 5 5 3 0 0 0 0 0 0 0 0 0 0 0 0 0 0 0 0 0 0 0 0
98 100 99 96 100 34 98 18 4 0 3 79 54 2 59 29 61 0 0 0 0 3 5 5 5 2 0 2 3 0 2 0 0 12 8 0 0 0 0 0 0 0 0 0
100 100 95 68 100 98 100 100 100 16 43 28 47 16 0 0 0 1 0 0 0 0 4 5 5 20 36 13 6 9 2 0 0 4 0 0 0 0 0 0 0 0 0 0
74 100 93 64 24 100 98 99 96 96 83 5 4 0 0 0 0 0 0 0 0 0 0 0 0 5 34 100 20 3 1 4 1 0 2 3 5 1 0 0 0 0 1 5
76 100 100 100 98 100 85 100 100 100 51 22 1 0 0 0 0 0 0 0 0 0 0 0 0 0 5 68 100 100 100 57 5 5 8 11 5 8 7 6 5 13 10 3
100 61 99 100 69 100 100 100 100 94 95 74 4 0 0 0 3 28 2 0 0 0 0 0 0 0 0 0 3 11 68 21 52 94 100 96 98 76 19 4 0 0 0 0
100 91 100 100 58 94 100 99 23 32 5 54 75 5 0 3 5 5 4 0 0 0 0 4 16 0 0 0 0 0 0 0 0 2 0 0 0 0 0 0 0 0 0 3
57 71 95 99 17 5 27 17 3 0 4 4 24 30 4 3 23 17 44 3 0 0 0 0 0 0 0 0 0 0 0 0 0 0 0 0 0 0 0 5 28 12 24 22
68 77 71 9 1 1 0 0 0 0 0 0 0 7 25 0 68 100 76 59 25 0 0 0 0 0 0 0 0 0 0 0 0 0 0 0 0 0 0 6 10 95 92 100

GFSCGP_prec_cloud_057.txt.gz
Cloud_Cover
0 0 0 0 0 0 0 2 55 0 47 100 91 5 5 98 100 100 100 100 63 49 0 42 1 7 0 0 0 0 0 0 0 0 0 0 0 0 0 0 0 0 5 30
0 0 0 0 0 0 0 4 31 4 36 100 96 74 6 94 97 100 100 100 100 100 56 88 84 4 0 0 0 0 0 0 0 0 0 0 0 0 0 1 2 1 5 5
0 0 0 0 0 0 0 0 0 3 99 98 96 100 32 46 100 100 100 100 40 100 25 0 0 0 0 0 0 0 0 0 0 0 0 0 0 0 0 0 5 0 3 5
0 0 0 0 0 0 0 0 0 0 89 66 79 100 86 87 100 100 100 66 40 16 0 0 0 0 0 0 0 0 0 0 0 0 0 0 0 0 0 0 0 0 0 1
0 0 0 0 0 0 0 0 0 0 68 100 9 81 74 79 63 100 100 100 70 1 4 0 0 0 0 0 0 0 0 0 0 0 0 0 0 0 0 0 0 0 0 0
0 0 0 0 0 0 0 0 0 1 78 93 40 97 93 70 2 88 100 100 62 6 0 0 0 0 0 0 0 0 0 0 0 0 0 0 0 0 0 0 0 0 0 0
0 0 0 0 0 0 0 0 0 3 6 18 2 89 2 84 12 1 1 45 2 4 4 0 0 0 0 0 0 0 0 0 0 0 0 0 0 0 0 0 0 0 0 0
0 0 0 0 0 0 0 0 0 0 0 0 2 5 0 4 100 96 90 11 8 5 3 0 0 0 0 0 0 0 0 0 0 0 0 0 0 0 0 0 0 0 0 0
0 0 0 0 0 0 0 0 0 0 0 0 0 0 0 0 16 85 59 100 5 5 1 0 0 0 0 0 0 0 0 0 0 0 0 0 0 0 0 0 0 0 0 0
0 0 0 0 5 0 0 0 0 0 0 0 0 0 0 0 0 5 6 43 100 16 0 0 0 0 0 0 0 0 0 0 0 0 0 0 0 0 0 0 0 0 0 0
1 0 0 10 13 0 0 0 0 0 0 0 0 0 0 0 0 0 0 4 2 7 5 0 0 0 0 0 0 0 0 0 0 0 0 0 0 0 0 0 0 0 0 0
75 0 0 0 0 0 1 0 0 0 0 0 0 0 0 0 0 3 0 0 0 5 2 0 0 0 0 0 0 0 0 0 0 0 0 0 0 1 0 0 0 0 0 0
96 3 1 0 3 54 79 0 0 0 0 0 0 0 2 0 0 0 0 0 0 5 5 0 0 0 0 0 0 0 0 0 0 0 0 0 0 0 0 0 0 0 0 0
98 6 6 0 0 0 4 40 0 0 0 0 0 0 0 4 5 0 0 0 0 0 2 2 0 2 0 0 0 0 0 0 0 0 0 0 0 0 0 0 0 0 0 0
87 5 2 0 0 3 45 39 5 0 0 0 0 0 0 4 0 1 0 0 0 0 0 5 5 5 4 0 0 0 0 0 0 0 0 0 0 0 0 0 0 0 0 0
99 92 51 0 0 26 100 12 3 0 0 0 0 0 0 0 0 4 0 0 0 0 0 4 3 5 0 2 0 0 0 0 0 0 0 0 0 0 0 0 0 0 0 0
76 89 10 0 29 96 2 5 36 54 1 0 0 0 0 0 0 0 0 0 0 0 0 2 0 4 5 5 5 4 0 0 0 0 0 0 0 0 0 0 0 0 0 0
97 84 12 14 100 60 2 100 77 14 51 34 1 46 62 48 93 3 0 0 0 0 0 0 0 0 3 3 1 0 0 0 0 0 0 0 0 0 0 0 0 0 0 0
100 100 52 88 100 14 90 100 100 100 100 63 100 100 100 79 11 0 0 0 0 0 0 0 0 0 0 0 0 3 0 0 0 0 0 0 0 0 0 5 4 0 0 0
100 100 93 51 88 100 100 100 100 100 100 91 100 100 100 2 5 0 0 0 0 0 0 0 0 0 0 1 0 0 0 3 5 5 0 0 0 2 0 0 0 0 0 0
100 100 100 100 100 100 100 100 100 100 100 92 100 100 100 4 1 0 0 0 0 0 0 0 2 4 5 5 5 5 4 0 0 0 0 32 52 5 5 5 2 2 0 0
100 100 100 94 100 100 100 100 100 87 100 94 100 100 5 0 0 0 0 0 0 0 0 0 0 1 1 5 9 86 22 4 0 3 4 1 4 4 2 8 96 28 7 50
100 100 100 100 100 100 98 100 100 100 100 100 100 91 2 0 0 0 0 0 0 0 0 3 0 0 2 4 58 100 97 6 5 5 5 5 5 5 5 5 22 67 61 98
100 100 100 42 100 100 100 100 100 100 100 100 67 2 0 0 0 0 0 0 0 0 4 5 0 0 0 0 0 83 100 100 6 5 12 13 16 19 5 7 20 50 57 53
78 94 100 84 98 10 74 100 100 100 6 53 2 0 0 0 0 0 0 0 0 0 0 1 28 0 0 0 0 0 2 84 66 13 25 33 34 55 30 57 76 17 28 34
92 100 100 100 100 100 36 100 100 99 91 4 0 0 0 0 0 0 0 0 0 0 0 2 10 7 5 0 0 0 0 0 0 6 9 29 30 7 33 54 100 100 92 100

GFSCGP_prec_cloud_060.txt.gz
Cloud_Cover
0 0 0 0 0 0 0 0 5 0 77 12 63 7 70 100 46 79 5 5 64 100 100 2 0 0 0 0 0 0 0 0 0 0 0 0 0 0 2 5 5 0 0 0
0 0 0 0 0 0 0 0 0 0 8 100 100 85 29 20 9 52 100 42 46 96 4 2 0 0 0 0 0 0 0 0 0 0 0 0 0 0 0 0 0 4 3 0
0 0 0 0 0 0 0 0 0 0 67 100 100 59 100 81 5 40 100 100 86 100 21 2 0 0 0 0 0 0 0 0 0 0 0 0 0 0 0 0 0 0 1 0
0 0 0 0 0 0 0 0 0 2 91 73 89 6 67 5 36 14 100 94 100 100 5 0 0 0 0 0 0 0 0 0 0 0 0 0 0 0 0 4 0 0 0 0
0 0 0 0 0 0 0 0 0 4 76 80 73 100 5 5 5 100 70 100 14 100 13 1 0 0 0 0 0 0 0 0 0 0 0 0 0 0 0 0 0 0 0 0
0 0 0 0 0 0 0 0 0 56 59 33 35 99 2 3 1 5 65 75 99 20 12 69 5 0 0 0 0 0 0 0 0 0 0 0 0 0 0 0 0 0 0 0
0 0 0 0 0 0 0 0 0 0 49 5 1 80 0 0 3 3 38 0 79 100 100 43 100 19 0 0 0 0 0 0 0 0 0 0 0 0 0 0 0 0 0 0
0 0 0 0 0 0 0 0 0 0 0 0 0 5 0 0 3 6 5 4 5 73 100 99 11 3 0 0 0 0 0 0 0 0 0 0 0 0 0 0 0 0 0 0
63 1 0 0 0 0 0 0 0 0 0 0 0 0 0 0 3 5 0 0 4 4 5 25 5 0 0 0 0 0 0 0 0 0 0 0 0 0 0 0 0 0 0 0
28 28 0 0 4 0 0 0 0 0 0 0 0 0 0 0 0 3 2 0 0 0 0 2 1 0 0 0 0 0 0 0 0 0 0 0 0 0 0 0 0 0 0 0
86 79 2 1 0 0 0 0 0 0 0 0 0 0 0 0 3 2 2 0 0 0 0 0 0 0 0 0 0 0 0 0 0 0 0 0 0 0 0 0 0 0 0 0
100 100 26 0 0 0 5 0 0 0 0 0 0 0 0 0 0 2 75 4 0 0 0 0 5 0 0 0 0 0 0 0 0 0 0 0 0 0 0 0 0 0 0 0
100 100 80 0 4 18 52 0 0 0 0 0 0 0 0 0 0 0 0 0 0 0 0 0 3 0 0 0 0 0 0 0 0 0 0 0 0 0 0 0 0 0 0 0
100 100 92 74 4 90 4 0 0 0 0 0 0 0 0 0 0 0 0 0 0 0 0 0 0 0 0 0 0 0 0 0 0 0 0 0 0 0 0 0 0 0 0 0
100 100 97 5 1 9 0 4 0 0 0 0 3 0 3 0 5 45 27 0 0 0 0 0 0 0 0 4 0 0 0 0 0 0 0 0 0 0 0 0 0 0 0 0
100 100 60 0 4 27 0 5 5 0 0 0 3 0 0 5 0 4 2 0 0 0 0 0 0 0 0 5 4 0 0 0 0 0 0 0 0 0 0 0 0 2 0 0
100 98 75 4 88 100 99 100 98 4 1 4 4 25 4 53 3 3 79 0 0 0 0 0 0 0 1 3 5 0 0 0 0 0 0 0 0 0 0 0 0 0 9 0
100 100 99 10 100 100 100 100 87 1 5 4 0 16 45 58 34 21 49 3 0 0 0 0 0 0 0 4 5 59 5 0 0 0 0 0 0 0 0 0 0 0 0 8
100 100 95 100 90 100 100 100 99 5 2 2 1 3 57 3 2 1 3 0 0 0 0 0 0 0 0 0 0 74 26 2 3 1 0 4 5 2 0 0 0 0 0 0
100 100 100 100 99 100 100 100 98 5 21 64 36 1 5 1 3 0 0 0 0 0 0 0 0 1 5 0 1 0 0 4 0 0 0 5 5 5 0 1 4 0 0 0
100 100 100 100 100 100 100 100 100 100 92 100 87 6 4 0 0 0 0 0 0 0 0 0 0 0 1 5 0 3 4 0 0 0 0 0 5 5 1 1 0 0 0 0
100 100 100 100 100 100 100 96 100 44 100 100 100 44 32 18 14 0 0 0 0 0 0 0 0 0 0 4 7 0 0 0 0 0 0 0 0 0 2 5 3 1 2 1
100 100 100 100 96 100 100 100 100 96 100 100 99 97 56 22 0 0 0 1 2 0 0 0 0 0 0 0 34 47 4 2 4 0 4 67 4 2 5 6 5 9 46 8
100 100 100 88 96 90 100 100 100 100 100 100 97 89 81 4 0 0 0 0 3 0 0 0 0 0 0 0 0 26 40 6 2 5 6 39 5 1 0 0 0 2 4 5
100 100 100 100 76 73 96 100 100 100 100 100 94 6 55 55 0 0 0 0 0 0 0 0 5 0 0 0 0 0 13 86 25 6 5 5 5 5 5 41 48 12 13 21
100 100 100 100 100 100 100 100 98 97 100 100 100 77 6 1 0 1 3 3 1 13 3 0 0 1 0 0 0 0 0 0 9 5 18 39 13 11 32 62 100 100 98 100

GFSCGP_prec_cloud_063.txt.gz
Cloud_Cover
0 0 0 0 0 0 0 0 0 5 5 1 2 5 60 5 2 10 84 11 38 100 71 20 0 0 0 0 0 0 0 0 0 0 0 0 6 5 5 0 1 0 1 0
0 0 0 0 0 0 0 0 0 3 6 5 5 2 24 9 19 53 61 5 18 5 5 2 0 0 0 0 0 0 0 0 0 0 0 0 5 5 2 0 0 0 0 0
0 0 0 0 0 0 0 0 0 2 5 5 31 26 24 2 5 14 51 47 4 34 0 3 1 0 0 0 0 0 0 0 0 0 0 0 0 5 5 0 0 0 0 0
0 0 0 0 0 0 0 0 0 0 46 20 5 5 5 4 13 0 5 5 2 84 5 1 4 0 0 0 0 0 0 0 0 0 0 0 0 0 0 0 0 0 0 0
0 0 0 0 0 0 0 0 0 0 79 100 28 5 0 5 0 0 3 5 5 22 7 8 0 0 0 0 0 0 0 0 0 0 0 0 0 0 0 0 0 0 0 0
0 0 0 0 0 0 0 0 0 0 51 99 30 18 0 0 0 0 4 5 4 4 26 7 56 3 0 0 0 0 0 0 0 0 0 0 0 0 0 0 0 0 0 0
0 0 0 0 0 0 0 0 0 0 2 7 8 74 0 0 0 0 2 4 2 4 19 39 44 5 5 3 1 0 0 0 0 0 0 0 0 0 0 0 0 0 0 0
1 0 0 0 0 0 0 0 0 0 1 3 0 5 0 0 0 0 2 5 91 99 10 54 100 99 5 10 6 0 0 0 0 0 0 0 0 0 0 0 0 0 0 0
0 0 0 0 0 0 0 0 0 0 0 0 0 0 0 0 0 1 0 2 4 5 5 0 0 48 5 30 5 5 0 0 0 0 0 0 0 0 0 0 0 0 0 0
0 0 0 0 0 0 0 0 0 0 0 0 0 0 0 0 0 0 5 0 0 0 5 32 52 0 5 5 3 0 0 0 0 0 0 0 0 0 0 0 0 0 0 0
0 5 0 0 0 0 0 0 0 0 0 0 0 0 0 0 0 0 0 0 0 3 0 2 8 5 0 0 0 0 0 0 0 0 0 0 0 0 0 0 0 0 0 0
0 16 19 0 0 0 0 0 0 0 0 0 0 0 0 0 0 0 0 0 0 8 97 0 4 81 0 0 0 0 0 0 0 0 0 0 0 0 0 0 0 0 0 0
41 57 36 0 0 4 4 5 0 0 0 0 0 0 0 0 0 10 37 0 0 81 29 0 2 90 8 0 0 0 0 0 0 0 0 0 0 0 0 0 0 0 0 0
26 6 3 5 18 7 5 61 4 0 0 0 0 2 0 0 0 75 3 0 0 5 74 1 0 5 5 0 0 0 0 0 0 0 0 0 0 0 0 0 0 0 0 0
0 66 6 21 0 4 5 12 23 0 0 0 0 0 0 0 0 0 0 0 0 0 0 0 0 0 0 0 0 0 0 0 0 0 0 0 0 0 0 0 0 0 0 0
46 5 40 4 0 2 100 95 92 4 0 0 0 1 0 0 0 3 0 0 0 0 0 0 0 0 0 0 0 0 0 0 0 0 0 0 0 0 0 0 0 0 0 0
100 99 83 5 5 5 100 100 100 100 3 0 1 0 0 0 1 2 0 0 0 0 0 0 0 0 0 0 0 0 0 0 0 0 0 0 0 0 0 0 0 35 4 0
69 100 100 72 94 51 50 100 100 100 6 0 0 0 4 0 4 3 0 6 1 0 0 0 0 0 0 0 4 5 0 0 0 0 0 0 0 0 0 0 0 0 35 36
2 100 79 100 97 89 98 100 100 99 6 0 0 0 0 1 5 2 5 42 74 48 2 0 0 0 0 0 59 5 5 4 0 0 0 0 0 1 2 0 2 0 0 20
100 100 81 100 100 100 91 100 100 75 35 0 0 0 0 0 0 0 6 32 40 9 13 4 0 0 0 0 2 5 3 3 0 0 4 1 5 6 5 2 4 0 0 0
100 100 100 100 100 100 100 100 99 70 54 85 1 0 0 0 0 1 4 1 3 5 25 6 0 2 3 0 3 2 1 44 77 2 26 25 70 5 5 5 4 0 0 0
100 100 100 100 100 100 100 100 99 68 100 88 14 0 0 16 95 71 2 0 0 3 0 2 2 2 35 35 5 3 0 22 39 3 0 38 93 11 5 4 1 0 0 0
100 100 100 100 100 100 100 100 100 100 100 100 69 54 88 99 84 62 20 4 0 2 5 5 0 0 0 1 44 8 31 5 58 73 2 0 5 24 39 83 5 0 2 0
100 100 100 100 100 100 100 100 100 100 100 100 100 100 100 100 96 23 1 5 2 0 0 0 0 0 0 0 0 39 24 0 5 5 5 3 0 2 63 93 16 1 19 92
100 100 100 100 100 100 100 100 100 100 100 100 100 100 100 100 100 87 20 4 5 5 0 0 4 0 3 0 0 0 8 6 16 5 5 5 5 6 6 78 54 11 11 21
100 100 100 100 100 100 100 100 100 100 100 100 100 100 100 100 100 100 58 0 0 4 0 0 4 5 7 4 0 0 0 3 0 4 5 9 4 4 7 89 100 100 99 100

GFSCGP_prec_cloud_066.txt.gz
Cloud_Cover
0 0 0 0 0 0 0 0 0 0 31 5 5 5 5 5 5 5 14 100 3 5 7 2 2 0 0 0 0 0 0 0 0 0 5 4 0 0 0 0 0 0 0 0
0 0 0 0 0 0 0 0 0 2 100 5 5 5 5 5 5 58 44 93 100 5 5 0 2 0 0 0 0 0 0 0 0 0 0 0 0 0 0 0 0 0 0 0
0 0 0 0 0 0 0 0 0 0 98 58 5 0 4 5 5 5 5 8 19 0 0 2 0 0 0 0 0 0 0 0 0 0 0 0 4 3 2 0 0 0 0 0
0 0 0 0 0 0 0 0 0 0 96 100 54 0 0 3 3 4 5 5 4 0 5 2 2 0 0 0 0 0 0 0 0 0 0 1 4 5 0 0 0 0 0 0
0 0 0 0 0 0 0 0 0 0 2 14 31 3 0 1 0 0 1 5 0 3 4 5 4 1 0 0 0 0 0 0 0 0 0 0 0 1 0 0 0 0 0 0
0 0 0 0 0 0 0 0 0 0 23 65 23 4 0 0 3 0 5 5 5 1 7 26 0 5 0 0 0 0 0 0 0 0 0 0 0 0 0 0 0 0 0 0
0 0 0 0 0 0 0 0 0 0 62 5 5 4 0 0 59 5 5 19 5 3 0 0 3 5 0 4 3 4 0 0 0 0 0 0 0 0 0 0 0 0 0 0
0 0 0 0 0 0 0 0 0 0 0 5 2 4 0 0 58 45 5 36 10 5 5 0 0 2 2 4 3 5 35 0 0 0 0 0 0 0 0 0 0 0 0 0
0 0 0 0 0 0 0 0 0 0 0 0 3 0 0 0 3 5 5 0 0 5 12 4 2 97 98 11 5 5 9 62 0 0 0 0 0 0 0 0 0 0 0 0
0 0 0 0 0 0 0 0 0 0 0 0 0 0 0 0 5 5 5 2 1 5 5 37 15 2 0 0 0 85 4 4 0 0 0 0 0 0 0 0 0 0 0 0
0 0 0 0 0 3 0 0 0 0 0 0 0 0 0 0 5 24 5 5 4 5 11 45 17 81 0 0 0 3 33 1 3 0 0 0 0 0 0 0 0 0 0 0
0 2 34 0 0 0 68 0 0 0 0 0 0 0 0 0 0 5 33 86 62 98 5 49 7 7 78 0 0 0 0 2 0 0 0 0 0 0 0 0 0 0 0 0
0 9 31 0 0 0 44 20 0 0 0 0 0 0 0 0 0 3 5 5 100 14 5 5 7 83 4 0 0 0 0 0 0 0 0 0 0 0 0 0 0 0 0 0
0 2 5 4 10 9 0 100 7 0 0 0 0 1 0 0 0 0 0 5 90 95 95 14 17 29 6 6 0 0 0 0 0 0 0 0 0 0 0 0 0 0 0 0
0 6 0 0 0 5 5 71 89 4 0 0 0 0 0 0 0 0 0 2 4 5 4 26 5 39 68 65 1 0 0 0 0 0 0 0 0 0 0 0 0 0 0 0
61 2 5 5 1 0 0 0 77 16 3 0 0 0 0 0 0 0 0 0 3 0 1 33 5 2 5 68 2 0 0 0 0 0 0 0 0 0 0 0 0 0 0 0
100 28 65 40 0 0 0 0 20 5 1 5 2 0 0 0 0 0 0 0 11 40 6 1 5 1 0 3 4 0 0 0 0 0 0 0 0 0 0 0 0 0 0 0
100 100 91 96 5 4 0 0 0 6 5 5 5 11 39 13 50 52 65 27 8 21 78 0 3 28 0 0 0 0 0 0 0 0 0 0 0 0 0 0 0 0 0 0
96 100 43 88 64 52 78 83 47 33 4 5 10 95 100 12 4 4 100 100 100 100 100 29 0 0 0 0 0 0 0 0 0 0 0 0 0 0 0 0 0 0 26 46
1 6 7 100 89 96 100 100 94 94 58 86 56 100 3 0 4 82 100 100 100 100 100 95 1 5 4 0 0 1 0 0 0 0 0 0 0 0 0 0 0 5 0 0
100 100 77 100 96 92 100 100 100 100 24 100 79 37 1 0 1 95 100 100 100 100 93 78 99 100 69 11 5 0 0 0 0 0 0 0 0 0 0 0 1 0 0 0
99 98 100 100 100 84 100 100 100 100 83 99 100 67 0 7 100 100 100 100 100 97 100 100 99 100 100 16 0 0 4 1 0 0 0 0 0 0 0 4 4 2 0 0
100 100 100 100 100 100 100 100 100 100 82 98 100 96 58 74 100 100 100 71 66 89 96 100 100 100 100 100 61 76 75 5 2 3 96 24 0 5 74 33 5 5 4 3
100 100 100 100 100 100 100 100 100 100 100 73 100 100 100 100 100 100 100 42 2 17 44 99 27 40 70 70 56 83 90 81 5 5 49 17 44 2 5 59 74 78 6 10
100 100 100 99 100 100 100 100 100 100 100 100 100 100 100 100 100 100 100 54 1 0 5 22 20 5 5 12 5 4 40 100 100 5 5 6 12 34 4 11 53 71 29 21
100 100 100 100 100 100 100 100 100 86 100 100 100 100 100 100 100 100 46 52 3 5 5 4 1 4 5 5 5 5 3 3 0 0 2 32 24 100 48 88 100 100 93 100

GFSCGP_prec_cloud_069.txt.gz
Cloud_Cover
0 0 0 0 0 0 0 0 0 0 0 12 5 25 80 5 5 5 14 5 1 0 5 4 2 0 0 0 0 0 0 0 0 5 1 1 0 0 0 0 0 0 0 0
0 0 0 0 0 0 0 0 0 0 63 49 4 6 62 5 12 32 100 69 18 12 5 5 0 0 0 0 0 0 0 0 0 4 4 4 0 0 0 0 0 0 0 0
0 0 0 0 0 0 0 0 0 0 47 45 16 12 5 5 5 9 5 9 82 9 5 0 2 0 0 0 0 0 0 0 0 0 2 0 0 0 0 0 0 0 0 0
0 0 0 0 0 0 0 0 0 0 0 5 5 67 5 5 5 5 5 6 5 5 5 4 47 1 0 0 0 0 0 0 0 0 0 0 0 0 0 0 0 0 0 0
0 0 0 0 0 0 0 0 0 0 0 4 19 4 5 5 5 5 69 85 5 4 0 0 5 4 0 0 0 0 0 0 0 0 0 0 0 0 0 0 0 0 0 0
0 0 0 0 0 0 0 0 0 0 0 0 1 4 0 0 0 33 82 11 5 0 0 0 5 8 3 0 0 0 0 0 0 0 0 0 0 0 0 0 0 0 0 0
0 0 0 0 0 0 0 0 0 0 0 0 0 4 0 0 0 44 100 64 5 3 0 2 2 5 5 5 0 0 4 0 0 0 0 0 0 0 0 0 0 0 0 0
0 0 0 0 0 0 0 0 0 0 0 0 0 0 0 0 0 24 100 100 45 5 0 0 4 0 0 4 1 0 5 0 0 0 0 0 0 0 0 0 0 0 0 0
0 0 0 0 0 0 0 0 0 0 0 0 0 0 0 0 0 6 73 100 12 5 0 0 0 0 0 4 5 2 5 5 4 0 0 0 0 0 0 0 0 0 0 0
0 0 0 0 0 0 0 0 0 0 0 0 0 0 0 0 0 86 67 87 86 7 2 1 0 0 0 5 5 5 5 5 1 0 0 0 0 0 0 0 0 0 0 0
0 0 0 0 0 1 0 0 0 0 0 0 0 0 0 0 0 63 95 90 92 97 5 5 0 0 0 0 2 0 0 1 5 0 0 0 0 0 0 0 0 0 0 0
0 0 0 0 0 0 4 0 4 0 0 0 0 0 0 0 0 3 99 24 43 100 83 5 3 3 5 0 0 0 0 0 5 0 0 0 0 0 0 0 0 0 0 0
0 2 0 0 0 0 0 5 5 0 0 0 0 0 0 0 0 10 48 27 5 47 98 93 6 5 5 3 0 0 0 0 0 0 0 0 0 0 0 0 0 0 0 0
0 1 0 0 2 2 0 0 5 5 1 0 0 0 0 0 0 50 92 63 63 32 100 95 60 5 5 0 0 0 0 0 0 0 0 0 0 0 0 0 0 0 0 0
3 4 0 0 0 0 0 0 0 0 5 0 0 0 0 0 0 3 5 5 7 32 58 100 46 5 5 5 1 0 0 0 0 0 0 0 0 0 0 0 0 0 0 0
88 5 3 0 0 0 0 0 0 0 0 5 0 0 0 0 0 0 0 5 5 5 77 6 17 5 5 5 5 2 0 0 0 0 0 0 0 0 0 0 0 0 0 0
100 54 4 0 0 5 0 0 0 0 0 0 5 0 0 0 0 0 0 3 5 5 31 23 16 5 5 5 9 74 2 0 0 0 0 0 0 0 0 0 0 0 0 0
45 46 5 2 4 2 6 0 0 0 0 0 4 1 22 40 20 2 0 0 0 1 4 1 3 5 3 5 4 36 5 0 0 0 0 0 0 0 0 0 0 0 0 0
41 56 47 11 17 5 90 97 93 84 41 0 0 21 98 42 45 48 58 11 55 83 95 8 0 4 52 3 1 5 5 0 0 0 0 0 0 0 0 0 0 0 0 0
49 54 12 46 72 70 99 100 100 92 100 87 14 83 100 100 10 1 79 96 98 100 100 100 3 0 5 43 5 4 2 0 0 0 0 0 0 0 0 0 0 0 0 0
100 100 97 82 100 56 100 100 100 100 92 100 99 100 100 90 0 10 61 98 100 100 100 79 73 0 0 48 5 4 4 0 0 0 0 0 0 0 0 0 0 0 4 2
94 92 100 100 100 78 100 100 100 100 100 100 100 100 100 76 23 50 100 100 100 100 100 100 94 95 0 0 5 1 2 1 0 0 0 0 0 0 0 0 0 0 2 5
100 100 97 90 85 86 100 100 100 100 100 100 100 100 100 88 100 96 100 100 100 100 100 100 100 70 87 78 5 5 5 1 1 0 0 0 0 0 0 0 0 0 14 0
100 100 100 100 87 100 100 100 100 100 100 100 100 100 100 100 100 100 100 100 100 100 100 100 100 86 100 100 99 93 67 0 5 0 0 0 0 0 0 0 0 0 0 0
100 100 100 100 100 100 100 100 100 100 100 100 100 100 100 100 100 100 100 100 100 100 100 100 100 100 100 89 82 41 27 86 41 10 23 40 35 13 1 12 0 3 16 17
100 100 100 100 100 100 100 100 100 96 100 100 100 100 100 100 100 100 100 100 100 97 100 100 100 100 100 100 96 87 21 92 60 10 50 80 97 100 100 44 8 92 86 100

GFSCGP_prec_cloud_072.txt.gz
Cloud_Cover
0 0 0 0 0 0 0 0 0 0 5 0 2 98 5 31 5 5 3 0 0 1 11 98 4 0 0 0 0 0 0 0 0 0 0 0 0 0 0 0 0 0 0 0
0 0 0 0 0 0 0 0 0 0 0 0 2 46 100 5 10 5 4 4 0 2 13 75 20 0 0 0 0 0 0 0 0 0 0 0 0 0 2 0 0 0 0 0
0 0 0 0 0 0 0 0 0 0 0 0 2 64 100 30 5 5 5 13 15 4 1 19 86 1 0 0 0 0 0 0 0 0 3 0 0 0 0 0 0 0 0 0
0 0 0 0 0 0 0 0 0 0 0 1 0 5 10 40 5 5 5 5 5 1 0 7 6 0 0 0 0 0 0 0 0 0 4 0 0 0 0 0 0 0 0 0
0 0 0 0 0 0 0 0 0 0 0 0 67 18 85 74 43 5 5 5 5 5 5 4 18 4 0 0 0 0 0 0 0 4 4 3 0 0 0 0 0 0 0 0
0 0 0 0 0 0 0 0 0 0 0 0 1 4 4 100 16 5 5 5 5 5 5 3 5 0 1 0 0 0 0 0 0 2 0 0 0 0 0 0 0 0 0 0
0 0 0 0 0 0 0 0 0 0 0 0 0 0 5 57 69 3 5 5 5 5 5 0 1 0 0 0 1 0 0 0 0 0 0 0 0 0 0 0 0 0 0 0
2 0 0 0 0 0 0 0 0 0 0 0 0 0 0 5 6 3 5 3 5 5 5 0 0 0 0 0 5 0 0 0 0 0 0 0 0 0 0 0 0 0 0 0
0 0 0 0 0 0 2 0 0 0 0 0 0 0 0 0 0 0 0 0 16 5 5 2 0 0 0 0 0 0 0 0 0 0 0 0 0 0 0 0 0 0 0 0
0 0 0 0 0 0 0 13 14 0 1 0 0 0 0 0 0 0 0 0 96 5 8 3 0 0 0 0 0 0 0 0 0 0 0 0 0 0 0 0 0 0 0 0
0 0 0 0 0 0 0 0 24 32 6 0 1 0 0 0 0 0 0 0 84 21 17 5 0 0 0 0 0 0 2 0 0 0 0 0 0 0 0 0 0 0 0 0
0 0 0 0 1 0 1 15 3 93 21 2 5 4 0 0 0 0 0 0 88 96 43 5 5 5 0 0 0 0 0 0 0 0 0 0 0 0 0 0 0 0 0 0
5 0 0 0 0 0 0 4 5 94 88 86 17 4 2 0 0 0 0 1 79 96 5 5 5 5 0 0 0 0 0 0 0 0 0 0 0 0 0 0 0 0 0 0
2 0 3 0 0 0 0 0 0 1 68 55 61 100 5 1 0 0 0 0 78 12 86 58 6 5 3 2 0 0 0 0 0 0 0 0 0 0 0 0 0 0 0 0
81 93 41 1 0 0 0 0 0 0 1 56 85 98 12 68 0 0 0 0 93 93 5 59 5 5 5 5 0 0 0 0 0 0 0 0 0 0 0 0 0 0 0 0
100 87 93 78 0 0 0 0 0 0 0 0 1 38 58 30 0 0 0 0 12 100 84 5 90 72 5 5 0 0 0 0 0 0 0 0 0 0 0 0 0 0 0 0
99 97 100 83 6 2 0 0 0 0 0 0 0 1 0 4 0 0 0 1 55 59 78 100 71 68 7 5 5 4 2 0 0 0 0 0 0 0 0 0 0 0 0 0
100 100 100 100 93 3 0 0 0 4 0 0 0 0 0 3 3 0 0 0 20 95 92 94 100 100 100 5 4 5 4 1 1 0 0 0 0 0 0 0 0 0 0 0
99 95 98 100 70 4 96 40 62 79 69 5 6 0 0 0 3 0 0 0 1 75 85 98 95 99 52 100 5 5 5 1 5 0 0 0 0 0 0 0 0 0 0 0
100 100 100 95 100 100 68 98 100 40 78 98 87 39 9 3 3 0 0 0 0 6 96 76 99 65 92 100 89 86 5 0 0 0 0 0 0 0 0 0 0 0 0 0
53 100 96 86 100 92 35 41 100 100 84 100 100 100 100 71 48 1 0 0 71 23 24 40 43 5 3 10 14 44 4 4 0 4 0 0 0 0 0 0 0 0 0 0
100 100 100 81 100 84 31 34 99 97 75 100 100 100 100 100 99 27 0 29 98 100 65 36 100 86 15 5 3 88 88 83 4 5 0 0 0 0 0 0 0 0 0 0
100 100 84 11 10 53 100 99 99 100 100 100 100 100 100 100 100 100 4 21 98 93 100 97 100 100 99 0 3 93 100 44 5 5 0 0 0 0 0 0 0 0 0 0
100 100 100 30 55 84 27 100 100 100 100 100 100 100 100 100 100 100 93 100 100 100 100 100 100 96 100 100 55 73 68 49 5 6 0 0 0 0 0 0 0 0 0 0
100 100 100 99 77 84 80 100 100 100 100 100 100 100 100 100 100 100 100 100 100 100 100 100 100 100 97 100 100 100 100 74 8 6 0 0 0 0 0 0 0 0 0 0
100 100 100 100 100 100 100 100 100 100 100 100 100 100 100 100 100 100 100 100 100 100 100 100 100 100 100 100 100 100 100 100 99 56 3 4 0 0 0 0 0 73 74 100

GFSCGP_prec_cloud_075.txt.gz
Cloud_Cover
0 0 0 0 0 0 0 0 0 0 18 5 35 80 4 88 0 57 12 0 0 41 96 54 26 2 0 0 0 0 0 0 0 0 0 0 1 20 78 46 16 0 87 33
0 0 0 0 0 0 0 0 0 0 0 13 64 30 100 74 0 0 0 0 0 36 100 96 10 15 0 0 0 0 0 0 0 0 0 1 0 11 42 33 0 2 5 5
0 0 0 0 0 0 0 0 0 0 0 2 67 84 100 42 100 55 20 0 1 5 17 50 25 11 1 0 0 0 0 0 0 0 0 2 0 72 19 67 0 5 14 23
0 0 0 0 0 0 0 0 0 0 0 1 5 48 40 81 100 35 4 55 8 5 5 30 53 10 0 0 0 0 0 0 0 0 0 0 0 1 15 9 6 18 0 46
0 0 0 0 0 0 0 0 0 0 0 0 5 4 5 17 3 91 17 96 56 5 4 0 0 3 0 0 0 0 0 0 0 0 4 1 0 0 0 0 6 9 0 0
1 0 0 0 0 0 0 0 0 0 0 0 0 5 1 96 93 6 78 94 23 5 0 0 0 2 11 21 6 0 0 0 0 1 5 5 0 0 0 0 0 0 0 0
0 1 0 0 0 0 0 0 0 0 0 0 0 0 25 63 36 35 78 41 37 5 5 0 7 2 0 4 2 0 0 0 0 2 6 5 0 0 0 0 0 0 0 0
4 2 0 1 0 0 0 0 0 0 0 0 0 0 0 21 99 61 100 45 28 49 5 0 5 0 0 0 0 0 0 0 0 0 0 0 0 0 0 0 0 0 0 0
0 23 100 41 3 0 2 0 0 0 0 0 0 0 0 0 84 3 100 100 48 96 19 12 5 5 0 0 0 0 0 0 0 0 0 0 0 0 0 0 1 0 0 0
0 0 15 93 84 54 88 64 2 3 1 1 4 0 0 0 0 5 16 100 35 81 50 38 4 5 0 0 0 0 0 0 0 0 0 0 0 0 0 5 5 3 0 0
0 0 0 36 90 84 10 5 96 75 5 5 23 33 5 0 0 4 5 3 5 8 7 19 5 5 0 1 4 0 0 0 0 0 0 0 0 0 0 0 0 0 0 0
4 0 0 0 0 4 1 66 56 100 74 6 90 85 94 42 1 5 5 5 5 5 8 84 86 5 0 0 0 0 0 0 0 0 0 0 0 0 0 0 0 0 0 0
5 5 1 0 0 0 23 4 29 18 100 99 56 39 100 17 2 5 17 59 46 77 90 100 100 8 2 0 0 0 0 0 0 0 0 0 0 0 0 0 0 0 0 0
4 3 23 4 35 32 18 0 87 100 98 86 100 100 100 97 100 92 84 28 12 5 14 16 100 7 5 0 0 0 0 0 0 0 0 0 0 0 0 0 0 0 0 0
57 98 63 79 33 4 0 4 87 100 98 100 100 100 100 100 99 6 0 1 2 0 0 2 7 86 5 5 4 0 0 0 0 0 0 0 0 0 0 0 0 0 0 0
100 84 88 100 6 78 0 0 0 5 2 5 17 100 92 100 100 100 27 0 0 0 0 0 5 5 5 5 5 2 0 0 0 0 0 0 0 0 0 0 0 0 0 0
64 92 100 89 100 56 77 2 0 0 0 0 2 6 33 100 100 100 31 0 0 0 3 5 33 78 6 5 5 4 0 0 0 0 0 0 0 0 0 0 0 0 0 0
100 99 100 92 100 100 11 51 23 50 1 0 0 7 100 100 44 72 95 1 0 0 0 13 95 99 56 5 5 5 2 2 0 0 0 0 0 0 0 0 0 0 0 0
100 100 100 100 100 95 97 60 7 0 1 4 4 3 0 85 5 1 2 2 0 0 4 56 48 82 86 93 48 5 5 3 0 0 0 0 0 0 0 0 0 0 0 0
100 100 100 100 100 99 100 100 37 0 0 0 5 0 5 42 18 24 0 0 0 0 0 53 62 77 95 72 41 52 5 3 0 0 0 0 0 0 0 0 0 0 0 0
100 100 100 83 70 94 100 97 5 4 14 59 100 85 4 9 35 48 3 3 0 0 0 0 7 24 99 100 30 5 5 5 13 5 1 0 0 0 0 0 0 0 0 0
100 100 100 98 100 82 100 5 26 44 4 5 33 90 100 95 77 65 28 60 0 0 0 6 48 98 100 96 98 32 10 98 10 5 0 0 0 0 0 0 0 0 0 0
100 100 100 100 97 100 13 42 29 16 50 83 8 71 100 92 99 100 15 88 16 0 0 48 97 100 96 68 24 41 61 46 17 5 0 4 0 0 0 0 0 0 0 0
99 100 100 100 40 79 98 88 89 62 95 100 100 100 100 100 93 100 48 92 11 7 16 82 97 74 100 100 70 49 7 11 41 77 5 0 0 0 0 0 0 0 0 0
100 100 100 100 100 56 87 84 100 98 100 98 87 96 100 91 94 99 99 94 59 12 97 96 68 85 100 100 100 73 69 92 56 44 51 15 28 4 12 0 0 0 0 4
100 100 100 100 100 100 100 100 100 100 100 100 99 96 100 86 100 100 98 32 65 56 100 100 100 100 100 100 100 100 95 100 100 94 100 88 38 46 23 0 0 86 27 99

GFSCGP_prec_cloud_078.txt.gz
Cloud_Cover
0 0 0 0 0 0 0 0 0 0 0 2 2 100 32 28 100 100 100 99 80 90 29 58 73 12 0 0 0 0 1 0 0 0 0 0 0 62 8 6 100 100 5 100
0 0 0 0 0 0 0 0 0 0 0 0 85 56 4 69 100 100 100 100 98 52 66 68 28 19 0 0 0 0 0 0 0 0 0 0 5 12 72 73 6 1 0 36
0 0 0 0 0 0 0 0 0 0 0 0 87 99 54 100 100 100 100 40 30 97 36 8 0 7 0 0 0 0 0 0 0 0 0 0 27 58 38 82 2 0 3 0
0 0 0 0 0 0 0 0 0 0 0 0 0 4 11 94 100 100 83 100 63 20 10 5 0 0 0 0 0 0 0 0 0 0 0 0 0 8 0 95 5 5 1 4
0 0 0 0 0 0 0 0 0 0 0 0 0 4 75 96 100 46 100 92 100 0 2 0 0 0 0 0 0 0 0 0 0 0 0 0 0 0 69 0 77 0 0 23
0 0 0 0 0 0 0 0 0 0 0 0 0 0 4 18 5 97 100 100 86 17 0 6 0 0 0 0 0 0 0 0 0 0 0 0 0 0 0 0 92 76 0 0
0 0 0 0 0 0 0 0 0 0 0 0 0 0 0 92 99 100 100 34 0 4 0 12 20 0 0 0 0 0 0 0 0 0 0 0 0 0 0 0 0 0 0 0
3 4 0 0 0 0 0 0 0 0 0 0 0 0 0 0 26 100 4 4 47 3 11 57 0 0 0 1 0 0 0 0 0 0 0 0 5 0 0 0 0 0 0 0
0 0 80 96 7 0 0 23 0 2 0 0 0 0 0 1 61 81 100 100 21 100 8 0 0 0 0 1 1 0 0 0 0 0 0 0 5 0 0 0 0 0 0 32
0 0 1 82 100 53 3 9 25 3 5 0 0 0 0 0 2 74 20 84 100 100 83 6 1 0 0 0 0 0 0 0 0 0 0 0 0 0 0 0 1 5 4 2
0 0 0 3 94 100 99 1 97 96 4 2 3 2 5 1 0 0 5 28 100 100 100 98 46 0 0 0 0 0 0 0 0 0 0 0 0 0 0 0 3 2 4 0
0 0 0 0 1 99 100 99 100 100 28 4 46 6 100 100 19 0 0 5 100 92 100 100 100 4 0 0 0 0 0 0 0 0 0 0 0 0 0 0 0 0 0 0
3 0 2 0 0 0 4 84 100 100 63 86 33 0 100 10 100 35 0 8 100 100 97 100 100 44 13 10 0 0 0 0 0 0 0 0 0 0 0 0 0 0 0 0
0 0 4 5 11 9 5 6 77 100 98 16 14 2 100 56 100 68 55 30 83 85 98 92 100 13 4 3 0 0 0 0 0 0 0 0 0 0 0 0 0 0 0 0
5 5 5 5 5 97 1 4 6 100 71 99 99 89 100 28 100 46 99 7 3 87 100 52 77 50 18 97 0 0 0 0 0 0 0 0 0 0 0 0 0 0 0 0
18 5 9 5 10 9 69 0 0 0 6 8 91 92 100 100 65 65 85 20 5 5 99 5 5 0 2 94 1 3 0 0 0 0 0 0 0 0 0 0 0 0 0 0
40 64 79 5 25 100 85 50 3 0 0 5 4 27 100 82 100 100 100 93 98 2 6 5 4 0 4 94 100 18 4 0 0 0 0 0 0 0 0 0 0 0 0 0
60 72 85 23 100 69 0 12 86 0 0 4 11 25 100 100 100 100 100 93 2 5 1 0 0 2 0 25 100 100 78 0 0 0 0 0 0 0 0 0 0 0 0 0
95 34 96 100 100 83 2 100 100 64 3 4 89 37 100 100 8 80 100 100 1 0 0 1 0 0 0 0 38 6 4 9 0 0 0 0 0 0 0 0 0 0 0 0
100 100 82 99 100 100 100 100 100 98 12 4 0 77 100 54 98 34 72 5 30 0 0 0 0 0 2 5 5 5 5 5 5 5 2 1 0 0 0 0 0 0 0 0
100 95 100 66 32 98 100 100 100 96 82 22 5 23 100 67 90 44 100 67 73 23 0 0 18 0 7 29 79 23 5 5 5 5 5 5 0 0 0 0 0 0 0 0
100 67 98 100 100 72 89 95 100 99 99 62 3 0 2 90 95 87 38 38 100 75 0 0 6 8 17 17 36 50 44 28 79 5 5 5 2 0 0 0 0 0 0 0
100 100 97 100 100 92 79 58 100 81 34 92 5 5 0 0 24 99 95 10 42 51 1 0 0 4 11 5 73 48 96 52 54 5 5 5 2 0 0 0 0 1 0 0
100 100 100 93 59 98 100 16 100 100 69 97 15 4 0 0 0 31 71 86 30 34 2 0 0 5 2 5 93 98 61 100 72 85 10 5 5 1 0 0 0 2 0 0
36 67 100 100 100 84 60 97 100 100 100 71 100 78 21 1 17 2 82 62 99 70 0 0 0 6 0 19 100 100 100 100 99 100 98 51 54 5 0 0 0 0 0 0
73 100 100 100 100 100 100 100 100 100 100 100 100 100 46 79 31 12 100 68 99 4 18 1 10 26 0 33 99 100 100 100 100 100 91 28 6 5 2 5 27 90 0 10

GFSCGP_prec_cloud_081.txt.gz
Cloud_Cover
0 0 0 0 0 0 0 0 0 0 0 0 0 1 0 3 1 5 100 100 100 94 100 100 20 0 0 0 0 0 0 0 0 0 0 1 3 34 55 8 64 6 6 5
0 0 0 0 0 0 0 0 0 0 0 0 0 0 1 14 26 71 100 100 100 100 93 30 100 33 0 0 0 0 0 0 0 0 0 0 0 21 4 89 18 0 5 5
0 0 0 0 0 0 0 0 0 0 0 0 0 0 5 39 0 96 100 100 100 100 98 71 100 3 0 0 0 0 0 0 0 0 0 0 0 0 0 6 5 0 3 0
0 0 0 0 0 0 0 0 0 0 0 0 0 0 4 94 33 100 100 100 100 100 30 3 99 3 0 0 0 0 0 0 0 0 0 0 0 0 0 0 0 5 0 0
0 0 0 0 0 0 0 0 0 0 0 0 0 0 0 2 100 100 100 100 100 100 100 0 5 0 1 0 0 0 0 0 0 0 0 0 0 0 0 0 1 0 0 0
0 0 0 0 0 0 0 0 0 0 0 0 0 0 0 13 100 71 100 100 100 100 26 0 0 0 0 0 0 0 0 0 0 0 0 0 0 0 0 0 0 0 0 0
0 0 0 0 0 0 0 0 0 0 0 0 0 0 0 4 100 42 100 100 100 100 5 0 0 0 0 0 0 0 0 0 0 0 0 0 0 0 0 0 0 0 0 0
0 0 0 0 0 0 0 0 0 0 0 0 0 0 0 0 93 100 98 26 51 100 98 0 1 0 0 0 0 0 0 0 0 0 0 0 0 0 0 0 0 0 0 0
0 0 0 0 0 3 0 0 0 0 0 0 0 0 0 0 2 100 100 100 92 100 98 1 0 5 0 0 0 0 0 0 0 0 0 0 0 0 0 0 0 0 0 0
0 0 0 0 0 1 0 0 3 0 0 0 0 0 0 0 0 57 100 100 99 70 21 100 2 4 3 0 0 0 0 0 0 0 0 0 0 0 0 0 0 0 0 0
0 0 0 0 0 0 15 10 58 93 32 0 0 0 0 66 0 2 0 96 96 91 89 49 93 53 98 27 2 0 0 0 0 0 0 0 0 0 0 0 0 0 0 0
0 0 0 0 0 34 54 9 56 100 70 68 12 0 41 22 15 0 0 75 50 100 100 94 100 99 100 100 54 0 0 0 0 0 0 0 0 0 0 0 0 0 0 0
0 0 0 0 0 0 86 16 99 100 52 5 5 1 1 99 88 10 11 100 81 78 34 100 100 100 100 100 100 11 0 0 0 0 0 0 0 0 0 0 0 0 0 0
0 0 0 0 0 0 0 35 100 57 98 47 5 0 99 98 100 100 4 1 18 100 86 100 100 100 100 100 100 100 0 0 0 0 0 0 0 0 0 0 0 0 0 0
0 0 0 0 0 0 0 0 64 100 18 46 36 72 68 83 64 93 14 36 63 99 100 100 100 100 100 100 100 100 2 0 0 0 0 0 0 0 0 0 0 0 0 0
5 0 0 0 0 0 0 0 0 1 99 7 84 100 5 26 97 100 65 24 78 24 98 100 100 100 100 100 100 100 99 6 0 0 0 0 0 0 0 0 0 0 0 0
1 4 0 0 0 1 0 0 0 0 0 100 100 100 77 43 7 100 48 87 78 7 9 100 100 100 100 100 100 98 68 100 100 1 0 0 0 0 0 0 0 0 0 0
0 5 5 5 3 2 0 6 27 0 1 10 100 100 60 5 5 99 62 90 88 98 71 100 100 100 100 100 94 100 100 100 100 100 6 10 0 0 0 0 0 0 0 0
56 28 63 5 5 2 0 100 100 97 99 15 0 48 29 2 5 98 67 87 14 10 94 97 97 100 99 10 82 100 100 100 100 100 100 18 0 0 0 0 0 0 0 0
3 5 5 7 85 24 88 100 100 100 100 99 20 0 5 100 8 5 100 100 56 99 58 98 73 28 100 18 5 99 100 100 100 100 100 84 0 0 0 0 0 0 0 0
20 5 31 32 82 59 54 100 100 100 100 100 98 7 5 12 100 26 15 100 100 100 100 99 100 100 100 100 88 58 95 100 100 100 100 100 87 0 0 0 0 0 0 0
97 27 9 100 18 92 45 100 100 100 100 100 84 36 6 4 38 100 98 100 100 100 100 99 100 97 28 39 84 1 10 100 100 100 100 100 15 8 0 0 0 0 0 0
85 71 76 97 32 100 90 6 100 100 100 97 61 96 9 5 10 71 100 100 100 100 100 100 84 25 16 0 0 3 0 2 12 93 100 18 0 5 5 0 0 0 0 0
49 23 67 14 24 96 16 7 31 96 100 100 94 11 64 10 3 1 29 100 96 100 100 100 91 5 4 0 0 0 0 71 53 92 100 98 6 5 5 4 0 0 1 0
49 10 66 47 85 63 5 12 30 17 100 79 100 67 58 3 1 0 37 77 100 100 100 100 100 37 14 0 0 0 3 42 100 81 44 92 96 9 74 5 0 0 0 0
81 62 74 11 17 39 7 49 100 46 99 100 100 88 12 10 18 0 6 8 100 100 100 100 100 98 2 4 3 4 5 32 12 7 74 100 100 17 11 13 7 53 20 2

GFSCGP_prec_cloud_084.txt.gz
Cloud_Cover
0 0 0 0 0 0 0 0 0 0 2 5 3 45 5 5 0 3 89 65 100 100 100 100 100 0 0 0 0 0 0 0 0 0 0 0 0 5 4 5 4 2 0 0
0 0 0 0 0 0 0 0 0 0 0 0 0 32 35 0 0 3 2 92 41 22 100 100 82 100 0 0 0 0 0 0 0 0 0 0 0 5 92 12 0 0 0 0
0 0 0 0 0 0 0 0 0 0 0 0 0 100 100 22 0 2 4 98 100 100 100 100 100 81 0 0 0 0 0 0 0 0 0 0 0 12 2 0 0 0 0 0
0 0 0 0 0 0 0 0 0 0 0 0 0 1 38 97 34 3 5 100 100 100 100 100 82 12 0 0 0 0 0 0 0 0 0 0 0 0 0 0 0 0 0 0
0 0 0 0 0 0 0 0 0 0 0 0 0 0 0 23 22 0 28 100 100 100 100 100 97 0 0 0 0 0 0 0 0 0 0 0 0 0 0 0 0 0 0 0
0 0 0 0 0 0 0 0 0 0 0 0 0 0 0 0 0 0 2 100 94 100 100 100 43 0 5 0 0 0 0 0 0 0 0 0 0 0 0 0 0 0 0 0
0 0 0 0 0 0 0 0 0 0 0 0 0 0 0 0 0 0 0 100 95 100 100 100 47 4 0 0 0 0 0 0 0 0 0 0 0 0 0 0 0 0 0 0
0 0 0 0 0 0 0 0 0 0 0 0 0 0 0 0 0 0 1 100 84 94 100 98 3 5 0 0 0 0 0 0 0 0 0 0 0 0 0 0 0 0 0 0
0 0 0 0 0 0 0 0 0 0 0 0 0 0 0 0 0 0 0 100 100 94 100 98 67 4 0 0 0 0 0 0 0 0 0 0 0 0 0 0 0 0 0 0
0 0 0 0 0 0 0 0 0 0 0 0 0 0 0 0 0 0 1 99 100 99 96 48 97 8 1 0 0 0 0 0 0 0 0 0 0 0 0 0 0 0 0 0
0 0 0 0 0 0 2 0 0 0 0 0 0 0 0 0 0 0 3 100 100 100 87 30 100 93 5 18 1 1 0 0 0 0 0 0 0 0 0 0 0 0 0 0
0 0 0 0 0 0 0 5 1 0 2 24 4 0 0 0 0 0 0 41 22 100 100 100 100 65 9 8 4 0 0 0 0 0 0 0 0 0 0 0 0 0 0 0
0 0 0 0 0 0 0 9 8 0 0 62 94 3 0 0 1 97 40 3 3 99 100 99 96 100 68 14 7 5 5 5 0 0 0 0 0 0 0 0 0 0 0 0
0 0 0 0 0 0 0 8 83 4 5 1 58 8 2 29 5 66 100 100 30 82 29 93 100 98 52 82 82 68 67 100 8 2 0 0 0 0 0 0 0 0 0 0
0 0 0 0 0 0 0 0 4 5 60 4 65 85 5 7 7 43 74 100 100 100 98 100 100 100 100 77 100 100 100 100 100 46 74 0 0 0 0 0 0 0 0 0
0 0 0 0 0 0 0 0 0 0 20 100 84 71 5 1 76 5 75 100 100 87 82 100 100 100 100 100 100 100 100 100 100 100 5 1 0 0 0 0 0 0 0 0
0 0 0 0 0 0 0 0 0 4 0 2 83 27 3 72 12 5 67 99 100 100 100 100 100 100 100 100 100 100 99 100 100 100 100 100 76 58 0 0 0 0 0 0
5 2 0 1 0 0 0 0 0 29 6 1 0 46 56 99 15 5 23 81 100 100 100 96 100 100 100 100 100 100 100 100 100 100 100 100 100 100 100 40 1 0 0 0
5 5 5 5 4 0 0 0 3 4 30 5 11 0 99 93 4 60 97 100 98 99 100 100 100 100 100 100 100 100 100 100 100 100 100 100 100 100 100 100 40 0 0 0
5 5 26 5 5 5 4 0 5 5 5 5 9 31 52 100 95 4 100 100 99 100 100 100 100 92 79 95 99 100 100 100 100 100 100 100 100 100 100 30 100 0 0 0
1 2 3 6 14 36 5 0 0 5 16 24 34 42 42 100 100 81 50 100 100 99 100 100 100 69 97 67 100 100 100 100 100 100 96 100 100 100 100 100 68 4 0 0
5 52 34 17 37 10 5 5 17 19 5 44 100 98 99 100 100 100 76 100 100 100 100 100 100 97 22 80 98 100 100 100 100 87 100 100 100 100 100 99 62 4 0 0
10 3 5 3 4 5 0 1 5 5 5 54 46 100 100 85 50 94 100 100 100 100 100 100 100 100 52 37 97 100 100 100 100 100 100 100 100 100 100 100 100 6 2 0
5 5 6 4 2 0 1 4 5 30 2 5 4 88 100 100 100 52 100 100 100 100 100 100 100 100 100 53 97 100 100 100 100 100 100 100 100 100 100 100 100 83 98 6
5 5 4 5 5 5 1 5 1 14 5 13 5 5 100 92 60 22 83 100 100 100 100 38 90 96 100 100 26 79 100 100 100 100 100 100 100 100 100 100 100 66 90 28
1 4 6 5 2 5 6 5 4 2 16 100 100 75 14 99 100 100 6 11 90 100 51 100 100 100 100 100 62 78 68 100 100 100 100 95 100 100 100 100 100 100 96 29

GFSCGP_prec_cloud_087.txt.gz
Cloud_Cover
0 0 0 0 0 0 0 0 0 4 5 3 2 5 34 100 100 100 100 93 79 99 76 25 86 9 100 0 0 0 0 0 0 0 0 0 0 2 0 1 0 3 3 1
0 0 0 0 0 0 0 0 0 5 5 0 0 0 0 2 93 100 100 96 37 5 5 0 16 5 95 8 0 0 0 0 0 0 0 0 0 0 5 0 0 0 0 0
0 0 0 0 0 0 0 0 0 4 5 2 0 2 2 0 0 7 12 8 5 5 5 4 100 53 48 75 0 0 0 0 0 0 0 0 0 5 2 0 0 0 0 0
0 0 0 0 0 0 0 0 0 0 0 0 0 0 0 0 0 0 4 0 18 70 16 5 16 86 81 100 0 0 0 0 0 0 0 0 0 0 0 0 0 0 0 0
0 0 0 0 0 0 0 0 0 0 0 0 0 0 0 0 0 0 3 5 99 99 72 89 41 92 99 39 0 0 0 0 0 0 0 0 0 0 0 0 0 0 0 0
0 0 0 0 0 0 0 0 0 0 0 0 0 0 0 34 0 0 0 5 42 97 77 72 10 30 89 54 0 0 0 0 0 0 0 0 0 0 0 0 0 0 0 0
0 0 0 0 0 0 0 0 0 0 0 0 0 0 0 0 0 0 0 1 40 86 32 98 100 73 86 0 0 0 0 0 0 0 0 0 0 0 0 0 0 0 0 0
0 0 0 0 0 0 0 0 0 0 0 0 0 0 0 0 0 0 0 0 13 57 100 100 100 45 6 0 0 0 0 0 0 0 0 0 0 0 0 0 0 0 0 0
0 0 0 0 0 0 0 0 0 0 0 0 0 0 0 0 0 0 0 0 0 100 92 96 45 5 4 0 0 0 0 0 0 0 0 0 0 0 0 0 0 0 0 0
0 0 0 0 0 0 0 0 0 0 0 0 0 0 15 35 20 13 35 0 0 100 100 99 94 65 5 0 0 0 1 0 0 0 0 0 0 0 0 0 0 0 0 0
1 0 0 0 0 0 0 0 0 0 0 0 0 1 0 100 92 51 25 48 0 34 100 100 42 63 12 5 1 0 1 0 0 0 0 0 0 0 0 0 0 0 0 0
5 5 0 0 0 0 0 0 0 0 0 0 0 0 0 46 98 0 0 0 1 1 100 100 100 54 99 79 60 1 0 0 0 0 0 0 0 0 0 0 0 0 0 0
0 0 4 0 0 0 0 0 0 0 0 0 0 1 0 0 10 0 0 6 16 5 100 100 100 100 100 100 100 99 100 69 0 0 0 0 0 0 0 0 0 0 0 0
0 0 0 0 0 0 0 0 0 0 4 0 2 6 46 72 95 15 3 96 99 94 69 100 100 100 100 100 100 100 100 92 99 2 0 0 0 0 0 0 0 0 0 1
0 0 0 0 0 0 0 0 0 0 0 3 0 84 100 100 100 99 43 57 100 100 100 100 100 100 100 100 99 100 100 54 35 100 72 0 0 0 0 0 0 0 0 0
0 0 0 1 2 0 0 0 0 0 0 2 5 9 99 100 68 14 40 45 100 100 100 100 100 100 100 100 100 100 100 100 57 74 100 87 100 0 0 0 0 0 0 0
0 0 0 0 0 0 0 0 0 0 0 0 14 65 36 100 24 10 1 12 80 100 100 100 99 100 100 100 100 100 100 100 100 100 100 100 100 88 27 10 0 0 0 0
0 0 0 0 0 0 0 0 0 0 2 1 35 63 100 78 100 100 97 46 29 100 100 100 100 100 100 100 100 100 100 100 100 100 100 100 100 100 100 100 100 99 91 9
0 0 0 1 0 0 0 0 0 0 0 2 1 0 38 98 70 100 100 100 85 96 100 99 100 100 100 100 100 100 100 100 100 100 100 100 100 100 100 100 94 100 100 100
1 2 4 5 5 2 0 0 0 0 2 0 1 0 5 68 89 76 100 98 100 100 100 100 98 100 100 100 100 100 100 100 100 100 100 100 100 100 100 100 100 100 100 100
6 8 3 20 8 5 4 0 0 2 2 1 0 2 5 15 5 5 29 100 98 94 100 93 100 100 100 100 100 100 100 100 100 100 100 100 100 100 90 98 100 100 100 100
2 19 21 14 82 34 0 1 3 2 5 3 2 1 0 0 6 91 42 62 95 23 100 100 100 100 100 100 100 100 100 100 100 100 100 100 100 100 100 100 100 100 100 100
4 2 4 5 4 0 0 0 0 0 0 2 2 0 0 0 0 82 59 88 5 5 5 89 100 100 100 100 100 100 100 100 100 99 100 100 100 100 100 100 100 100 100 100
5 0 2 0 0 0 0 0 0 0 0 0 0 0 0 4 5 5 59 92 87 5 7 87 98 90 97 100 100 100 100 100 100 100 100 100 100 100 100 100 100 100 100 100
2 4 4 3 0 0 0 0 0 0 0 0 0 2 53 67 100 100 82 98 37 70 5 9 100 100 100 100 100 100 100 100 100 100 100 100 100 100 100 100 100 100 100 100
5 5 2 5 3 0 0 0 0 0 0 0 4 6 5 70 100 100 100 100 84 15 7 31 30 42 68 93 100 100 100 100 100 100 100 100 100 100 100 96 100 100 100 100

GFSCGP_prec_cloud_090.txt.gz
Cloud_Cover
0 0 0 0 0 0 0 0 0 0 72 83 100 86 6 17 100 100 54 7 74 62 97 91 5 0 0 0 9 1 0 0 0 0 0 0 0 10 0 0 0 0 1 4
0 0 0 0 0 0 0 0 0 0 5 1 57 58 5 5 100 89 98 5 52 98 77 35 5 0 0 2 1 39 0 0 0 0 0 0 0 0 0 0 0 0 0 0
0 0 0 0 0 0 0 0 0 0 0 0 3 3 2 4 0 52 28 47 8 46 13 59 5 0 0 5 0 77 2 0 0 0 0 0 0 1 0 0 0 0 2 0
0 0 0 0 0 0 0 0 0 0 0 0 0 0 0 0 0 0 5 5 19 58 6 5 0 1 4 4 4 0 0 0 0 0 0 0 0 0 0 0 0 0 0 0
0 0 0 0 0 0 0 0 0 0 0 0 0 0 0 0 0 2 0 34 92 97 14 0 0 0 5 2 16 0 0 0 0 0 0 0 0 0 0 0 0 0 0 0
0 0 0 0 0 0 0 0 0 0 0 0 0 0 0 10 0 0 0 4 22 83 99 11 4 4 0 5 18 7 0 0 0 0 0 0 0 0 0 0 0 0 0 0
0 0 0 0 0 0 0 0 0 0 0 0 0 0 0 0 0 0 0 0 1 5 78 75 11 37 7 1 49 9 0 0 0 0 0 0 0 0 0 0 0 0 0 0
0 0 0 0 0 0 0 0 0 0 0 0 0 0 0 0 0 0 0 0 4 55 16 80 67 77 4 22 2 0 0 0 0 0 0 0 0 0 0 0 0 0 0 0
0 0 0 0 0 0 0 0 0 0 0 0 0 0 0 0 0 1 10 21 18 80 53 96 45 85 10 5 0 0 0 0 0 0 0 0 0 0 0 0 0 0 0 0
0 0 0 0 0 0 0 0 0 0 0 0 0 0 62 17 57 64 88 100 99 5 5 93 76 32 26 5 1 0 1 0 0 0 0 0 0 0 0 0 0 0 0 0
0 0 0 0 0 0 0 0 0 0 0 0 0 34 1 71 100 99 100 100 100 100 68 20 93 59 100 100 74 15 0 1 0 0 0 0 0 0 0 0 0 0 0 0
79 3 0 0 0 0 0 0 0 0 0 0 0 0 0 96 100 100 100 100 100 100 100 98 76 94 100 100 100 100 29 72 24 0 3 11 8 0 0 0 0 0 0 0
100 40 2 0 0 0 0 0 0 0 0 0 0 11 65 100 100 100 93 100 100 100 100 99 91 100 100 100 100 100 42 8 20 0 5 1 0 0 0 0 0 0 0 0
100 100 16 0 0 0 0 0 0 0 0 0 0 50 100 100 100 100 100 100 92 100 100 100 100 100 100 100 96 97 94 47 4 2 4 20 7 0 0 0 0 0 0 0
89 6 7 3 0 0 0 0 0 0 0 0 0 70 66 100 100 100 100 98 26 50 100 100 100 100 100 100 100 100 100 100 97 57 6 4 0 0 0 0 0 0 0 0
79 100 100 13 0 0 0 0 0 0 0 0 0 13 100 100 98 1 21 75 100 40 1 100 100 100 100 100 100 100 100 100 100 100 37 4 45 24 0 0 0 0 0 0
0 4 16 86 29 2 0 0 0 0 0 0 10 22 80 100 96 1 2 19 63 69 60 7 99 100 100 100 100 97 100 100 96 100 45 59 11 24 22 5 0 0 0 0
0 0 0 3 5 3 0 0 0 0 0 0 0 0 6 31 69 95 85 0 0 0 6 31 89 100 100 100 100 100 100 100 100 100 96 83 100 93 100 100 85 0 25 78
0 0 0 0 0 0 0 0 0 0 50 8 0 14 97 98 8 1 6 6 0 0 0 0 70 100 100 100 100 100 100 100 100 100 100 100 100 100 100 100 100 100 100 100
0 2 2 4 0 0 0 0 0 0 12 0 0 0 0 4 5 5 4 74 21 12 0 4 5 100 100 100 100 100 100 100 100 100 100 100 100 100 100 100 100 100 100 100
6 19 1 18 4 1 0 0 0 2 1 0 0 0 0 0 0 0 2 5 5 7 7 8 46 65 100 100 68 100 100 100 100 100 100 100 100 100 100 100 100 100 100 100
2 12 40 47 22 5 0 0 1 0 0 0 0 0 0 0 0 0 0 0 1 5 5 11 5 5 18 93 98 98 100 100 100 99 100 100 100 100 100 100 97 95 100 100
3 3 5 5 4 0 0 0 0 0 0 0 0 0 0 0 0 0 0 0 0 0 5 31 55 5 5 8 95 100 84 85 100 100 96 100 100 100 100 100 100 100 100 100
0 0 0 4 5 0 0 0 0 0 0 0 0 0 0 0 0 0 0 0 0 11 0 4 5 5 5 1 98 97 97 100 96 100 96 100 100 100 100 100 100 100 100 95
4 0 0 0 0 0 0 0 0 0 0 0 0 0 0 2 0 3 7 63 28 16 20 19 3 5 5 4 16 20 93 100 100 100 98 98 100 100 100 100 100 100 100 100
11 5 2 5 0 0 0 0 0 0 0 0 0 0 0 0 4 5 5 55 62 14 75 100 64 2 5 5 13 96 100 100 86 100 100 100 100 100 100 100 100 100 100 100

GFSCGP_prec_cloud_093.txt.gz
Cloud_Cover
0 0 0 0 0 0 0 0 0 3 45 97 100 100 100 100 100 100 100 98 5 5 6 5 20 17 70 1 4 5 30 0 0 0 0 0 0 0 1 0 0 0 0 0
0 0 0 0 0 0 0 0 0 0 4 34 100 100 100 100 100 100 95 96 38 7 5 5 93 8 100 9 0 5 5 0 0 0 0 0 0 0 0 0 0 4 0 0
0 0 0 0 0 0 0 0 0 0 0 5 89 96 100 92 69 43 54 64 38 24 4 3 5 28 68 32 0 0 56 0 0 0 0 0 0 0 0 0 0 5 1 0
0 0 0 0 0 0 0 0 0 0 0 1 28 81 91 47 44 95 99 87 92 53 72 8 85 7 5 2 0 0 37 0 0 0 0 0 0 0 0 0 0 0 0 1
0 0 0 0 0 0 0 0 0 0 0 0 11 58 7 56 93 65 53 68 91 100 79 16 4 0 0 0 0 4 21 3 0 0 0 0 0 0 0 0 0 0 0 0
0 0 0 0 0 0 0 0 0 0 0 0 0 4 0 2 12 5 4 5 5 35 100 80 1 0 0 0 0 0 19 3 0 0 0 0 0 0 0 0 0 0 0 0
0 0 0 0 0 0 0 0 0 0 0 0 0 0 27 62 73 99 27 2 5 11 66 63 5 0 0 0 0 0 17 3 0 0 0 0 0 0 0 0 0 0 0 0
0 0 0 0 0 0 0 0 0 0 0 0 0 0 89 24 56 62 61 46 7 70 88 97 14 18 3 25 5 15 23 5 0 0 0 0 0 0 0 0 0 0 0 0
0 0 0 0 0 0 0 0 0 0 0 0 0 0 0 0 1 36 100 100 100 73 94 100 100 53 28 77 5 1 45 6 0 14 9 0 0 0 0 0 0 0 0 0
0 0 0 0 0 0 0 0 0 0 0 0 0 0 45 50 31 41 94 100 100 99 62 97 99 15 5 21 44 4 52 5 1 22 53 11 0 0 0 0 0 0 0 0
3 0 0 0 0 0 0 0 0 0 0 0 0 16 100 100 100 100 100 100 100 100 100 100 100 60 16 100 84 65 99 85 10 3 81 70 0 0 0 0 0 0 0 0
5 3 0 0 0 0 0 0 0 0 0 0 0 17 100 100 100 100 100 100 100 100 100 100 100 100 90 99 100 100 100 100 39 55 100 100 87 34 0 0 0 0 0 0
63 5 4 0 0 0 0 0 0 0 0 0 0 1 100 100 100 100 100 100 100 100 100 100 100 100 100 93 96 100 96 100 6 100 100 100 100 94 24 0 0 0 0 0
87 32 5 3 0 0 0 0 0 0 0 0 0 62 100 100 100 100 100 95 87 96 100 100 100 100 100 100 100 100 100 93 17 12 100 74 100 99 100 80 18 0 0 0
53 5 5 5 2 0 0 0 0 0 0 0 0 79 100 100 100 100 99 69 98 63 45 31 92 100 100 100 100 100 100 100 100 38 2 18 33 66 41 60 37 32 3 0
6 5 5 5 5 5 0 0 0 0 0 0 46 99 100 100 100 16 34 96 98 34 91 32 3 68 72 100 100 100 100 100 100 94 56 35 13 0 0 0 0 9 1 0
82 10 5 2 4 5 5 1 0 0 0 0 0 62 100 63 77 79 0 0 0 51 6 0 11 0 35 99 99 61 100 100 100 100 99 96 55 52 31 2 0 0 0 0
0 1 5 5 5 3 0 1 0 0 0 0 0 1 54 40 100 89 0 0 0 0 0 3 0 0 0 1 96 33 52 100 100 100 100 100 100 100 97 86 87 17 0 0
0 0 0 0 2 1 0 2 0 0 9 0 0 0 0 0 0 2 0 0 0 0 0 0 0 0 0 0 4 6 36 74 97 100 100 100 100 100 100 100 76 100 92 26
0 0 0 0 0 0 0 0 0 0 0 0 0 0 0 0 0 21 0 0 0 1 0 0 0 0 0 0 0 2 4 13 42 99 100 100 100 100 100 100 100 100 99 100
5 5 4 0 0 0 0 0 0 0 0 0 0 0 0 0 0 0 0 0 0 0 0 3 1 0 0 0 0 0 0 31 7 37 37 87 94 100 100 100 98 100 100 100
0 0 3 2 5 0 0 0 1 0 0 0 0 0 0 0 0 0 0 0 0 0 0 0 0 0 2 0 0 0 0 36 68 20 26 68 100 100 100 100 100 97 100 100
1 0 4 2 0 0 0 0 0 0 0 0 0 0 0 0 0 0 0 0 0 0 0 0 0 0 4 4 0 0 0 13 16 70 63 77 98 100 100 97 100 100 100 100
0 0 2 0 0 0 0 0 0 0 0 0 0 0 0 0 0 0 0 0 0 0 0 0 0 0 0 2 5 1 0 0 5 23 50 96 100 100 100 100 76 66 92 100
28 4 0 0 0 0 1 5 5 2 0 0 0 0 0 0 0 0 0 0 2 0 0 0 1 0 0 0 0 5 2 0 0 56 28 51 93 89 100 100 100 100 96 100
92 85 6 1 5 0 0 0 3 5 5 4 0 0 0 0 0 0 0 2 6 11 34 35 23 27 22 0 0 0 3 1 0 1 12 39 62 70 98 100 95 100 100 95

GFSCGP_prec_cloud_096.txt.gz
Cloud_Cover
0 0 0 0 0 4 5 5 4 5 31 68 100 100 100 100 100 98 90 100 100 42 1 0 0 33 11 8 4 0 4 0 0 0 0 5 34 63 0 0 0 0 27 1
0 0 0 0 0 0 0 0 2 4 11 79 100 99 100 65 100 100 86 100 100 100 39 2 0 2 5 6 5 1 0 0 0 1 31 34 2 1 49 16 2 0 0 0
0 0 0 0 0 0 0 4 1 3 6 89 100 99 84 82 93 100 100 100 100 100 87 3 0 2 5 5 5 0 0 5 0 11 9 17 4 2 8 0 5 0 2 6
0 0 0 0 0 0 0 2 2 0 2 61 83 100 99 88 96 99 99 100 100 100 100 93 29 5 2 5 1 0 0 2 0 0 5 0 18 48 98 56 7 2 0 22
0 0 0 0 0 0 35 0 0 0 0 0 48 100 100 70 97 89 69 74 96 98 93 100 56 23 0 0 0 0 0 0 0 0 0 0 7 0 0 89 1 16 1 0
0 0 0 0 0 0 1 0 0 0 0 0 15 92 5 55 98 99 100 84 100 26 34 44 100 90 0 0 0 0 0 0 0 0 0 0 10 2 2 32 5 18 3 4
0 0 0 0 1 0 0 0 0 0 0 0 0 77 64 79 80 72 94 73 32 19 84 90 82 81 26 0 0 0 0 1 2 0 0 0 0 5 0 6 1 99 54 35
0 0 0 0 0 0 0 0 0 0 0 0 0 7 72 20 34 65 100 100 90 90 16 100 96 4 0 0 0 0 0 0 0 0 0 0 0 0 0 0 8 1 52 12
5 0 0 0 0 0 0 0 2 4 5 2 0 1 21 37 37 28 100 100 100 99 98 80 94 76 18 0 0 0 1 0 0 0 0 0 0 0 0 0 0 0 18 48
0 3 0 0 0 0 0 0 0 0 2 1 1 0 23 72 83 100 100 100 100 100 75 97 84 99 92 20 0 0 32 87 59 88 29 44 1 0 0 0 0 0 0 0
0 1 0 0 0 0 0 0 0 0 0 0 5 15 91 84 100 100 100 100 100 100 94 93 98 100 100 95 35 15 61 83 86 100 75 17 72 2 0 0 0 0 0 0
69 3 4 0 0 0 0 0 0 0 2 0 23 83 98 55 98 100 100 100 100 100 100 100 83 100 90 83 99 100 89 35 88 51 70 45 69 64 45 0 0 0 0 0
100 54 2 0 0 0 0 0 0 0 0 5 1 67 100 74 74 100 100 100 100 100 100 100 99 100 100 90 94 84 97 100 96 30 25 41 12 60 32 61 10 0 0 0
75 84 90 39 2 0 0 0 0 0 2 5 4 78 100 99 92 83 100 100 100 100 100 100 100 100 100 100 100 100 97 100 100 100 87 23 20 3 29 0 99 65 2 0
54 36 20 20 5 0 0 0 0 0 0 2 67 34 100 100 98 97 94 86 90 86 90 80 97 100 76 98 100 100 100 100 100 100 100 98 33 29 8 6 7 68 17 0
5 5 59 79 4 4 0 0 0 0 0 0 19 100 100 98 93 95 54 64 43 16 0 0 6 8 44 47 39 99 100 100 100 100 100 100 99 100 97 62 70 18 0 0
40 4 5 54 90 87 12 5 3 0 0 0 13 8 99 71 100 64 45 2 4 0 0 0 0 0 0 3 4 70 78 100 100 100 100 100 96 76 52 84 100 83 58 26
5 5 5 0 41 97 23 5 5 5 2 0 5 28 40 83 83 1 0 0 0 0 0 0 0 0 0 0 0 0 2 90 99 100 100 100 100 96 69 85 30 44 91 99
0 0 2 5 4 0 0 12 64 76 20 5 2 22 22 2 0 20 0 0 0 0 0 0 0 0 0 0 0 0 0 5 86 25 87 100 100 100 89 87 98 96 98 58
0 0 2 1 0 4 0 0 0 1 5 5 5 2 0 0 0 18 0 0 0 0 0 0 0 0 0 0 0 0 0 0 0 0 14 100 86 100 100 100 98 100 100 100
5 5 5 5 2 2 0 0 4 5 1 0 4 5 5 5 1 0 0 0 0 0 0 0 0 0 0 0 0 0 0 0 0 0 0 55 100 100 100 100 100 100 100 100
8 32 72 54 59 44 0 0 0 0 0 0 0 0 0 0 0 0 0 0 0 0 0 0 0 0 0 0 0 0 0 0 0 0 0 1 97 100 100 100 88 100 100 100
4 6 28 9 87 6 0 1 2 1 0 0 0 0 0 0 0 0 0 0 0 0 0 0 0 0 0 0 0 0 0 0 0 0 0 0 11 100 100 100 82 67 78 100
0 2 0 0 0 0 0 0 0 0 0 0 0 0 0 0 0 0 3 0 4 2 1 0 0 0 0 0 0 0 0 0 0 0 0 0 0 5 41 96 100 57 93 22
38 5 2 1 1 1 5 3 0 0 0 0 0 0 0 0 0 0 0 1 5 5 5 5 2 2 1 0 0 0 0 0 0 0 0 0 0 0 0 3 5 10 74 100
100 32 5 5 4 1 3 1 0 0 0 0 0 0 1 0 0 0 0 5 5 5 5 5 0 7 9 1 4 0 9 3 0 0 0 0 0 0 0 0 3 13 82 88

GFSCGP_prec_cloud_099.txt.gz
Cloud_Cover
0 0 0 0 0 4 81 70 100 100 12 13 97 100 100 94 100 100 67 96 100 100 100 43 37 0 1 6 14 0 0 3 7 0 5 100 98 1 93 42 12 39 12 12
0 0 0 0 0 17 63 96 100 80 49 100 100 99 100 100 100 100 100 100 90 100 100 68 100 5 0 3 9 3 0 0 5 0 74 82 47 36 100 58 17 90 8 0
0 0 0 0 0 0 24 98 52 4 89 100 100 53 100 100 100 100 100 100 98 100 100 98 100 25 0 0 42 5 0 1 1 96 84 39 20 31 15 10 41 29 45 4
0 0 0 0 4 0 4 11 86 69 5 69 59 100 100 55 58 81 97 100 100 100 100 100 100 42 12 0 0 0 0 2 0 18 20 1 0 30 99 7 7 7 79 88
0 0 0 0 3 0 8 48 26 4 2 72 88 96 100 95 52 93 74 96 100 100 69 100 100 100 38 8 0 0 0 0 4 0 55 0 93 95 100 97 23 10 2 71
2 0 0 1 5 2 89 94 7 5 5 80 16 12 88 100 100 100 95 89 62 92 54 44 100 100 92 17 4 0 0 0 0 0 0 0 52 100 92 31 14 0 0 6
29 7 7 5 18 4 98 23 5 1 0 4 22 17 100 97 55 17 37 88 100 99 100 100 9 100 98 30 0 2 0 0 0 0 0 0 0 1 21 15 23 96 49 88
6 7 21 0 24 44 5 5 2 2 0 0 83 100 97 100 94 100 47 40 33 13 94 86 84 47 99 100 13 0 0 0 0 0 0 0 0 0 0 20 97 25 100 95
98 82 3 0 11 3 26 1 8 94 13 6 48 6 98 84 55 97 100 100 100 49 82 46 27 28 100 76 25 0 0 0 0 0 0 0 0 0 0 30 4 15 0 100
100 67 0 0 0 0 0 3 36 16 99 86 69 0 1 99 72 96 100 100 100 100 13 36 99 82 100 97 60 94 1 0 1 2 6 1 0 2 0 0 0 0 9 0
86 90 10 0 0 0 0 0 8 85 94 100 100 70 21 2 10 96 100 100 100 100 100 99 74 94 98 65 83 37 45 18 13 2 14 9 100 13 4 0 0 0 0 0
4 10 13 2 0 0 0 3 5 5 5 79 100 86 100 90 32 36 100 100 100 100 100 83 74 34 90 27 100 100 92 13 90 0 94 14 20 81 14 7 2 0 0 0
86 13 100 2 0 0 0 0 0 5 78 98 59 89 100 100 100 88 84 100 99 100 76 62 49 33 66 100 100 92 25 28 55 100 49 85 52 81 25 27 52 11 0 0
100 100 93 100 64 1 0 0 0 4 5 56 72 97 98 100 86 79 79 100 100 99 100 95 98 96 82 97 100 100 100 94 58 82 100 100 85 98 29 16 44 63 39 0
78 100 100 62 0 0 5 0 0 0 0 72 98 34 66 65 100 100 100 100 100 100 100 100 100 100 100 100 100 99 100 100 88 74 93 100 100 100 100 53 13 2 7 12
100 100 80 100 58 2 0 0 0 0 0 68 6 92 98 100 99 96 100 100 100 88 52 37 92 100 96 99 100 95 100 100 100 100 88 100 100 100 70 16 98 66 21 7
77 100 100 90 99 91 6 6 0 0 0 1 4 0 34 79 95 90 69 97 77 41 9 0 0 1 2 14 6 6 67 100 100 100 100 100 100 100 100 87 47 90 100 98
30 4 93 100 76 89 79 15 6 1 0 0 15 12 0 77 58 56 83 54 4 0 0 0 0 0 0 0 0 0 68 88 100 100 100 100 99 100 100 100 91 18 17 55
100 98 68 7 12 100 12 7 44 100 42 63 30 99 93 100 100 100 72 0 0 0 0 0 0 0 0 0 0 0 0 0 42 58 14 23 90 100 100 100 100 66 92 54
0 0 3 97 10 8 84 22 57 100 10 86 32 100 100 97 68 86 11 0 0 0 0 0 0 0 0 0 0 0 0 0 0 2 19 9 4 91 97 100 100 96 77 96
0 1 0 0 18 71 0 3 5 90 98 18 39 8 71 64 25 55 1 0 0 0 0 0 0 0 0 0 0 0 0 0 0 0 0 4 16 4 76 100 100 99 85 67
15 52 69 36 56 100 0 0 2 4 4 57 94 73 82 11 20 0 0 0 0 0 0 0 0 0 0 0 0 0 0 0 0 0 0 0 0 1 0 12 100 100 98 79
4 41 76 98 98 7 8 5 0 0 1 3 3 6 24 96 88 6 0 0 0 0 0 0 0 0 0 0 0 0 0 0 0 0 0 0 0 0 0 0 2 100 100 100
32 16 5 5 7 4 5 1 2 2 5 0 4 2 0 0 3 8 5 5 5 0 0 0 0 0 0 0 0 0 0 0 0 0 0 0 0 0 0 0 0 3 70 100
82 82 99 3 13 5 5 5 5 0 2 2 0 0 0 0 0 0 1 4 5 5 5 0 0 0 0 1 0 0 0 0 0 0 0 0 0 0 0 0 0 0 18 54
82 5 58 95 96 64 7 16 5 5 2 0 0 0 0 0 0 0 0 5 5 5 2 3 3 1 0 0 0 4 17 13 7 0 0 0 0 0 0 0 0 0 1 5

GFSCGP_prec_cloud_102.txt.gz
Cloud_Cover
0 0 0 0 0 0 58 68 100 85 100 2 0 30 100 100 100 100 92 100 100 76 97 3 13 3 12 0 0 0 0 0 0 0 33 76 23 2 90 40 29 91 8 0
0 0 0 0 0 0 92 100 43 68 88 3 0 61 100 100 100 100 100 100 98 94 77 44 1 38 1 1 0 0 0 0 0 0 84 90 100 93 80 68 0 0 0 0
0 0 0 0 0 1 5 98 8 86 65 0 20 95 100 100 100 100 100 100 96 100 92 4 2 24 5 5 0 0 0 0 0 0 37 100 37 93 34 47 0 0 4 0
0 0 0 0 0 0 0 8 98 100 5 4 0 100 100 100 100 100 100 100 100 31 100 71 2 94 5 4 0 0 0 0 0 49 0 2 100 100 37 99 75 0 89 5
0 0 0 0 0 0 4 100 100 100 25 5 52 100 100 70 100 100 100 100 100 72 39 100 91 58 58 0 0 0 0 0 0 0 17 1 99 100 6 97 5 4 13 61
0 0 0 0 4 4 4 29 88 16 7 67 5 3 38 100 99 76 100 100 99 6 91 14 100 54 100 27 5 0 0 0 0 0 0 0 24 37 81 74 1 0 0 3
0 2 2 0 4 4 19 10 93 87 5 5 66 3 4 100 100 97 100 59 81 80 38 100 99 100 93 55 5 0 0 1 0 0 0 0 12 63 100 100 2 86 0 35
0 7 5 4 5 37 5 50 86 26 20 4 100 39 91 28 100 96 98 99 100 100 100 100 49 33 87 98 62 0 0 0 0 0 0 0 0 0 31 45 16 11 19 11
65 58 15 48 27 41 21 5 12 94 4 52 71 19 31 100 97 100 100 100 44 85 99 100 100 55 100 100 100 100 42 0 0 0 0 0 0 0 0 10 2 1 98 100
94 57 93 0 2 15 71 66 0 58 88 100 12 0 12 28 31 100 100 100 34 10 25 26 100 69 100 100 100 100 100 80 57 19 0 0 0 0 0 0 0 2 100 100
100 32 100 4 0 0 2 1 5 76 86 100 98 14 98 42 24 70 100 82 68 47 95 100 100 50 83 100 100 100 100 100 100 57 1 0 0 0 0 0 0 0 4 60
100 98 100 5 0 0 0 4 1 5 5 100 72 99 99 46 100 75 100 87 100 78 98 100 100 97 100 100 100 100 100 100 100 100 29 75 0 0 0 0 0 0 0 0
100 54 100 55 0 0 0 0 6 14 24 98 100 41 90 100 93 75 78 87 18 61 91 98 100 100 98 98 100 100 100 100 100 100 100 100 84 5 0 0 0 0 0 0
100 100 99 100 89 12 0 0 0 5 21 92 100 91 91 88 88 100 92 52 56 75 40 96 94 97 100 94 100 100 100 100 100 100 100 100 100 88 5 3 1 0 0 0
100 100 100 58 93 2 1 0 1 0 0 100 100 77 97 100 100 100 63 74 72 53 100 47 71 58 8 13 69 100 100 100 100 100 100 100 95 33 2 5 5 5 3 0
100 100 100 83 56 31 0 5 5 0 0 92 0 83 65 81 100 100 100 100 48 20 56 98 8 59 74 3 8 74 100 100 100 100 100 100 100 94 51 96 79 5 4 0
90 100 100 100 100 97 32 2 4 0 0 80 0 1 2 92 99 100 100 100 75 0 0 0 60 91 24 70 41 52 94 100 100 100 100 100 100 95 100 100 67 99 72 18
100 91 98 100 100 100 24 47 1 0 4 43 2 4 24 84 100 100 100 100 51 5 0 0 0 0 0 0 30 28 64 100 100 100 92 90 79 83 84 100 100 100 100 100
6 100 100 100 100 100 100 100 98 79 10 73 0 26 69 100 100 100 100 94 25 0 0 0 0 0 0 0 0 0 2 100 100 100 100 98 98 99 94 100 100 100 100 100
2 97 58 100 100 100 100 61 100 100 100 99 0 57 5 100 79 52 33 20 0 0 0 0 0 0 0 0 0 0 0 0 44 98 89 12 5 95 100 100 100 100 100 100
3 1 3 18 81 100 94 12 99 100 100 91 45 5 5 32 34 96 84 0 0 0 0 0 0 0 0 0 0 0 0 0 0 0 0 12 3 92 94 74 98 81 99 100
67 33 21 5 11 99 28 40 100 100 100 100 94 100 100 94 90 35 100 12 0 0 0 0 0 0 0 0 0 0 0 0 0 0 0 0 0 0 85 100 99 12 21 74
0 44 91 99 88 8 7 6 5 44 100 100 98 97 24 64 23 12 4 8 3 0 0 0 0 0 0 0 0 0 0 0 0 0 0 0 0 0 0 0 0 0 0 12
51 2 4 5 95 52 10 7 5 1 5 5 5 4 23 84 48 2 5 4 2 0 0 0 0 0 0 0 0 0 0 0 0 0 0 0 0 0 0 0 0 0 0 0
99 100 61 3 3 10 4 40 6 4 3 5 4 3 0 0 5 9 5 5 14 3 0 1 0 0 0 0 0 0 0 0 0 0 0 0 0 0 0 0 0 0 0 0
100 88 100 100 83 15 37 53 5 5 5 5 5 5 5 5 4 5 5 5 7 64 58 5 5 3 0 0 0 1 0 3 3 1 0 0 0 0 0 0 0 0 0 0

GFSCGP_prec_cloud_105.txt.gz
Cloud_Cover
0 0 0 0 0 0 0 7 90 100 41 6 54 13 95 88 63 100 100 100 84 100 94 19 2 0 11 96 0 43 4 1 1 16 55 1 93 3 1 0 68 0 19 1
0 0 0 0 0 0 2 100 44 90 100 100 100 25 83 98 100 100 100 100 96 78 81 1 5 3 2 21 90 0 0 2 0 23 100 51 100 6 3 5 5 0 0 0
0 0 0 0 0 1 4 91 12 100 92 100 100 76 77 98 100 100 100 100 100 100 100 85 20 4 5 5 41 1 0 0 0 0 26 100 100 95 33 15 5 0 0 0
0 0 0 0 0 1 5 73 31 94 69 100 100 25 24 100 100 100 100 100 100 100 100 100 74 3 6 5 5 5 2 0 0 0 1 100 100 100 59 25 79 4 0 0
0 0 0 0 0 1 5 29 82 29 49 100 100 18 4 91 100 100 100 100 100 100 100 100 35 5 73 38 5 0 2 0 0 0 1 5 82 46 70 98 50 4 0 0
0 0 0 0 0 1 47 100 34 23 36 89 100 4 84 76 64 100 100 100 100 100 100 88 29 7 4 3 5 5 5 0 0 0 0 0 35 12 73 98 100 3 0 54
0 0 0 0 0 0 29 100 100 97 39 100 94 5 94 97 70 100 100 100 100 100 97 100 97 90 3 3 5 5 1 24 6 3 36 5 0 88 100 100 81 16 4 100
0 0 0 0 0 0 64 99 64 28 62 100 94 94 61 95 99 100 100 100 100 100 100 94 86 100 99 74 5 4 56 100 100 100 100 89 1 42 100 94 1 82 11 100
26 9 4 0 0 0 74 17 39 64 97 96 2 99 100 100 100 100 100 100 100 100 100 96 68 100 100 52 21 28 93 100 100 100 100 99 6 0 0 0 0 0 100 100
94 0 25 94 11 2 0 4 86 27 2 90 5 40 72 99 100 98 100 100 100 100 100 84 100 100 100 100 86 94 60 100 100 100 100 91 20 3 1 0 0 0 22 100
34 46 14 99 23 0 3 0 4 5 5 4 58 75 6 41 100 100 100 100 100 100 100 100 100 100 100 100 100 100 96 100 100 100 100 100 100 90 18 5 2 0 0 15
3 64 6 5 94 1 5 4 0 0 5 77 100 93 100 54 12 99 100 100 100 100 100 100 100 100 100 100 100 100 100 100 100 100 100 99 100 100 98 94 2 5 0 0
34 100 98 100 6 0 0 86 6 0 62 100 100 81 100 100 100 97 100 100 100 100 100 93 68 96 100 100 100 100 100 100 100 100 100 100 100 100 100 100 100 6 5 5
100 75 100 86 37 3 0 0 87 0 57 100 86 90 100 100 100 100 98 100 100 100 100 95 34 51 100 100 92 98 100 100 100 100 100 100 100 100 99 100 100 100 15 20
100 100 100 100 89 5 0 0 2 2 24 99 6 7 52 100 100 100 100 94 85 100 100 100 91 65 46 58 85 86 100 100 100 100 100 100 100 100 100 47 86 100 52 5
98 100 100 100 39 15 4 0 0 0 4 87 0 24 56 57 75 67 89 98 100 100 100 100 96 100 100 100 75 100 100 100 100 100 100 100 100 100 100 100 100 100 9 5
100 100 100 96 89 9 5 1 0 2 100 0 0 0 4 9 79 48 91 100 91 74 100 100 22 17 79 100 100 100 100 100 100 100 100 100 100 100 100 100 100 100 100 86
44 100 100 100 100 41 83 33 5 9 99 2 0 0 5 31 16 87 100 100 88 26 1 63 77 0 0 14 35 81 100 81 89 79 100 100 100 100 100 100 100 100 100 100
100 98 100 100 100 83 100 100 100 100 100 10 0 0 53 36 47 100 100 90 0 0 0 0 0 0 0 0 0 6 0 1 13 16 93 100 100 100 100 100 100 100 100 100
3 89 100 100 100 80 100 98 32 79 44 14 0 0 0 81 90 87 100 100 3 0 0 0 0 0 0 0 0 0 0 0 0 0 3 95 100 100 100 100 100 98 93 100
1 98 48 74 99 96 59 1 20 100 100 64 54 0 2 0 0 0 0 34 6 0 0 0 0 0 0 0 0 0 0 0 0 0 0 9 94 100 100 100 100 100 68 100
5 5 95 25 78 100 8 100 96 100 100 11 12 91 17 0 0 15 40 34 4 0 0 0 0 0 0 0 0 0 0 0 0 0 0 0 16 100 100 98 100 100 36 100
3 2 4 6 15 9 95 8 65 100 100 87 5 1 90 49 28 87 7 97 9 0 0 0 0 0 0 0 0 0 0 0 0 0 0 0 0 20 100 100 100 100 100 99
0 0 0 5 17 56 1 29 100 100 98 42 5 4 12 93 51 95 98 14 3 0 0 0 0 0 0 0 0 0 0 0 0 0 0 0 0 0 14 96 100 100 100 100
87 2 2 6 64 32 10 5 1 32 100 100 52 5 4 15 10 69 27 5 5 3 0 0 0 0 0 0 0 0 0 0 0 0 0 0 0 0 0 0 0 0 0 0
69 73 12 98 9 5 10 31 25 4 0 5 50 89 23 23 19 5 5 1 3 3 4 4 0 0 0 0 0 0 0 0 0 0 0 3 0 0 0 0 0 0 0 0

GFSCGP_prec_cloud_108.txt.gz
Cloud_Cover
0 0 0 4 5 5 9 85 8 60 96 100 64 14 21 99 100 100 100 100 100 93 61 5 5 5 5 47 45 0 0 0 5 31 100 15 28 5 5 5 0 0 0 0
0 0 0 0 5 5 5 16 15 19 20 84 91 30 45 100 93 100 100 100 100 100 99 46 55 100 5 4 78 82 5 0 0 17 100 50 61 9 9 42 1 4 4 0
0 0 0 0 0 2 5 5 5 5 94 98 100 100 56 95 97 100 100 100 100 100 100 99 88 100 0 6 5 62 22 0 0 8 100 100 99 48 61 68 91 0 2 0
0 0 0 0 0 0 0 6 74 38 5 100 100 23 100 32 48 99 100 100 100 100 39 83 100 84 53 38 22 5 3 0 0 0 34 16 76 77 97 100 100 1 16 5
0 0 0 0 0 0 5 97 87 83 30 100 100 66 93 5 77 100 100 100 100 100 89 94 100 87 65 29 17 3 1 5 3 5 30 75 100 70 100 100 99 1 86 5
0 0 0 0 0 1 87 100 78 31 60 100 100 23 100 10 98 100 100 100 99 100 100 100 98 75 80 60 2 0 3 95 100 100 100 5 98 89 100 75 17 3 28 27
0 0 0 0 0 17 10 98 21 10 3 58 21 96 100 48 12 97 100 100 100 100 97 100 100 100 98 7 5 3 5 80 100 100 100 88 49 98 100 62 8 20 11 11
0 0 0 0 0 2 5 90 99 2 5 39 24 99 99 32 12 64 83 100 100 100 100 100 100 100 95 56 100 99 52 5 98 100 100 100 100 80 75 96 7 4 4 66
0 0 0 0 0 1 93 100 22 5 62 94 19 100 100 67 10 55 99 100 100 100 100 100 100 100 5 27 94 100 63 65 36 100 100 100 100 95 66 87 3 2 14 95
4 0 0 0 0 0 3 48 47 43 99 100 28 66 100 100 66 89 95 100 100 100 100 100 100 100 90 31 100 100 99 98 93 20 97 100 100 100 100 100 88 100 58 98
23 0 0 0 2 0 0 2 97 81 91 100 96 98 100 100 74 100 100 100 100 100 100 100 100 100 100 100 100 100 100 32 68 100 60 84 100 100 100 100 100 100 81 74
4 2 3 5 9 0 4 0 84 100 100 100 84 97 100 100 99 100 100 100 100 100 100 100 100 100 100 100 100 100 100 100 100 100 100 99 100 99 100 100 100 100 100 74
9 5 24 5 30 18 1 5 8 83 100 85 58 92 100 84 31 86 100 100 100 100 100 100 100 100 100 100 100 100 100 100 100 100 100 100 100 100 100 100 100 100 100 100
58 4 62 34 5 20 28 72 29 99 53 100 68 100 100 100 100 72 95 100 100 100 100 100 100 100 100 100 100 100 100 100 100 100 100 100 100 99 84 100 99 100 100 100
44 4 65 86 17 2 39 3 5 100 42 98 65 46 93 100 82 98 100 100 100 100 100 100 100 100 100 100 100 100 100 100 92 100 98 100 100 100 100 100 100 100 100 100
63 70 100 86 100 26 5 0 0 40 89 5 27 100 61 100 100 98 100 100 100 100 100 100 100 100 100 100 100 100 75 87 10 30 100 100 100 100 100 100 100 100 100 100
75 94 100 65 100 100 99 13 11 59 6 77 24 14 81 100 100 98 100 100 100 100 100 100 100 100 100 100 100 68 48 39 42 16 100 100 100 100 100 100 100 100 100 100
62 94 100 100 96 100 98 100 97 50 0 0 0 0 0 89 100 100 100 100 99 100 100 100 91 99 100 100 100 96 100 100 41 77 96 99 100 100 100 100 100 100 100 100
19 15 100 100 88 100 98 96 100 97 0 0 2 0 0 12 100 100 100 100 92 100 100 100 78 100 100 100 100 100 100 100 100 100 100 88 100 100 100 100 100 100 100 100
4 96 65 100 100 100 100 100 100 68 22 2 3 4 0 0 1 71 100 100 92 96 94 100 99 100 100 99 98 83 89 80 97 33 11 78 64 100 100 100 100 100 100 100
78 38 100 100 100 100 100 100 100 100 4 4 4 4 0 0 2 0 0 20 84 28 11 25 7 5 0 0 42 97 8 0 0 0 0 0 0 83 100 100 100 100 100 100
54 2 70 96 100 95 100 100 100 100 7 2 48 58 9 2 4 54 9 0 0 0 19 5 5 1 0 0 0 72 100 71 3 0 0 0 0 0 0 68 100 100 100 100
4 4 0 5 37 100 100 75 5 88 99 1 23 100 94 61 96 100 100 67 4 3 0 0 0 0 0 0 0 0 0 3 1 0 0 0 0 0 0 0 0 35 100 100
71 5 24 0 0 14 42 85 100 96 53 4 48 100 100 100 100 100 100 100 37 5 3 0 0 0 0 0 0 0 0 0 0 0 0 0 0 0 0 0 0 0 13 100
74 51 5 1 1 5 5 40 73 100 18 5 2 48 93 98 90 85 64 94 100 93 24 5 3 0 0 0 0 0 0 0 0 0 0 0 0 0 0 0 0 0 0 22
12 28 38 5 4 5 5 5 11 5 1 4 4 0 4 9 34 100 49 5 18 82 100 100 92 54 4 3 0 0 0 0 0 0 0 0 0 0 0 0 0 0 0 0

GFSCGP_prec_cloud_111.txt.gz
Cloud_Cover
0 0 1 95 5 6 5 2 3 5 100 100 100 100 100 38 100 100 100 100 100 94 65 4 5 16 72 5 89 1 0 5 28 8 46 5 5 5 11 5 0 0 0 0
0 0 4 47 68 52 5 0 30 3 40 100 100 100 100 84 96 99 100 100 100 69 100 92 88 87 1 6 5 0 0 3 5 17 8 14 11 61 37 5 5 23 5 1
0 0 0 0 8 58 5 4 5 2 10 100 100 100 100 100 98 100 100 100 100 100 72 13 88 100 4 5 42 1 1 5 6 48 26 26 23 94 7 4 5 25 32 46
0 0 0 0 2 94 10 87 26 5 5 69 100 99 100 100 100 100 100 100 81 95 99 56 92 100 90 35 18 1 28 100 100 36 32 11 5 80 5 5 5 5 8 52
0 0 0 0 0 6 100 100 56 5 86 6 100 44 100 93 93 100 76 100 68 95 50 11 50 100 100 24 5 1 12 100 100 97 52 30 5 6 41 4 22 36 63 18
0 0 0 0 0 0 3 99 84 73 3 17 90 24 100 89 27 100 100 100 98 14 15 82 100 100 100 67 11 11 5 100 100 100 73 91 5 4 46 3 5 28 87 92
0 0 0 0 0 0 0 6 15 5 16 0 63 56 100 21 30 54 99 100 99 91 92 20 100 100 100 54 5 62 94 60 100 100 99 100 29 5 5 3 5 5 65 100
0 0 0 0 0 0 0 0 5 6 36 6 5 24 48 41 92 73 100 100 100 100 20 67 100 100 100 83 13 6 100 5 98 100 94 100 100 100 50 5 34 5 32 44
0 0 0 0 0 0 0 0 5 5 0 77 5 79 99 69 78 75 70 100 100 100 100 100 73 100 100 100 92 15 5 49 95 11 87 47 100 100 100 100 100 52 53 5
0 0 0 0 0 0 0 0 1 1 0 50 18 44 70 96 100 100 87 100 100 100 99 91 100 100 90 100 100 97 62 32 5 17 22 100 100 100 100 100 100 100 88 28
5 0 0 0 0 0 0 0 0 0 5 5 5 9 91 100 100 100 100 100 100 100 100 100 100 100 100 97 100 100 67 54 100 5 5 22 95 100 100 96 100 100 100 100
11 5 5 0 3 0 0 5 5 5 70 9 56 23 88 67 100 94 99 100 100 100 100 100 100 100 100 100 100 100 94 100 100 98 52 90 100 100 100 100 80 100 100 100
96 75 52 5 17 4 0 0 3 16 64 43 21 19 100 98 95 100 100 76 100 100 100 100 100 100 100 100 100 100 100 100 82 100 100 100 100 100 100 100 100 100 83 100
5 84 97 44 14 8 3 2 0 1 39 4 39 98 100 97 100 100 100 100 100 100 100 100 100 100 100 100 100 100 100 100 100 100 100 100 100 100 100 100 100 100 100 100
33 43 98 100 80 5 5 5 0 0 44 11 2 89 100 38 100 100 100 100 100 100 100 100 100 100 100 100 100 100 100 100 100 100 100 100 99 100 92 100 98 100 100 100
95 5 78 100 95 87 5 5 3 5 28 37 51 90 57 90 75 100 100 100 100 100 100 100 100 100 100 100 100 100 100 100 100 100 100 100 100 100 100 100 88 100 98 100
100 100 100 100 98 100 83 14 1 94 88 10 40 64 95 93 100 100 100 85 100 100 100 100 100 100 100 100 100 100 100 100 100 100 100 100 100 98 100 100 100 98 72 97
100 100 89 96 77 98 58 70 24 92 97 5 5 7 56 6 10 71 100 100 49 100 100 100 100 100 100 100 100 100 100 100 100 100 100 100 98 100 100 100 100 100 86 94
97 100 53 57 87 93 100 100 81 86 27 8 8 4 48 83 98 100 100 97 74 100 99 100 100 100 100 100 100 100 100 100 100 100 100 100 46 6 99 100 99 100 100 100
100 100 100 6 14 76 100 100 20 91 100 13 3 3 0 14 4 14 77 51 63 96 100 95 100 100 100 100 100 100 100 100 100 100 100 100 100 27 25 100 100 100 100 100
100 81 57 4 4 11 100 100 100 52 57 92 69 88 35 5 0 3 2 0 12 51 98 97 100 100 100 100 100 100 100 100 100 100 100 100 87 90 98 61 100 100 100 100
2 12 74 5 0 88 100 100 100 98 100 5 38 60 99 60 90 13 0 0 0 8 100 97 100 100 100 100 100 100 100 100 100 100 100 100 96 97 74 84 5 100 64 100
4 5 5 0 4 65 100 100 100 100 100 83 52 19 92 92 100 100 56 60 8 4 10 68 89 44 5 54 99 100 100 100 100 100 100 100 85 100 100 100 82 96 98 98
24 3 2 0 3 7 100 100 100 100 100 100 19 58 100 100 100 100 100 100 100 100 82 22 19 2 0 1 3 77 93 100 100 100 100 94 100 100 100 92 2 0 51 41
5 5 5 4 2 1 4 54 100 100 99 100 94 60 100 100 100 100 100 100 100 100 100 95 13 5 3 0 0 0 0 23 94 100 46 25 10 76 54 27 0 0 0 0
5 5 5 5 1 2 3 16 14 51 91 100 39 96 9 100 100 100 100 100 99 100 100 90 5 4 5 5 4 1 0 0 0 0 0 0 0 0 2 100 97 26 2 0

GFSCGP_prec_cloud_114.txt.gz
Cloud_Cover
0 0 0 5 5 5 5 5 5 1 5 100 79 49 51 13 98 100 100 100 100 91 8 5 59 5 0 0 5 4 86 1 6 6 0 5 47 5 4 18 6 0 0 0
0 0 0 0 4 5 5 5 40 5 4 60 96 100 97 30 51 99 100 100 40 99 95 26 5 5 0 0 4 8 80 92 5 5 5 5 5 5 51 16 24 20 5 0
0 0 0 0 1 5 5 7 5 4 22 3 100 100 100 72 94 100 100 100 100 95 96 22 32 6 45 0 4 29 100 100 5 5 12 18 9 6 5 88 65 100 49 5
0 0 0 0 0 0 6 57 5 0 5 10 99 100 100 100 100 65 79 100 100 100 75 100 32 75 100 18 4 4 100 100 100 77 1 0 0 3 1 7 61 91 95 31
0 0 0 0 0 0 4 5 5 5 70 5 80 100 100 100 99 49 17 99 100 100 98 79 97 8 94 100 20 0 92 83 100 100 6 5 0 3 3 5 5 93 61 96
0 0 0 0 0 0 0 4 5 5 97 5 15 56 98 100 90 89 100 100 100 98 84 67 25 35 9 100 24 0 11 4 64 100 94 99 36 14 15 1 0 14 100 61
0 0 0 0 0 0 0 15 26 43 5 2 34 47 5 100 66 84 93 100 98 99 100 97 24 65 99 100 50 1 5 76 6 100 100 100 100 100 41 4 2 5 13 99
0 0 0 0 0 0 0 4 5 5 0 0 1 93 99 100 91 86 42 100 100 100 100 94 24 55 74 100 4 4 16 66 26 13 53 89 100 100 100 100 35 19 5 6
0 0 0 0 0 0 0 0 5 5 0 5 5 32 100 100 96 82 18 8 100 100 99 100 100 76 5 98 9 100 80 5 23 9 25 48 100 100 100 100 100 100 80 5
0 0 0 0 0 0 0 0 0 0 0 4 53 8 71 97 100 82 76 99 100 100 100 100 100 72 58 94 100 100 100 62 34 5 89 20 70 98 100 100 100 43 100 22
4 2 0 0 0 0 0 0 0 0 0 0 0 0 21 66 99 100 100 98 48 100 100 100 100 100 100 97 97 100 85 95 20 69 75 5 5 99 100 100 100 100 98 100
100 20 5 0 0 0 0 0 0 0 0 0 0 7 86 67 100 100 100 99 73 100 100 100 100 100 100 100 100 100 100 91 96 100 97 5 5 8 100 100 100 100 100 100
85 100 40 5 0 0 0 0 0 0 0 0 0 3 71 47 23 98 100 100 100 96 100 100 99 100 100 100 100 100 100 100 92 59 100 51 41 86 79 87 100 100 100 98
99 100 100 5 4 0 0 0 0 0 0 0 0 76 99 94 89 97 100 100 100 100 100 100 100 100 100 100 100 100 100 100 96 95 100 100 100 100 99 44 63 100 100 100
83 92 95 95 95 72 78 0 0 0 0 2 0 0 2 82 42 60 100 100 100 100 100 100 100 100 100 100 100 100 100 100 100 100 98 100 100 100 100 96 89 98 100 100
5 5 6 14 100 100 94 8 2 0 0 0 0 0 0 10 70 98 100 84 100 100 100 100 100 100 100 100 100 100 100 100 100 100 100 100 100 100 100 100 63 93 100 100
52 99 100 24 36 100 97 5 2 5 5 1 2 0 0 6 57 100 100 100 100 100 100 100 100 100 100 100 100 100 100 100 100 100 100 100 100 100 100 98 91 99 100 100
100 100 100 100 97 83 89 62 5 5 3 5 7 5 5 6 5 8 78 100 100 100 100 100 100 100 100 100 100 100 100 100 100 100 100 100 100 100 100 100 100 100 82 100
100 100 100 100 98 8 6 39 88 99 5 5 5 9 5 5 5 96 100 100 100 100 100 100 100 100 100 100 100 100 100 100 100 100 100 100 100 100 100 92 100 100 100 100
100 100 100 100 100 100 100 39 9 53 100 100 5 0 5 18 98 96 86 100 100 100 100 100 100 100 100 100 100 100 100 100 100 100 100 100 100 100 100 100 100 100 100 100
12 98 100 100 100 100 100 8 5 77 68 100 24 5 5 5 15 8 98 100 100 99 100 100 100 100 100 100 100 100 100 100 100 100 100 100 100 100 100 100 100 84 72 99
0 8 87 98 100 100 100 70 4 0 99 100 12 100 80 50 81 62 97 9 5 88 63 81 100 99 100 100 100 100 100 100 100 100 100 100 100 100 100 100 100 98 100 100
4 2 0 2 30 57 50 19 7 30 14 95 90 85 88 100 90 100 100 100 58 5 5 5 19 8 93 100 100 100 100 100 100 100 100 100 100 100 100 90 89 100 100 100
0 0 0 3 84 38 6 86 65 6 2 94 96 100 72 100 100 100 100 100 87 62 7 5 18 99 92 100 100 100 100 100 100 100 100 100 100 100 100 100 100 100 99 83
0 1 4 4 0 0 0 2 0 3 2 99 100 100 100 100 100 100 100 100 100 100 84 30 5 5 5 4 10 70 100 100 100 100 100 100 100 100 100 100 100 100 100 100
0 3 5 7 3 0 0 0 0 0 0 100 100 100 100 100 100 100 100 100 100 100 100 100 100 98 88 24 4 5 2 37 100 100 100 100 100 100 100 100 100 100 100 100

GFSCGP_prec_cloud_117.txt.gz
Cloud_Cover
0 0 1 5 5 5 5 5 5 5 5 74 50 83 91 39 99 100 100 84 100 100 42 78 80 3 0 2 5 5 26 5 5 0 1 1 0 5 5 0 0 0 0 0
0 0 0 0 5 5 5 5 5 12 9 13 94 47 48 86 90 86 100 100 100 99 94 11 69 58 87 0 5 5 15 6 5 4 0 0 0 0 5 5 0 0 0 0
0 0 0 0 1 5 6 87 16 5 4 3 13 38 100 53 89 77 100 100 100 100 76 70 92 73 70 1 4 6 52 97 7 5 4 0 0 0 3 5 0 0 0 0
0 0 0 0 0 3 5 64 7 5 5 5 5 6 100 100 75 17 92 100 100 97 99 100 98 8 23 92 5 5 12 100 43 5 24 4 4 5 5 0 3 0 0 0
0 0 0 0 0 0 2 5 74 17 3 2 5 5 66 100 100 95 76 99 100 100 95 100 97 94 6 80 92 25 3 92 100 88 40 0 2 0 0 16 2 4 0 0
0 0 0 0 0 0 0 0 2 5 5 1 3 4 57 93 100 100 91 18 95 100 100 96 97 15 69 61 46 6 1 7 94 93 87 15 5 2 0 0 3 5 20 1
0 0 0 0 0 0 0 0 0 1 0 1 0 0 100 93 100 100 100 65 35 94 82 100 95 31 97 22 91 80 5 5 85 6 96 96 4 2 3 1 3 5 14 8
0 0 0 0 0 0 0 0 0 0 0 3 0 0 100 100 97 100 100 73 84 100 91 99 81 42 37 79 65 6 5 90 6 4 16 99 94 8 29 16 5 0 4 5
0 0 0 0 0 0 0 0 0 0 0 0 0 0 0 100 100 100 99 79 68 100 98 92 100 100 100 73 98 70 5 89 12 41 4 19 73 5 3 5 23 0 0 1
4 0 0 0 0 0 0 0 0 0 5 5 0 0 0 19 100 100 72 62 99 100 100 100 100 100 100 76 100 95 9 26 26 80 74 5 4 5 5 30 5 5 5 4
98 21 2 0 0 0 0 0 0 0 0 5 2 0 0 0 100 100 19 88 77 100 100 100 100 84 100 82 96 100 7 84 64 73 26 37 4 5 5 22 5 9 17 49
100 96 9 0 0 0 0 0 0 0 0 0 0 0 0 8 62 100 100 100 99 100 100 100 100 96 72 47 66 85 94 16 59 85 41 43 6 5 5 58 83 100 29 100
82 46 70 8 0 0 0 0 0 0 0 0 0 0 44 25 15 98 100 100 100 100 100 96 100 100 100 78 85 100 97 92 68 100 93 8 14 34 5 9 49 89 33 100
100 80 8 3 5 0 0 0 0 0 0 3 0 0 88 98 62 94 100 100 100 100 100 59 92 100 100 100 90 100 100 100 100 100 100 74 31 63 72 62 16 10 80 86
100 100 100 37 3 5 35 2 0 0 0 0 1 0 0 55 95 100 94 96 90 100 100 100 90 83 100 100 100 100 100 100 100 100 100 100 100 94 76 72 96 42 41 74
100 100 99 76 5 5 5 100 95 2 0 0 0 0 0 27 100 100 100 100 100 100 100 100 100 100 100 99 100 100 100 100 100 100 100 100 100 100 99 100 100 100 99 70
16 66 86 16 32 23 5 10 90 22 5 0 0 0 0 92 100 100 100 100 89 100 100 100 100 100 100 100 100 100 100 100 100 100 100 69 100 100 89 90 100 100 100 89
67 58 4 5 84 76 67 4 5 5 96 44 4 0 11 97 100 100 93 68 45 92 98 100 100 100 100 100 100 100 100 100 100 100 100 100 100 100 100 92 100 98 88 91
5 64 35 76 4 54 12 5 5 87 45 5 5 8 89 90 100 100 99 81 3 40 100 100 100 100 100 100 100 100 100 100 100 100 100 100 100 100 100 100 100 100 100 84
100 90 59 19 68 18 61 6 6 92 77 74 75 29 95 100 100 100 48 100 73 40 100 97 100 100 100 100 100 100 100 100 100 100 100 100 100 100 92 100 100 87 99 100
0 1 93 46 15 92 100 79 100 22 4 100 94 100 75 84 7 30 100 100 100 100 98 100 100 100 100 100 100 100 100 100 100 100 100 100 100 100 100 100 100 100 100 98
0 0 0 3 42 100 100 89 25 93 13 100 100 100 89 82 49 5 90 100 100 100 98 80 100 100 100 100 100 100 100 100 100 100 100 100 100 100 100 100 100 98 100 100
1 0 0 0 2 100 100 100 58 100 14 13 49 100 100 100 95 100 100 100 100 100 100 96 99 100 100 100 100 100 100 100 100 100 100 100 100 100 100 100 100 100 100 100
4 5 0 0 0 1 97 100 100 100 13 4 3 66 88 100 96 85 100 100 100 100 100 100 100 100 100 100 100 100 100 100 100 100 100 100 100 100 100 100 100 100 100 100
0 0 0 0 0 2 0 66 100 57 61 5 8 5 27 71 86 100 100 100 100 99 100 100 100 100 98 74 27 19 100 100 100 100 100 100 100 100 100 100 100 100 100 100
0 0 0 0 1 0 0 3 8 36 65 18 5 2 58 91 100 100 100 100 100 100 98 100 94 100 100 100 93 92 74 97 100 100 100 100 100 100 100 100 100 100 100 100

GFSCGP_prec_cloud_123.txt.gz
Cloud_Cover
2 4 5 5 7 100 22 74 100 100 100 100 100 100 100 100 100 100 85 100 62 94 100 74 100 100 100 74 100 100 93 15 10 0 85 21 100 98 58 98 27 29 64 9
0 0 8 91 98 80 6 24 82 100 100 77 100 100 100 100 100 100 99 100 98 18 70 83 100 99 100 100 100 95 85 23 27 100 100 96 100 100 100 100 0 90 25 13
0 1 6 100 92 5 96 100 7 88 0 72 92 100 100 100 100 100 100 100 65 100 34 82 89 51 100 84 89 84 51 12 10 96 71 17 100 88 90 100 66 60 60 23
0 0 9 5 9 88 100 12 17 96 4 25 43 100 100 100 100 100 73 99 100 100 51 78 54 97 81 79 93 38 99 58 17 0 100 75 3 92 39 87 100 99 11 42
0 0 0 1 85 100 94 56 98 100 59 84 35 100 100 100 100 100 57 54 58 100 54 76 99 99 100 100 100 75 100 99 99 82 60 21 81 96 8 95 92 31 72 13
28 5 0 5 64 52 99 10 5 22 79 84 60 100 100 100 100 100 100 68 47 61 25 48 68 100 80 37 95 12 100 100 42 100 91 27 7 98 100 15 14 53 62 29
5 2 0 0 5 12 5 4 73 89 97 83 100 92 88 100 100 100 96 88 77 74 45 97 65 98 98 93 11 100 94 63 100 45 100 96 62 100 29 14 2 100 100 83
5 0 0 0 0 0 42 8 100 97 100 100 35 33 90 100 68 97 84 91 99 73 20 100 85 98 99 98 57 11 61 100 100 99 88 100 10 18 20 17 100 5 25 100
76 33 3 0 0 0 0 0 18 100 18 92 99 98 3 40 7 43 99 100 95 100 46 7 94 100 100 77 100 14 49 83 100 91 99 86 25 96 99 38 87 56 21 85
76 99 6 4 0 0 1 19 0 42 100 94 71 86 100 67 2 0 85 100 97 100 87 24 45 92 96 81 100 100 40 63 100 81 30 5 87 41 30 22 5 42 98 84
15 48 91 0 0 0 0 0 2 53 55 100 37 100 85 84 2 0 0 98 100 97 100 28 62 98 95 89 100 95 35 21 69 14 84 21 23 48 64 56 38 13 33 70
78 24 100 54 3 0 4 0 0 5 5 5 98 94 6 100 39 0 0 2 100 73 56 7 37 100 84 100 100 100 56 47 15 27 70 13 5 26 33 60 58 45 48 14
97 37 98 100 36 2 2 5 1 0 9 73 78 100 100 94 59 0 0 18 99 100 91 94 59 92 99 100 88 96 78 94 51 84 31 19 25 54 13 44 44 69 30 17
22 100 87 100 87 88 5 0 5 19 100 100 100 91 2 0 5 0 0 27 85 100 100 46 35 66 100 96 100 100 50 99 100 100 98 94 21 1 2 14 31 37 12 94
93 55 99 100 98 24 100 86 14 4 5 86 100 86 100 81 0 0 0 21 57 100 100 98 58 26 44 74 99 100 84 18 83 51 100 22 7 53 12 3 8 14 48 98
100 100 40 100 100 90 100 100 91 89 22 5 42 63 0 21 95 6 14 20 40 100 95 100 98 100 78 68 98 100 95 84 84 54 53 65 43 56 98 66 76 6 5 13
100 100 100 100 100 82 98 99 99 100 100 100 100 73 5 100 100 100 94 62 98 100 85 84 100 98 100 88 89 100 100 66 77 86 100 88 99 98 100 96 100 100 100 98
93 91 100 100 96 100 99 20 82 100 78 4 37 99 50 98 36 97 100 100 100 100 100 96 95 98 98 100 99 100 100 100 95 100 100 100 100 100 100 100 100 100 100 95
5 5 94 100 100 100 100 95 23 81 65 5 97 3 14 15 30 38 100 100 100 100 100 90 99 100 100 100 100 100 99 100 100 93 100 100 100 100 100 100 100 90 100 100
29 97 66 100 100 100 84 97 100 100 98 17 66 44 88 3 0 43 82 100 100 71 93 100 100 100 100 100 100 100 72 100 100 100 100 100 100 100 100 100 98 99 100 100
86 100 91 99 95 100 87 97 100 100 97 5 1 10 16 30 36 60 55 100 59 86 100 100 100 100 100 100 100 100 87 82 100 100 100 100 100 100 100 100 100 100 100 100
20 96 94 81 96 100 80 74 68 20 17 22 70 43 27 14 67 71 100 100 88 97 97 100 100 100 100 100 100 100 100 100 59 100 100 100 100 100 100 100 100 100 100 100
0 29 98 51 100 88 99 68 1 3 5 5 30 38 5 54 86 84 100 100 100 97 90 100 100 100 100 100 100 100 100 100 100 96 64 100 100 100 100 100 100 100 100 100
99 17 0 53 97 10 4 0 0 0 0 0 3 13 21 9 86 100 100 100 100 100 100 100 100 100 100 100 100 100 100 100 100 100 100 100 77 100 100 100 100 100 100 100
66 100 98 4 0 45 45 0 0 0 0 0 4 23 100 89 66 100 100 98 60 95 100 100 100 73 100 100 100 100 100 100 100 100 100 100 100 100 100 100 100 100 99 100
5 81 97 100 99 100 75 4 0 0 0 0 0 12 92 95 100 100 100 98 81 100 100 100 100 100 100 100 100 100 100 100 95 99 100 100 100 100 96 100 100 100 100 100